<?xml version="1.0" encoding="UTF-8" standalone="no" ?>
<gpx xmlns="http://www.topografix.com/GPX/1/1" xmlns:xsi="http://www.w3.org/2001/XMLSchema-instance" xsi:schemaLocation="http://www.topografix.com/GPX/1/1 http://www.topografix.com/GPX/1/1/gpx.xsd" version="1.1" creator="VisuGPX - https://www.visugpx.com">
  <metadata>
    <name>Sortie VTT seboine</name>
    <desc><![CDATA[sortie VTT du 22 Mars 2012]]></desc>
  </metadata>
  <trk>
    <name><![CDATA[22 mars 2012]]></name>
    <trkseg>
      <trkpt lat="48.68564" lon="6.15974">
        <ele>258</ele>
        <time>2012-03-22T13:29:34Z</time>
      </trkpt>
      <trkpt lat="48.68569" lon="6.15975">
        <ele>267</ele>
        <time>2012-03-22T13:29:36Z</time>
      </trkpt>
      <trkpt lat="48.68578" lon="6.15962">
        <ele>263</ele>
        <time>2012-03-22T13:29:38Z</time>
      </trkpt>
      <trkpt lat="48.68584" lon="6.15953">
        <ele>263</ele>
        <time>2012-03-22T13:29:40Z</time>
      </trkpt>
      <trkpt lat="48.68584" lon="6.15953">
        <ele>263</ele>
        <time>2012-03-22T13:29:42Z</time>
      </trkpt>
      <trkpt lat="48.68555" lon="6.16014">
        <ele>271</ele>
        <time>2012-03-22T13:29:44Z</time>
      </trkpt>
      <trkpt lat="48.68534" lon="6.16038">
        <ele>269</ele>
        <time>2012-03-22T13:29:46Z</time>
      </trkpt>
      <trkpt lat="48.68516" lon="6.16059">
        <ele>254</ele>
        <time>2012-03-22T13:29:48Z</time>
      </trkpt>
      <trkpt lat="48.68503" lon="6.1607">
        <ele>251</ele>
        <time>2012-03-22T13:29:50Z</time>
      </trkpt>
      <trkpt lat="48.68513" lon="6.16054">
        <ele>259</ele>
        <time>2012-03-22T13:29:58Z</time>
      </trkpt>
      <trkpt lat="48.68521" lon="6.16047">
        <ele>267</ele>
        <time>2012-03-22T13:30:00Z</time>
      </trkpt>
      <trkpt lat="48.68538" lon="6.16034">
        <ele>265</ele>
        <time>2012-03-22T13:30:02Z</time>
      </trkpt>
      <trkpt lat="48.68552" lon="6.16017">
        <ele>263</ele>
        <time>2012-03-22T13:30:04Z</time>
      </trkpt>
      <trkpt lat="48.6856" lon="6.16002">
        <ele>259</ele>
        <time>2012-03-22T13:30:06Z</time>
      </trkpt>
      <trkpt lat="48.68565" lon="6.15991">
        <ele>259</ele>
        <time>2012-03-22T13:30:08Z</time>
      </trkpt>
      <trkpt lat="48.68572" lon="6.15978">
        <ele>262</ele>
        <time>2012-03-22T13:30:10Z</time>
      </trkpt>
      <trkpt lat="48.68581" lon="6.15962">
        <ele>259</ele>
        <time>2012-03-22T13:30:12Z</time>
      </trkpt>
      <trkpt lat="48.68589" lon="6.15952">
        <ele>261</ele>
        <time>2012-03-22T13:30:14Z</time>
      </trkpt>
      <trkpt lat="48.68594" lon="6.15946">
        <ele>260</ele>
        <time>2012-03-22T13:30:16Z</time>
      </trkpt>
      <trkpt lat="48.68602" lon="6.15943">
        <ele>252</ele>
        <time>2012-03-22T13:30:18Z</time>
      </trkpt>
      <trkpt lat="48.68607" lon="6.15939">
        <ele>244</ele>
        <time>2012-03-22T13:30:20Z</time>
      </trkpt>
      <trkpt lat="48.6861" lon="6.15928">
        <ele>243</ele>
        <time>2012-03-22T13:30:22Z</time>
      </trkpt>
      <trkpt lat="48.6861" lon="6.15919">
        <ele>241</ele>
        <time>2012-03-22T13:30:24Z</time>
      </trkpt>
      <trkpt lat="48.68607" lon="6.1591">
        <ele>239</ele>
        <time>2012-03-22T13:30:26Z</time>
      </trkpt>
      <trkpt lat="48.68604" lon="6.15901">
        <ele>240</ele>
        <time>2012-03-22T13:30:28Z</time>
      </trkpt>
      <trkpt lat="48.68601" lon="6.15891">
        <ele>238</ele>
        <time>2012-03-22T13:30:30Z</time>
      </trkpt>
      <trkpt lat="48.68598" lon="6.15881">
        <ele>241</ele>
        <time>2012-03-22T13:30:32Z</time>
      </trkpt>
      <trkpt lat="48.68594" lon="6.15869">
        <ele>245</ele>
        <time>2012-03-22T13:30:34Z</time>
      </trkpt>
      <trkpt lat="48.68591" lon="6.15857">
        <ele>241</ele>
        <time>2012-03-22T13:30:36Z</time>
      </trkpt>
      <trkpt lat="48.68588" lon="6.15845">
        <ele>239</ele>
        <time>2012-03-22T13:30:38Z</time>
      </trkpt>
      <trkpt lat="48.68587" lon="6.1583">
        <ele>237</ele>
        <time>2012-03-22T13:30:40Z</time>
      </trkpt>
      <trkpt lat="48.68584" lon="6.15819">
        <ele>239</ele>
        <time>2012-03-22T13:30:42Z</time>
      </trkpt>
      <trkpt lat="48.6858" lon="6.15808">
        <ele>240</ele>
        <time>2012-03-22T13:30:44Z</time>
      </trkpt>
      <trkpt lat="48.68577" lon="6.15797">
        <ele>240</ele>
        <time>2012-03-22T13:30:46Z</time>
      </trkpt>
      <trkpt lat="48.68574" lon="6.15785">
        <ele>241</ele>
        <time>2012-03-22T13:30:48Z</time>
      </trkpt>
      <trkpt lat="48.68571" lon="6.15772">
        <ele>241</ele>
        <time>2012-03-22T13:30:50Z</time>
      </trkpt>
      <trkpt lat="48.68565" lon="6.15762">
        <ele>241</ele>
        <time>2012-03-22T13:30:52Z</time>
      </trkpt>
      <trkpt lat="48.68564" lon="6.15748">
        <ele>243</ele>
        <time>2012-03-22T13:30:54Z</time>
      </trkpt>
      <trkpt lat="48.6856" lon="6.15734">
        <ele>246</ele>
        <time>2012-03-22T13:30:56Z</time>
      </trkpt>
      <trkpt lat="48.68555" lon="6.15721">
        <ele>245</ele>
        <time>2012-03-22T13:30:58Z</time>
      </trkpt>
      <trkpt lat="48.68554" lon="6.15707">
        <ele>243</ele>
        <time>2012-03-22T13:31:00Z</time>
      </trkpt>
      <trkpt lat="48.68551" lon="6.15693">
        <ele>243</ele>
        <time>2012-03-22T13:31:02Z</time>
      </trkpt>
      <trkpt lat="48.68549" lon="6.15678">
        <ele>242</ele>
        <time>2012-03-22T13:31:04Z</time>
      </trkpt>
      <trkpt lat="48.68544" lon="6.15663">
        <ele>241</ele>
        <time>2012-03-22T13:31:06Z</time>
      </trkpt>
      <trkpt lat="48.68541" lon="6.1565">
        <ele>241</ele>
        <time>2012-03-22T13:31:08Z</time>
      </trkpt>
      <trkpt lat="48.68538" lon="6.15638">
        <ele>242</ele>
        <time>2012-03-22T13:31:10Z</time>
      </trkpt>
      <trkpt lat="48.68536" lon="6.15625">
        <ele>241</ele>
        <time>2012-03-22T13:31:12Z</time>
      </trkpt>
      <trkpt lat="48.68531" lon="6.15612">
        <ele>236</ele>
        <time>2012-03-22T13:31:14Z</time>
      </trkpt>
      <trkpt lat="48.68528" lon="6.15597">
        <ele>232</ele>
        <time>2012-03-22T13:31:16Z</time>
      </trkpt>
      <trkpt lat="48.68525" lon="6.15587">
        <ele>232</ele>
        <time>2012-03-22T13:31:18Z</time>
      </trkpt>
      <trkpt lat="48.68521" lon="6.15577">
        <ele>235</ele>
        <time>2012-03-22T13:31:20Z</time>
      </trkpt>
      <trkpt lat="48.6852" lon="6.15565">
        <ele>238</ele>
        <time>2012-03-22T13:31:22Z</time>
      </trkpt>
      <trkpt lat="48.68518" lon="6.1555">
        <ele>240</ele>
        <time>2012-03-22T13:31:24Z</time>
      </trkpt>
      <trkpt lat="48.68515" lon="6.15535">
        <ele>246</ele>
        <time>2012-03-22T13:31:26Z</time>
      </trkpt>
      <trkpt lat="48.6851" lon="6.15519">
        <ele>242</ele>
        <time>2012-03-22T13:31:28Z</time>
      </trkpt>
      <trkpt lat="48.68507" lon="6.15504">
        <ele>240</ele>
        <time>2012-03-22T13:31:30Z</time>
      </trkpt>
      <trkpt lat="48.68502" lon="6.15485">
        <ele>238</ele>
        <time>2012-03-22T13:31:32Z</time>
      </trkpt>
      <trkpt lat="48.68496" lon="6.1547">
        <ele>238</ele>
        <time>2012-03-22T13:31:34Z</time>
      </trkpt>
      <trkpt lat="48.68489" lon="6.15458">
        <ele>238</ele>
        <time>2012-03-22T13:31:36Z</time>
      </trkpt>
      <trkpt lat="48.68485" lon="6.15445">
        <ele>236</ele>
        <time>2012-03-22T13:31:38Z</time>
      </trkpt>
      <trkpt lat="48.6848" lon="6.15428">
        <ele>234</ele>
        <time>2012-03-22T13:31:40Z</time>
      </trkpt>
      <trkpt lat="48.68477" lon="6.15412">
        <ele>238</ele>
        <time>2012-03-22T13:31:42Z</time>
      </trkpt>
      <trkpt lat="48.68474" lon="6.15394">
        <ele>237</ele>
        <time>2012-03-22T13:31:44Z</time>
      </trkpt>
      <trkpt lat="48.68473" lon="6.15377">
        <ele>235</ele>
        <time>2012-03-22T13:31:46Z</time>
      </trkpt>
      <trkpt lat="48.68471" lon="6.15363">
        <ele>235</ele>
        <time>2012-03-22T13:31:48Z</time>
      </trkpt>
      <trkpt lat="48.68469" lon="6.1535">
        <ele>234</ele>
        <time>2012-03-22T13:31:50Z</time>
      </trkpt>
      <trkpt lat="48.68465" lon="6.15333">
        <ele>235</ele>
        <time>2012-03-22T13:31:52Z</time>
      </trkpt>
      <trkpt lat="48.68462" lon="6.15318">
        <ele>233</ele>
        <time>2012-03-22T13:31:54Z</time>
      </trkpt>
      <trkpt lat="48.68457" lon="6.15303">
        <ele>233</ele>
        <time>2012-03-22T13:31:56Z</time>
      </trkpt>
      <trkpt lat="48.68455" lon="6.1529">
        <ele>231</ele>
        <time>2012-03-22T13:31:58Z</time>
      </trkpt>
      <trkpt lat="48.68451" lon="6.15276">
        <ele>231</ele>
        <time>2012-03-22T13:32:00Z</time>
      </trkpt>
      <trkpt lat="48.68447" lon="6.15262">
        <ele>231</ele>
        <time>2012-03-22T13:32:02Z</time>
      </trkpt>
      <trkpt lat="48.68443" lon="6.15248">
        <ele>231</ele>
        <time>2012-03-22T13:32:04Z</time>
      </trkpt>
      <trkpt lat="48.68441" lon="6.15233">
        <ele>230</ele>
        <time>2012-03-22T13:32:06Z</time>
      </trkpt>
      <trkpt lat="48.68438" lon="6.15219">
        <ele>231</ele>
        <time>2012-03-22T13:32:08Z</time>
      </trkpt>
      <trkpt lat="48.68433" lon="6.15207">
        <ele>232</ele>
        <time>2012-03-22T13:32:10Z</time>
      </trkpt>
      <trkpt lat="48.68431" lon="6.15195">
        <ele>235</ele>
        <time>2012-03-22T13:32:12Z</time>
      </trkpt>
      <trkpt lat="48.68428" lon="6.15185">
        <ele>233</ele>
        <time>2012-03-22T13:32:14Z</time>
      </trkpt>
      <trkpt lat="48.68426" lon="6.15173">
        <ele>235</ele>
        <time>2012-03-22T13:32:16Z</time>
      </trkpt>
      <trkpt lat="48.68422" lon="6.15162">
        <ele>232</ele>
        <time>2012-03-22T13:32:18Z</time>
      </trkpt>
      <trkpt lat="48.6842" lon="6.15151">
        <ele>230</ele>
        <time>2012-03-22T13:32:20Z</time>
      </trkpt>
      <trkpt lat="48.6842" lon="6.15138">
        <ele>229</ele>
        <time>2012-03-22T13:32:22Z</time>
      </trkpt>
      <trkpt lat="48.68417" lon="6.15128">
        <ele>232</ele>
        <time>2012-03-22T13:32:24Z</time>
      </trkpt>
      <trkpt lat="48.68417" lon="6.15121">
        <ele>235</ele>
        <time>2012-03-22T13:32:26Z</time>
      </trkpt>
      <trkpt lat="48.68416" lon="6.15113">
        <ele>234</ele>
        <time>2012-03-22T13:32:28Z</time>
      </trkpt>
      <trkpt lat="48.68415" lon="6.15106">
        <ele>233</ele>
        <time>2012-03-22T13:32:30Z</time>
      </trkpt>
      <trkpt lat="48.68414" lon="6.15098">
        <ele>233</ele>
        <time>2012-03-22T13:32:32Z</time>
      </trkpt>
      <trkpt lat="48.68412" lon="6.15093">
        <ele>235</ele>
        <time>2012-03-22T13:32:34Z</time>
      </trkpt>
      <trkpt lat="48.68409" lon="6.15087">
        <ele>237</ele>
        <time>2012-03-22T13:32:36Z</time>
      </trkpt>
      <trkpt lat="48.68404" lon="6.15077">
        <ele>239</ele>
        <time>2012-03-22T13:32:40Z</time>
      </trkpt>
      <trkpt lat="48.684" lon="6.1506">
        <ele>232</ele>
        <time>2012-03-22T13:32:44Z</time>
      </trkpt>
      <trkpt lat="48.68396" lon="6.15051">
        <ele>231</ele>
        <time>2012-03-22T13:32:46Z</time>
      </trkpt>
      <trkpt lat="48.6839" lon="6.15045">
        <ele>231</ele>
        <time>2012-03-22T13:32:48Z</time>
      </trkpt>
      <trkpt lat="48.68385" lon="6.15037">
        <ele>228</ele>
        <time>2012-03-22T13:32:50Z</time>
      </trkpt>
      <trkpt lat="48.6838" lon="6.1503">
        <ele>230</ele>
        <time>2012-03-22T13:32:52Z</time>
      </trkpt>
      <trkpt lat="48.68374" lon="6.15023">
        <ele>229</ele>
        <time>2012-03-22T13:32:54Z</time>
      </trkpt>
      <trkpt lat="48.68367" lon="6.15015">
        <ele>229</ele>
        <time>2012-03-22T13:32:56Z</time>
      </trkpt>
      <trkpt lat="48.68361" lon="6.15007">
        <ele>230</ele>
        <time>2012-03-22T13:32:58Z</time>
      </trkpt>
      <trkpt lat="48.68356" lon="6.15001">
        <ele>231</ele>
        <time>2012-03-22T13:33:00Z</time>
      </trkpt>
      <trkpt lat="48.68351" lon="6.14996">
        <ele>232</ele>
        <time>2012-03-22T13:33:02Z</time>
      </trkpt>
      <trkpt lat="48.68346" lon="6.1499">
        <ele>235</ele>
        <time>2012-03-22T13:33:04Z</time>
      </trkpt>
      <trkpt lat="48.68343" lon="6.14983">
        <ele>235</ele>
        <time>2012-03-22T13:33:06Z</time>
      </trkpt>
      <trkpt lat="48.68338" lon="6.14976">
        <ele>234</ele>
        <time>2012-03-22T13:33:08Z</time>
      </trkpt>
      <trkpt lat="48.68333" lon="6.1497">
        <ele>234</ele>
        <time>2012-03-22T13:33:10Z</time>
      </trkpt>
      <trkpt lat="48.68329" lon="6.14965">
        <ele>233</ele>
        <time>2012-03-22T13:33:12Z</time>
      </trkpt>
      <trkpt lat="48.68324" lon="6.14958">
        <ele>233</ele>
        <time>2012-03-22T13:33:14Z</time>
      </trkpt>
      <trkpt lat="48.6832" lon="6.14949">
        <ele>234</ele>
        <time>2012-03-22T13:33:16Z</time>
      </trkpt>
      <trkpt lat="48.68316" lon="6.14943">
        <ele>234</ele>
        <time>2012-03-22T13:33:18Z</time>
      </trkpt>
      <trkpt lat="48.68311" lon="6.14936">
        <ele>235</ele>
        <time>2012-03-22T13:33:20Z</time>
      </trkpt>
      <trkpt lat="48.68309" lon="6.1493">
        <ele>234</ele>
        <time>2012-03-22T13:33:22Z</time>
      </trkpt>
      <trkpt lat="48.68306" lon="6.14925">
        <ele>232</ele>
        <time>2012-03-22T13:33:24Z</time>
      </trkpt>
      <trkpt lat="48.68303" lon="6.14918">
        <ele>233</ele>
        <time>2012-03-22T13:33:26Z</time>
      </trkpt>
      <trkpt lat="48.683" lon="6.1491">
        <ele>235</ele>
        <time>2012-03-22T13:33:28Z</time>
      </trkpt>
      <trkpt lat="48.68299" lon="6.14902">
        <ele>232</ele>
        <time>2012-03-22T13:33:30Z</time>
      </trkpt>
      <trkpt lat="48.68296" lon="6.14896">
        <ele>234</ele>
        <time>2012-03-22T13:33:32Z</time>
      </trkpt>
      <trkpt lat="48.68292" lon="6.14891">
        <ele>233</ele>
        <time>2012-03-22T13:33:34Z</time>
      </trkpt>
      <trkpt lat="48.68286" lon="6.14885">
        <ele>235</ele>
        <time>2012-03-22T13:33:36Z</time>
      </trkpt>
      <trkpt lat="48.68283" lon="6.14879">
        <ele>234</ele>
        <time>2012-03-22T13:33:38Z</time>
      </trkpt>
      <trkpt lat="48.6828" lon="6.14873">
        <ele>237</ele>
        <time>2012-03-22T13:33:40Z</time>
      </trkpt>
      <trkpt lat="48.68277" lon="6.14867">
        <ele>239</ele>
        <time>2012-03-22T13:33:42Z</time>
      </trkpt>
      <trkpt lat="48.68274" lon="6.14863">
        <ele>236</ele>
        <time>2012-03-22T13:33:44Z</time>
      </trkpt>
      <trkpt lat="48.6827" lon="6.14859">
        <ele>241</ele>
        <time>2012-03-22T13:33:46Z</time>
      </trkpt>
      <trkpt lat="48.68266" lon="6.14856">
        <ele>244</ele>
        <time>2012-03-22T13:33:48Z</time>
      </trkpt>
      <trkpt lat="48.68263" lon="6.14851">
        <ele>246</ele>
        <time>2012-03-22T13:33:50Z</time>
      </trkpt>
      <trkpt lat="48.6826" lon="6.1484">
        <ele>247</ele>
        <time>2012-03-22T13:33:54Z</time>
      </trkpt>
      <trkpt lat="48.68256" lon="6.14836">
        <ele>246</ele>
        <time>2012-03-22T13:33:56Z</time>
      </trkpt>
      <trkpt lat="48.68251" lon="6.1483">
        <ele>245</ele>
        <time>2012-03-22T13:33:58Z</time>
      </trkpt>
      <trkpt lat="48.68247" lon="6.14824">
        <ele>243</ele>
        <time>2012-03-22T13:34:00Z</time>
      </trkpt>
      <trkpt lat="48.68241" lon="6.14819">
        <ele>243</ele>
        <time>2012-03-22T13:34:02Z</time>
      </trkpt>
      <trkpt lat="48.68237" lon="6.14812">
        <ele>243</ele>
        <time>2012-03-22T13:34:04Z</time>
      </trkpt>
      <trkpt lat="48.68233" lon="6.14805">
        <ele>244</ele>
        <time>2012-03-22T13:34:06Z</time>
      </trkpt>
      <trkpt lat="48.68227" lon="6.14799">
        <ele>242</ele>
        <time>2012-03-22T13:34:08Z</time>
      </trkpt>
      <trkpt lat="48.68222" lon="6.14795">
        <ele>240</ele>
        <time>2012-03-22T13:34:10Z</time>
      </trkpt>
      <trkpt lat="48.6822" lon="6.14789">
        <ele>243</ele>
        <time>2012-03-22T13:34:12Z</time>
      </trkpt>
      <trkpt lat="48.68217" lon="6.14783">
        <ele>243</ele>
        <time>2012-03-22T13:34:14Z</time>
      </trkpt>
      <trkpt lat="48.68213" lon="6.14777">
        <ele>243</ele>
        <time>2012-03-22T13:34:16Z</time>
      </trkpt>
      <trkpt lat="48.6821" lon="6.14771">
        <ele>241</ele>
        <time>2012-03-22T13:34:18Z</time>
      </trkpt>
      <trkpt lat="48.68208" lon="6.14765">
        <ele>242</ele>
        <time>2012-03-22T13:34:20Z</time>
      </trkpt>
      <trkpt lat="48.68206" lon="6.14758">
        <ele>243</ele>
        <time>2012-03-22T13:34:22Z</time>
      </trkpt>
      <trkpt lat="48.68202" lon="6.1475">
        <ele>244</ele>
        <time>2012-03-22T13:34:24Z</time>
      </trkpt>
      <trkpt lat="48.68198" lon="6.14745">
        <ele>244</ele>
        <time>2012-03-22T13:34:26Z</time>
      </trkpt>
      <trkpt lat="48.68194" lon="6.14739">
        <ele>247</ele>
        <time>2012-03-22T13:34:28Z</time>
      </trkpt>
      <trkpt lat="48.68189" lon="6.14732">
        <ele>248</ele>
        <time>2012-03-22T13:34:30Z</time>
      </trkpt>
      <trkpt lat="48.68184" lon="6.14724">
        <ele>247</ele>
        <time>2012-03-22T13:34:32Z</time>
      </trkpt>
      <trkpt lat="48.68179" lon="6.14718">
        <ele>247</ele>
        <time>2012-03-22T13:34:34Z</time>
      </trkpt>
      <trkpt lat="48.68172" lon="6.1471">
        <ele>242</ele>
        <time>2012-03-22T13:34:36Z</time>
      </trkpt>
      <trkpt lat="48.68166" lon="6.14699">
        <ele>243</ele>
        <time>2012-03-22T13:34:38Z</time>
      </trkpt>
      <trkpt lat="48.68161" lon="6.14689">
        <ele>241</ele>
        <time>2012-03-22T13:34:40Z</time>
      </trkpt>
      <trkpt lat="48.68156" lon="6.14684">
        <ele>238</ele>
        <time>2012-03-22T13:34:42Z</time>
      </trkpt>
      <trkpt lat="48.68154" lon="6.14673">
        <ele>247</ele>
        <time>2012-03-22T13:34:44Z</time>
      </trkpt>
      <trkpt lat="48.68153" lon="6.14658">
        <ele>248</ele>
        <time>2012-03-22T13:34:46Z</time>
      </trkpt>
      <trkpt lat="48.68151" lon="6.14645">
        <ele>244</ele>
        <time>2012-03-22T13:34:48Z</time>
      </trkpt>
      <trkpt lat="48.68148" lon="6.14631">
        <ele>250</ele>
        <time>2012-03-22T13:34:50Z</time>
      </trkpt>
      <trkpt lat="48.68144" lon="6.14621">
        <ele>248</ele>
        <time>2012-03-22T13:34:52Z</time>
      </trkpt>
      <trkpt lat="48.68139" lon="6.14612">
        <ele>249</ele>
        <time>2012-03-22T13:34:54Z</time>
      </trkpt>
      <trkpt lat="48.68134" lon="6.14603">
        <ele>251</ele>
        <time>2012-03-22T13:34:56Z</time>
      </trkpt>
      <trkpt lat="48.68127" lon="6.14597">
        <ele>252</ele>
        <time>2012-03-22T13:34:58Z</time>
      </trkpt>
      <trkpt lat="48.68124" lon="6.14588">
        <ele>252</ele>
        <time>2012-03-22T13:35:00Z</time>
      </trkpt>
      <trkpt lat="48.68119" lon="6.14579">
        <ele>249</ele>
        <time>2012-03-22T13:35:02Z</time>
      </trkpt>
      <trkpt lat="48.68115" lon="6.14569">
        <ele>252</ele>
        <time>2012-03-22T13:35:04Z</time>
      </trkpt>
      <trkpt lat="48.68108" lon="6.14561">
        <ele>253</ele>
        <time>2012-03-22T13:35:06Z</time>
      </trkpt>
      <trkpt lat="48.68102" lon="6.14553">
        <ele>256</ele>
        <time>2012-03-22T13:35:08Z</time>
      </trkpt>
      <trkpt lat="48.68095" lon="6.14547">
        <ele>257</ele>
        <time>2012-03-22T13:35:10Z</time>
      </trkpt>
      <trkpt lat="48.6809" lon="6.14534">
        <ele>255</ele>
        <time>2012-03-22T13:35:12Z</time>
      </trkpt>
      <trkpt lat="48.68087" lon="6.14523">
        <ele>250</ele>
        <time>2012-03-22T13:35:14Z</time>
      </trkpt>
      <trkpt lat="48.68084" lon="6.14514">
        <ele>247</ele>
        <time>2012-03-22T13:35:16Z</time>
      </trkpt>
      <trkpt lat="48.6808" lon="6.14506">
        <ele>249</ele>
        <time>2012-03-22T13:35:18Z</time>
      </trkpt>
      <trkpt lat="48.68077" lon="6.14501">
        <ele>249</ele>
        <time>2012-03-22T13:35:20Z</time>
      </trkpt>
      <trkpt lat="48.68073" lon="6.14493">
        <ele>250</ele>
        <time>2012-03-22T13:35:22Z</time>
      </trkpt>
      <trkpt lat="48.68069" lon="6.14485">
        <ele>251</ele>
        <time>2012-03-22T13:35:24Z</time>
      </trkpt>
      <trkpt lat="48.68064" lon="6.14477">
        <ele>254</ele>
        <time>2012-03-22T13:35:26Z</time>
      </trkpt>
      <trkpt lat="48.6806" lon="6.14467">
        <ele>250</ele>
        <time>2012-03-22T13:35:28Z</time>
      </trkpt>
      <trkpt lat="48.68055" lon="6.14459">
        <ele>253</ele>
        <time>2012-03-22T13:35:30Z</time>
      </trkpt>
      <trkpt lat="48.68051" lon="6.14451">
        <ele>259</ele>
        <time>2012-03-22T13:35:32Z</time>
      </trkpt>
      <trkpt lat="48.68046" lon="6.14444">
        <ele>259</ele>
        <time>2012-03-22T13:35:34Z</time>
      </trkpt>
      <trkpt lat="48.68041" lon="6.14438">
        <ele>257</ele>
        <time>2012-03-22T13:35:36Z</time>
      </trkpt>
      <trkpt lat="48.68037" lon="6.14432">
        <ele>255</ele>
        <time>2012-03-22T13:35:38Z</time>
      </trkpt>
      <trkpt lat="48.68033" lon="6.14425">
        <ele>257</ele>
        <time>2012-03-22T13:35:40Z</time>
      </trkpt>
      <trkpt lat="48.68028" lon="6.14416">
        <ele>258</ele>
        <time>2012-03-22T13:35:42Z</time>
      </trkpt>
      <trkpt lat="48.68021" lon="6.14408">
        <ele>255</ele>
        <time>2012-03-22T13:35:44Z</time>
      </trkpt>
      <trkpt lat="48.68018" lon="6.14399">
        <ele>254</ele>
        <time>2012-03-22T13:35:46Z</time>
      </trkpt>
      <trkpt lat="48.68015" lon="6.14392">
        <ele>250</ele>
        <time>2012-03-22T13:35:48Z</time>
      </trkpt>
      <trkpt lat="48.6801" lon="6.14382">
        <ele>247</ele>
        <time>2012-03-22T13:35:50Z</time>
      </trkpt>
      <trkpt lat="48.68005" lon="6.14372">
        <ele>244</ele>
        <time>2012-03-22T13:35:52Z</time>
      </trkpt>
      <trkpt lat="48.68" lon="6.14361">
        <ele>241</ele>
        <time>2012-03-22T13:35:54Z</time>
      </trkpt>
      <trkpt lat="48.67995" lon="6.14352">
        <ele>242</ele>
        <time>2012-03-22T13:35:56Z</time>
      </trkpt>
      <trkpt lat="48.67991" lon="6.14343">
        <ele>242</ele>
        <time>2012-03-22T13:35:58Z</time>
      </trkpt>
      <trkpt lat="48.67986" lon="6.14335">
        <ele>241</ele>
        <time>2012-03-22T13:36:00Z</time>
      </trkpt>
      <trkpt lat="48.67981" lon="6.14327">
        <ele>242</ele>
        <time>2012-03-22T13:36:02Z</time>
      </trkpt>
      <trkpt lat="48.67975" lon="6.14319">
        <ele>241</ele>
        <time>2012-03-22T13:36:04Z</time>
      </trkpt>
      <trkpt lat="48.6797" lon="6.14312">
        <ele>242</ele>
        <time>2012-03-22T13:36:06Z</time>
      </trkpt>
      <trkpt lat="48.67965" lon="6.14305">
        <ele>241</ele>
        <time>2012-03-22T13:36:08Z</time>
      </trkpt>
      <trkpt lat="48.67959" lon="6.14297">
        <ele>240</ele>
        <time>2012-03-22T13:36:10Z</time>
      </trkpt>
      <trkpt lat="48.67954" lon="6.14287">
        <ele>240</ele>
        <time>2012-03-22T13:36:12Z</time>
      </trkpt>
      <trkpt lat="48.6795" lon="6.14279">
        <ele>240</ele>
        <time>2012-03-22T13:36:14Z</time>
      </trkpt>
      <trkpt lat="48.67946" lon="6.14272">
        <ele>241</ele>
        <time>2012-03-22T13:36:16Z</time>
      </trkpt>
      <trkpt lat="48.67942" lon="6.14265">
        <ele>242</ele>
        <time>2012-03-22T13:36:18Z</time>
      </trkpt>
      <trkpt lat="48.67939" lon="6.14259">
        <ele>243</ele>
        <time>2012-03-22T13:36:20Z</time>
      </trkpt>
      <trkpt lat="48.67936" lon="6.14251">
        <ele>244</ele>
        <time>2012-03-22T13:36:22Z</time>
      </trkpt>
      <trkpt lat="48.67932" lon="6.14244">
        <ele>244</ele>
        <time>2012-03-22T13:36:24Z</time>
      </trkpt>
      <trkpt lat="48.67927" lon="6.14238">
        <ele>246</ele>
        <time>2012-03-22T13:36:26Z</time>
      </trkpt>
      <trkpt lat="48.67924" lon="6.14232">
        <ele>247</ele>
        <time>2012-03-22T13:36:28Z</time>
      </trkpt>
      <trkpt lat="48.67921" lon="6.14225">
        <ele>247</ele>
        <time>2012-03-22T13:36:30Z</time>
      </trkpt>
      <trkpt lat="48.67918" lon="6.14219">
        <ele>247</ele>
        <time>2012-03-22T13:36:32Z</time>
      </trkpt>
      <trkpt lat="48.67915" lon="6.14214">
        <ele>248</ele>
        <time>2012-03-22T13:36:34Z</time>
      </trkpt>
      <trkpt lat="48.67911" lon="6.14209">
        <ele>248</ele>
        <time>2012-03-22T13:36:36Z</time>
      </trkpt>
      <trkpt lat="48.67908" lon="6.14204">
        <ele>249</ele>
        <time>2012-03-22T13:36:38Z</time>
      </trkpt>
      <trkpt lat="48.67905" lon="6.14199">
        <ele>249</ele>
        <time>2012-03-22T13:36:40Z</time>
      </trkpt>
      <trkpt lat="48.67903" lon="6.14193">
        <ele>249</ele>
        <time>2012-03-22T13:36:42Z</time>
      </trkpt>
      <trkpt lat="48.67901" lon="6.14187">
        <ele>252</ele>
        <time>2012-03-22T13:36:44Z</time>
      </trkpt>
      <trkpt lat="48.67901" lon="6.14181">
        <ele>253</ele>
        <time>2012-03-22T13:36:46Z</time>
      </trkpt>
      <trkpt lat="48.67902" lon="6.14174">
        <ele>253</ele>
        <time>2012-03-22T13:36:48Z</time>
      </trkpt>
      <trkpt lat="48.67905" lon="6.14167">
        <ele>251</ele>
        <time>2012-03-22T13:36:50Z</time>
      </trkpt>
      <trkpt lat="48.67909" lon="6.14161">
        <ele>251</ele>
        <time>2012-03-22T13:36:52Z</time>
      </trkpt>
      <trkpt lat="48.67912" lon="6.14157">
        <ele>252</ele>
        <time>2012-03-22T13:36:54Z</time>
      </trkpt>
      <trkpt lat="48.67916" lon="6.14152">
        <ele>252</ele>
        <time>2012-03-22T13:36:56Z</time>
      </trkpt>
      <trkpt lat="48.67919" lon="6.14148">
        <ele>254</ele>
        <time>2012-03-22T13:36:58Z</time>
      </trkpt>
      <trkpt lat="48.67923" lon="6.14146">
        <ele>254</ele>
        <time>2012-03-22T13:37:00Z</time>
      </trkpt>
      <trkpt lat="48.67926" lon="6.14147">
        <ele>250</ele>
        <time>2012-03-22T13:37:02Z</time>
      </trkpt>
      <trkpt lat="48.67933" lon="6.14149">
        <ele>249</ele>
        <time>2012-03-22T13:37:04Z</time>
      </trkpt>
      <trkpt lat="48.67941" lon="6.14153">
        <ele>248</ele>
        <time>2012-03-22T13:37:06Z</time>
      </trkpt>
      <trkpt lat="48.67948" lon="6.14158">
        <ele>247</ele>
        <time>2012-03-22T13:37:08Z</time>
      </trkpt>
      <trkpt lat="48.67954" lon="6.14162">
        <ele>245</ele>
        <time>2012-03-22T13:37:10Z</time>
      </trkpt>
      <trkpt lat="48.67963" lon="6.14165">
        <ele>248</ele>
        <time>2012-03-22T13:37:12Z</time>
      </trkpt>
      <trkpt lat="48.67971" lon="6.14164">
        <ele>249</ele>
        <time>2012-03-22T13:37:14Z</time>
      </trkpt>
      <trkpt lat="48.67979" lon="6.14162">
        <ele>251</ele>
        <time>2012-03-22T13:37:16Z</time>
      </trkpt>
      <trkpt lat="48.67985" lon="6.1416">
        <ele>250</ele>
        <time>2012-03-22T13:37:18Z</time>
      </trkpt>
      <trkpt lat="48.67991" lon="6.14157">
        <ele>251</ele>
        <time>2012-03-22T13:37:20Z</time>
      </trkpt>
      <trkpt lat="48.67997" lon="6.14154">
        <ele>251</ele>
        <time>2012-03-22T13:37:22Z</time>
      </trkpt>
      <trkpt lat="48.68002" lon="6.14153">
        <ele>252</ele>
        <time>2012-03-22T13:37:24Z</time>
      </trkpt>
      <trkpt lat="48.68005" lon="6.14152">
        <ele>253</ele>
        <time>2012-03-22T13:37:26Z</time>
      </trkpt>
      <trkpt lat="48.68008" lon="6.14152">
        <ele>253</ele>
        <time>2012-03-22T13:37:28Z</time>
      </trkpt>
      <trkpt lat="48.68013" lon="6.14152">
        <ele>253</ele>
        <time>2012-03-22T13:37:30Z</time>
      </trkpt>
      <trkpt lat="48.68018" lon="6.1415">
        <ele>253</ele>
        <time>2012-03-22T13:37:32Z</time>
      </trkpt>
      <trkpt lat="48.68023" lon="6.14147">
        <ele>254</ele>
        <time>2012-03-22T13:37:34Z</time>
      </trkpt>
      <trkpt lat="48.68029" lon="6.14145">
        <ele>254</ele>
        <time>2012-03-22T13:37:36Z</time>
      </trkpt>
      <trkpt lat="48.68034" lon="6.14143">
        <ele>255</ele>
        <time>2012-03-22T13:37:38Z</time>
      </trkpt>
      <trkpt lat="48.68039" lon="6.14141">
        <ele>255</ele>
        <time>2012-03-22T13:37:40Z</time>
      </trkpt>
      <trkpt lat="48.68043" lon="6.1414">
        <ele>256</ele>
        <time>2012-03-22T13:37:42Z</time>
      </trkpt>
      <trkpt lat="48.68047" lon="6.14139">
        <ele>258</ele>
        <time>2012-03-22T13:37:44Z</time>
      </trkpt>
      <trkpt lat="48.68052" lon="6.14138">
        <ele>258</ele>
        <time>2012-03-22T13:37:46Z</time>
      </trkpt>
      <trkpt lat="48.68055" lon="6.14137">
        <ele>260</ele>
        <time>2012-03-22T13:37:48Z</time>
      </trkpt>
      <trkpt lat="48.68058" lon="6.14136">
        <ele>259</ele>
        <time>2012-03-22T13:37:50Z</time>
      </trkpt>
      <trkpt lat="48.68061" lon="6.14136">
        <ele>258</ele>
        <time>2012-03-22T13:37:52Z</time>
      </trkpt>
      <trkpt lat="48.68065" lon="6.14134">
        <ele>257</ele>
        <time>2012-03-22T13:37:54Z</time>
      </trkpt>
      <trkpt lat="48.6807" lon="6.14132">
        <ele>255</ele>
        <time>2012-03-22T13:37:56Z</time>
      </trkpt>
      <trkpt lat="48.68074" lon="6.1413">
        <ele>258</ele>
        <time>2012-03-22T13:37:58Z</time>
      </trkpt>
      <trkpt lat="48.68078" lon="6.14128">
        <ele>259</ele>
        <time>2012-03-22T13:38:00Z</time>
      </trkpt>
      <trkpt lat="48.68083" lon="6.14125">
        <ele>262</ele>
        <time>2012-03-22T13:38:02Z</time>
      </trkpt>
      <trkpt lat="48.68088" lon="6.14122">
        <ele>262</ele>
        <time>2012-03-22T13:38:04Z</time>
      </trkpt>
      <trkpt lat="48.68092" lon="6.1412">
        <ele>262</ele>
        <time>2012-03-22T13:38:06Z</time>
      </trkpt>
      <trkpt lat="48.68096" lon="6.14116">
        <ele>264</ele>
        <time>2012-03-22T13:38:08Z</time>
      </trkpt>
      <trkpt lat="48.681" lon="6.14115">
        <ele>265</ele>
        <time>2012-03-22T13:38:10Z</time>
      </trkpt>
      <trkpt lat="48.68104" lon="6.14113">
        <ele>264</ele>
        <time>2012-03-22T13:38:12Z</time>
      </trkpt>
      <trkpt lat="48.68108" lon="6.14112">
        <ele>263</ele>
        <time>2012-03-22T13:38:14Z</time>
      </trkpt>
      <trkpt lat="48.68113" lon="6.1411">
        <ele>263</ele>
        <time>2012-03-22T13:38:16Z</time>
      </trkpt>
      <trkpt lat="48.68117" lon="6.14107">
        <ele>265</ele>
        <time>2012-03-22T13:38:18Z</time>
      </trkpt>
      <trkpt lat="48.68122" lon="6.14103">
        <ele>263</ele>
        <time>2012-03-22T13:38:20Z</time>
      </trkpt>
      <trkpt lat="48.68128" lon="6.14097">
        <ele>262</ele>
        <time>2012-03-22T13:38:22Z</time>
      </trkpt>
      <trkpt lat="48.68133" lon="6.14093">
        <ele>260</ele>
        <time>2012-03-22T13:38:24Z</time>
      </trkpt>
      <trkpt lat="48.68138" lon="6.14088">
        <ele>259</ele>
        <time>2012-03-22T13:38:26Z</time>
      </trkpt>
      <trkpt lat="48.68143" lon="6.14084">
        <ele>259</ele>
        <time>2012-03-22T13:38:28Z</time>
      </trkpt>
      <trkpt lat="48.68147" lon="6.1408">
        <ele>259</ele>
        <time>2012-03-22T13:38:30Z</time>
      </trkpt>
      <trkpt lat="48.68151" lon="6.14075">
        <ele>259</ele>
        <time>2012-03-22T13:38:32Z</time>
      </trkpt>
      <trkpt lat="48.68155" lon="6.14071">
        <ele>259</ele>
        <time>2012-03-22T13:38:34Z</time>
      </trkpt>
      <trkpt lat="48.6816" lon="6.14065">
        <ele>259</ele>
        <time>2012-03-22T13:38:36Z</time>
      </trkpt>
      <trkpt lat="48.68165" lon="6.1406">
        <ele>259</ele>
        <time>2012-03-22T13:38:38Z</time>
      </trkpt>
      <trkpt lat="48.68169" lon="6.14056">
        <ele>261</ele>
        <time>2012-03-22T13:38:40Z</time>
      </trkpt>
      <trkpt lat="48.68174" lon="6.14052">
        <ele>262</ele>
        <time>2012-03-22T13:38:42Z</time>
      </trkpt>
      <trkpt lat="48.68178" lon="6.1405">
        <ele>262</ele>
        <time>2012-03-22T13:38:44Z</time>
      </trkpt>
      <trkpt lat="48.68183" lon="6.14046">
        <ele>260</ele>
        <time>2012-03-22T13:38:46Z</time>
      </trkpt>
      <trkpt lat="48.68188" lon="6.14041">
        <ele>260</ele>
        <time>2012-03-22T13:38:48Z</time>
      </trkpt>
      <trkpt lat="48.68193" lon="6.14036">
        <ele>260</ele>
        <time>2012-03-22T13:38:50Z</time>
      </trkpt>
      <trkpt lat="48.68198" lon="6.14031">
        <ele>259</ele>
        <time>2012-03-22T13:38:52Z</time>
      </trkpt>
      <trkpt lat="48.68203" lon="6.14027">
        <ele>262</ele>
        <time>2012-03-22T13:38:54Z</time>
      </trkpt>
      <trkpt lat="48.68209" lon="6.14023">
        <ele>265</ele>
        <time>2012-03-22T13:38:56Z</time>
      </trkpt>
      <trkpt lat="48.68213" lon="6.1402">
        <ele>266</ele>
        <time>2012-03-22T13:38:58Z</time>
      </trkpt>
      <trkpt lat="48.68218" lon="6.14016">
        <ele>267</ele>
        <time>2012-03-22T13:39:00Z</time>
      </trkpt>
      <trkpt lat="48.68222" lon="6.14012">
        <ele>267</ele>
        <time>2012-03-22T13:39:02Z</time>
      </trkpt>
      <trkpt lat="48.68227" lon="6.14009">
        <ele>268</ele>
        <time>2012-03-22T13:39:04Z</time>
      </trkpt>
      <trkpt lat="48.68231" lon="6.14006">
        <ele>268</ele>
        <time>2012-03-22T13:39:06Z</time>
      </trkpt>
      <trkpt lat="48.68235" lon="6.14002">
        <ele>270</ele>
        <time>2012-03-22T13:39:08Z</time>
      </trkpt>
      <trkpt lat="48.68239" lon="6.13998">
        <ele>270</ele>
        <time>2012-03-22T13:39:10Z</time>
      </trkpt>
      <trkpt lat="48.68243" lon="6.13996">
        <ele>269</ele>
        <time>2012-03-22T13:39:12Z</time>
      </trkpt>
      <trkpt lat="48.68247" lon="6.13993">
        <ele>270</ele>
        <time>2012-03-22T13:39:14Z</time>
      </trkpt>
      <trkpt lat="48.68251" lon="6.1399">
        <ele>271</ele>
        <time>2012-03-22T13:39:16Z</time>
      </trkpt>
      <trkpt lat="48.68254" lon="6.13988">
        <ele>270</ele>
        <time>2012-03-22T13:39:18Z</time>
      </trkpt>
      <trkpt lat="48.68258" lon="6.13983">
        <ele>271</ele>
        <time>2012-03-22T13:39:20Z</time>
      </trkpt>
      <trkpt lat="48.68261" lon="6.13979">
        <ele>269</ele>
        <time>2012-03-22T13:39:22Z</time>
      </trkpt>
      <trkpt lat="48.68266" lon="6.13975">
        <ele>269</ele>
        <time>2012-03-22T13:39:24Z</time>
      </trkpt>
      <trkpt lat="48.6827" lon="6.13971">
        <ele>269</ele>
        <time>2012-03-22T13:39:26Z</time>
      </trkpt>
      <trkpt lat="48.68273" lon="6.13967">
        <ele>270</ele>
        <time>2012-03-22T13:39:28Z</time>
      </trkpt>
      <trkpt lat="48.68276" lon="6.13964">
        <ele>271</ele>
        <time>2012-03-22T13:39:30Z</time>
      </trkpt>
      <trkpt lat="48.6828" lon="6.13962">
        <ele>270</ele>
        <time>2012-03-22T13:39:32Z</time>
      </trkpt>
      <trkpt lat="48.68284" lon="6.13959">
        <ele>271</ele>
        <time>2012-03-22T13:39:34Z</time>
      </trkpt>
      <trkpt lat="48.68287" lon="6.13957">
        <ele>272</ele>
        <time>2012-03-22T13:39:36Z</time>
      </trkpt>
      <trkpt lat="48.6829" lon="6.13953">
        <ele>273</ele>
        <time>2012-03-22T13:39:38Z</time>
      </trkpt>
      <trkpt lat="48.68295" lon="6.13951">
        <ele>274</ele>
        <time>2012-03-22T13:39:40Z</time>
      </trkpt>
      <trkpt lat="48.68299" lon="6.13947">
        <ele>275</ele>
        <time>2012-03-22T13:39:42Z</time>
      </trkpt>
      <trkpt lat="48.68303" lon="6.13943">
        <ele>275</ele>
        <time>2012-03-22T13:39:44Z</time>
      </trkpt>
      <trkpt lat="48.68306" lon="6.1394">
        <ele>277</ele>
        <time>2012-03-22T13:39:46Z</time>
      </trkpt>
      <trkpt lat="48.68309" lon="6.13937">
        <ele>277</ele>
        <time>2012-03-22T13:39:48Z</time>
      </trkpt>
      <trkpt lat="48.68312" lon="6.13934">
        <ele>277</ele>
        <time>2012-03-22T13:39:50Z</time>
      </trkpt>
      <trkpt lat="48.68315" lon="6.13929">
        <ele>278</ele>
        <time>2012-03-22T13:39:52Z</time>
      </trkpt>
      <trkpt lat="48.68319" lon="6.13924">
        <ele>276</ele>
        <time>2012-03-22T13:39:54Z</time>
      </trkpt>
      <trkpt lat="48.68322" lon="6.13921">
        <ele>276</ele>
        <time>2012-03-22T13:39:56Z</time>
      </trkpt>
      <trkpt lat="48.68325" lon="6.1392">
        <ele>276</ele>
        <time>2012-03-22T13:39:58Z</time>
      </trkpt>
      <trkpt lat="48.68328" lon="6.1392">
        <ele>274</ele>
        <time>2012-03-22T13:40:00Z</time>
      </trkpt>
      <trkpt lat="48.68333" lon="6.13921">
        <ele>272</ele>
        <time>2012-03-22T13:40:02Z</time>
      </trkpt>
      <trkpt lat="48.68342" lon="6.13923">
        <ele>271</ele>
        <time>2012-03-22T13:40:04Z</time>
      </trkpt>
      <trkpt lat="48.68351" lon="6.13923">
        <ele>269</ele>
        <time>2012-03-22T13:40:06Z</time>
      </trkpt>
      <trkpt lat="48.6836" lon="6.1392">
        <ele>273</ele>
        <time>2012-03-22T13:40:08Z</time>
      </trkpt>
      <trkpt lat="48.68367" lon="6.13912">
        <ele>275</ele>
        <time>2012-03-22T13:40:10Z</time>
      </trkpt>
      <trkpt lat="48.68373" lon="6.13908">
        <ele>276</ele>
        <time>2012-03-22T13:40:12Z</time>
      </trkpt>
      <trkpt lat="48.68377" lon="6.13903">
        <ele>276</ele>
        <time>2012-03-22T13:40:14Z</time>
      </trkpt>
      <trkpt lat="48.68382" lon="6.13899">
        <ele>276</ele>
        <time>2012-03-22T13:40:16Z</time>
      </trkpt>
      <trkpt lat="48.68385" lon="6.13896">
        <ele>278</ele>
        <time>2012-03-22T13:40:18Z</time>
      </trkpt>
      <trkpt lat="48.68389" lon="6.13893">
        <ele>278</ele>
        <time>2012-03-22T13:40:20Z</time>
      </trkpt>
      <trkpt lat="48.68392" lon="6.1389">
        <ele>278</ele>
        <time>2012-03-22T13:40:22Z</time>
      </trkpt>
      <trkpt lat="48.68395" lon="6.13886">
        <ele>279</ele>
        <time>2012-03-22T13:40:24Z</time>
      </trkpt>
      <trkpt lat="48.68399" lon="6.13883">
        <ele>280</ele>
        <time>2012-03-22T13:40:26Z</time>
      </trkpt>
      <trkpt lat="48.68403" lon="6.13879">
        <ele>280</ele>
        <time>2012-03-22T13:40:28Z</time>
      </trkpt>
      <trkpt lat="48.68406" lon="6.13876">
        <ele>281</ele>
        <time>2012-03-22T13:40:30Z</time>
      </trkpt>
      <trkpt lat="48.6841" lon="6.13872">
        <ele>281</ele>
        <time>2012-03-22T13:40:32Z</time>
      </trkpt>
      <trkpt lat="48.68413" lon="6.13869">
        <ele>282</ele>
        <time>2012-03-22T13:40:34Z</time>
      </trkpt>
      <trkpt lat="48.68416" lon="6.13865">
        <ele>282</ele>
        <time>2012-03-22T13:40:36Z</time>
      </trkpt>
      <trkpt lat="48.6842" lon="6.13861">
        <ele>282</ele>
        <time>2012-03-22T13:40:38Z</time>
      </trkpt>
      <trkpt lat="48.68423" lon="6.13856">
        <ele>282</ele>
        <time>2012-03-22T13:40:40Z</time>
      </trkpt>
      <trkpt lat="48.68427" lon="6.13851">
        <ele>283</ele>
        <time>2012-03-22T13:40:42Z</time>
      </trkpt>
      <trkpt lat="48.6843" lon="6.13847">
        <ele>283</ele>
        <time>2012-03-22T13:40:44Z</time>
      </trkpt>
      <trkpt lat="48.68432" lon="6.13842">
        <ele>284</ele>
        <time>2012-03-22T13:40:46Z</time>
      </trkpt>
      <trkpt lat="48.68435" lon="6.13838">
        <ele>285</ele>
        <time>2012-03-22T13:40:48Z</time>
      </trkpt>
      <trkpt lat="48.68438" lon="6.13832">
        <ele>285</ele>
        <time>2012-03-22T13:40:50Z</time>
      </trkpt>
      <trkpt lat="48.68441" lon="6.13829">
        <ele>286</ele>
        <time>2012-03-22T13:40:52Z</time>
      </trkpt>
      <trkpt lat="48.68444" lon="6.13824">
        <ele>287</ele>
        <time>2012-03-22T13:40:54Z</time>
      </trkpt>
      <trkpt lat="48.68446" lon="6.13819">
        <ele>286</ele>
        <time>2012-03-22T13:40:56Z</time>
      </trkpt>
      <trkpt lat="48.68449" lon="6.13812">
        <ele>284</ele>
        <time>2012-03-22T13:40:58Z</time>
      </trkpt>
      <trkpt lat="48.68452" lon="6.13806">
        <ele>285</ele>
        <time>2012-03-22T13:41:00Z</time>
      </trkpt>
      <trkpt lat="48.68455" lon="6.138">
        <ele>286</ele>
        <time>2012-03-22T13:41:02Z</time>
      </trkpt>
      <trkpt lat="48.68457" lon="6.13793">
        <ele>286</ele>
        <time>2012-03-22T13:41:04Z</time>
      </trkpt>
      <trkpt lat="48.68459" lon="6.13787">
        <ele>286</ele>
        <time>2012-03-22T13:41:06Z</time>
      </trkpt>
      <trkpt lat="48.68462" lon="6.1378">
        <ele>286</ele>
        <time>2012-03-22T13:41:08Z</time>
      </trkpt>
      <trkpt lat="48.68463" lon="6.13774">
        <ele>286</ele>
        <time>2012-03-22T13:41:10Z</time>
      </trkpt>
      <trkpt lat="48.68465" lon="6.13768">
        <ele>286</ele>
        <time>2012-03-22T13:41:12Z</time>
      </trkpt>
      <trkpt lat="48.68466" lon="6.13763">
        <ele>287</ele>
        <time>2012-03-22T13:41:14Z</time>
      </trkpt>
      <trkpt lat="48.68468" lon="6.13757">
        <ele>288</ele>
        <time>2012-03-22T13:41:16Z</time>
      </trkpt>
      <trkpt lat="48.6847" lon="6.13751">
        <ele>288</ele>
        <time>2012-03-22T13:41:18Z</time>
      </trkpt>
      <trkpt lat="48.68471" lon="6.13745">
        <ele>290</ele>
        <time>2012-03-22T13:41:20Z</time>
      </trkpt>
      <trkpt lat="48.68472" lon="6.13738">
        <ele>290</ele>
        <time>2012-03-22T13:41:22Z</time>
      </trkpt>
      <trkpt lat="48.68473" lon="6.13732">
        <ele>290</ele>
        <time>2012-03-22T13:41:24Z</time>
      </trkpt>
      <trkpt lat="48.68474" lon="6.13726">
        <ele>291</ele>
        <time>2012-03-22T13:41:26Z</time>
      </trkpt>
      <trkpt lat="48.68475" lon="6.1372">
        <ele>292</ele>
        <time>2012-03-22T13:41:28Z</time>
      </trkpt>
      <trkpt lat="48.68476" lon="6.13714">
        <ele>293</ele>
        <time>2012-03-22T13:41:30Z</time>
      </trkpt>
      <trkpt lat="48.68477" lon="6.13709">
        <ele>294</ele>
        <time>2012-03-22T13:41:32Z</time>
      </trkpt>
      <trkpt lat="48.68478" lon="6.13703">
        <ele>295</ele>
        <time>2012-03-22T13:41:34Z</time>
      </trkpt>
      <trkpt lat="48.68478" lon="6.13696">
        <ele>295</ele>
        <time>2012-03-22T13:41:36Z</time>
      </trkpt>
      <trkpt lat="48.6848" lon="6.13689">
        <ele>296</ele>
        <time>2012-03-22T13:41:38Z</time>
      </trkpt>
      <trkpt lat="48.6848" lon="6.13683">
        <ele>297</ele>
        <time>2012-03-22T13:41:40Z</time>
      </trkpt>
      <trkpt lat="48.6848" lon="6.13677">
        <ele>298</ele>
        <time>2012-03-22T13:41:42Z</time>
      </trkpt>
      <trkpt lat="48.6848" lon="6.13671">
        <ele>298</ele>
        <time>2012-03-22T13:41:44Z</time>
      </trkpt>
      <trkpt lat="48.68481" lon="6.13665">
        <ele>298</ele>
        <time>2012-03-22T13:41:46Z</time>
      </trkpt>
      <trkpt lat="48.68481" lon="6.13658">
        <ele>298</ele>
        <time>2012-03-22T13:41:48Z</time>
      </trkpt>
      <trkpt lat="48.6848" lon="6.13652">
        <ele>298</ele>
        <time>2012-03-22T13:41:50Z</time>
      </trkpt>
      <trkpt lat="48.68481" lon="6.13645">
        <ele>298</ele>
        <time>2012-03-22T13:41:52Z</time>
      </trkpt>
      <trkpt lat="48.68481" lon="6.13638">
        <ele>300</ele>
        <time>2012-03-22T13:41:54Z</time>
      </trkpt>
      <trkpt lat="48.6848" lon="6.13632">
        <ele>302</ele>
        <time>2012-03-22T13:41:56Z</time>
      </trkpt>
      <trkpt lat="48.6848" lon="6.13626">
        <ele>304</ele>
        <time>2012-03-22T13:41:58Z</time>
      </trkpt>
      <trkpt lat="48.68479" lon="6.13621">
        <ele>303</ele>
        <time>2012-03-22T13:42:00Z</time>
      </trkpt>
      <trkpt lat="48.68478" lon="6.13613">
        <ele>301</ele>
        <time>2012-03-22T13:42:02Z</time>
      </trkpt>
      <trkpt lat="48.68478" lon="6.13605">
        <ele>298</ele>
        <time>2012-03-22T13:42:04Z</time>
      </trkpt>
      <trkpt lat="48.68477" lon="6.13598">
        <ele>298</ele>
        <time>2012-03-22T13:42:06Z</time>
      </trkpt>
      <trkpt lat="48.68476" lon="6.13591">
        <ele>297</ele>
        <time>2012-03-22T13:42:08Z</time>
      </trkpt>
      <trkpt lat="48.68476" lon="6.13586">
        <ele>298</ele>
        <time>2012-03-22T13:42:10Z</time>
      </trkpt>
      <trkpt lat="48.68473" lon="6.13578">
        <ele>300</ele>
        <time>2012-03-22T13:42:12Z</time>
      </trkpt>
      <trkpt lat="48.68473" lon="6.13571">
        <ele>299</ele>
        <time>2012-03-22T13:42:14Z</time>
      </trkpt>
      <trkpt lat="48.68474" lon="6.13563">
        <ele>298</ele>
        <time>2012-03-22T13:42:16Z</time>
      </trkpt>
      <trkpt lat="48.68474" lon="6.13556">
        <ele>297</ele>
        <time>2012-03-22T13:42:18Z</time>
      </trkpt>
      <trkpt lat="48.68473" lon="6.13548">
        <ele>296</ele>
        <time>2012-03-22T13:42:20Z</time>
      </trkpt>
      <trkpt lat="48.68473" lon="6.1354">
        <ele>296</ele>
        <time>2012-03-22T13:42:22Z</time>
      </trkpt>
      <trkpt lat="48.68473" lon="6.13534">
        <ele>297</ele>
        <time>2012-03-22T13:42:24Z</time>
      </trkpt>
      <trkpt lat="48.68473" lon="6.13527">
        <ele>297</ele>
        <time>2012-03-22T13:42:26Z</time>
      </trkpt>
      <trkpt lat="48.68473" lon="6.13521">
        <ele>299</ele>
        <time>2012-03-22T13:42:28Z</time>
      </trkpt>
      <trkpt lat="48.68474" lon="6.13513">
        <ele>299</ele>
        <time>2012-03-22T13:42:30Z</time>
      </trkpt>
      <trkpt lat="48.68474" lon="6.13506">
        <ele>299</ele>
        <time>2012-03-22T13:42:32Z</time>
      </trkpt>
      <trkpt lat="48.68474" lon="6.13499">
        <ele>299</ele>
        <time>2012-03-22T13:42:34Z</time>
      </trkpt>
      <trkpt lat="48.68474" lon="6.13492">
        <ele>301</ele>
        <time>2012-03-22T13:42:36Z</time>
      </trkpt>
      <trkpt lat="48.68473" lon="6.13485">
        <ele>301</ele>
        <time>2012-03-22T13:42:38Z</time>
      </trkpt>
      <trkpt lat="48.68473" lon="6.13479">
        <ele>302</ele>
        <time>2012-03-22T13:42:40Z</time>
      </trkpt>
      <trkpt lat="48.68474" lon="6.13473">
        <ele>303</ele>
        <time>2012-03-22T13:42:42Z</time>
      </trkpt>
      <trkpt lat="48.68474" lon="6.13467">
        <ele>304</ele>
        <time>2012-03-22T13:42:44Z</time>
      </trkpt>
      <trkpt lat="48.68473" lon="6.13461">
        <ele>304</ele>
        <time>2012-03-22T13:42:46Z</time>
      </trkpt>
      <trkpt lat="48.68474" lon="6.13454">
        <ele>304</ele>
        <time>2012-03-22T13:42:48Z</time>
      </trkpt>
      <trkpt lat="48.68475" lon="6.13447">
        <ele>304</ele>
        <time>2012-03-22T13:42:50Z</time>
      </trkpt>
      <trkpt lat="48.68474" lon="6.13441">
        <ele>305</ele>
        <time>2012-03-22T13:42:52Z</time>
      </trkpt>
      <trkpt lat="48.68474" lon="6.13435">
        <ele>305</ele>
        <time>2012-03-22T13:42:54Z</time>
      </trkpt>
      <trkpt lat="48.68475" lon="6.13427">
        <ele>306</ele>
        <time>2012-03-22T13:42:56Z</time>
      </trkpt>
      <trkpt lat="48.68475" lon="6.13422">
        <ele>307</ele>
        <time>2012-03-22T13:42:58Z</time>
      </trkpt>
      <trkpt lat="48.68477" lon="6.13415">
        <ele>307</ele>
        <time>2012-03-22T13:43:00Z</time>
      </trkpt>
      <trkpt lat="48.68478" lon="6.13409">
        <ele>307</ele>
        <time>2012-03-22T13:43:02Z</time>
      </trkpt>
      <trkpt lat="48.68478" lon="6.13403">
        <ele>308</ele>
        <time>2012-03-22T13:43:04Z</time>
      </trkpt>
      <trkpt lat="48.68479" lon="6.13398">
        <ele>309</ele>
        <time>2012-03-22T13:43:06Z</time>
      </trkpt>
      <trkpt lat="48.68478" lon="6.13393">
        <ele>310</ele>
        <time>2012-03-22T13:43:08Z</time>
      </trkpt>
      <trkpt lat="48.68478" lon="6.13388">
        <ele>310</ele>
        <time>2012-03-22T13:43:10Z</time>
      </trkpt>
      <trkpt lat="48.68478" lon="6.13378">
        <ele>310</ele>
        <time>2012-03-22T13:43:14Z</time>
      </trkpt>
      <trkpt lat="48.6848" lon="6.13372">
        <ele>310</ele>
        <time>2012-03-22T13:43:16Z</time>
      </trkpt>
      <trkpt lat="48.68481" lon="6.13366">
        <ele>311</ele>
        <time>2012-03-22T13:43:18Z</time>
      </trkpt>
      <trkpt lat="48.68481" lon="6.13361">
        <ele>311</ele>
        <time>2012-03-22T13:43:20Z</time>
      </trkpt>
      <trkpt lat="48.68483" lon="6.13354">
        <ele>310</ele>
        <time>2012-03-22T13:43:22Z</time>
      </trkpt>
      <trkpt lat="48.68484" lon="6.13349">
        <ele>311</ele>
        <time>2012-03-22T13:43:24Z</time>
      </trkpt>
      <trkpt lat="48.68486" lon="6.13344">
        <ele>313</ele>
        <time>2012-03-22T13:43:26Z</time>
      </trkpt>
      <trkpt lat="48.68489" lon="6.13338">
        <ele>314</ele>
        <time>2012-03-22T13:43:28Z</time>
      </trkpt>
      <trkpt lat="48.68491" lon="6.13333">
        <ele>314</ele>
        <time>2012-03-22T13:43:30Z</time>
      </trkpt>
      <trkpt lat="48.68493" lon="6.13328">
        <ele>314</ele>
        <time>2012-03-22T13:43:32Z</time>
      </trkpt>
      <trkpt lat="48.68494" lon="6.13323">
        <ele>316</ele>
        <time>2012-03-22T13:43:34Z</time>
      </trkpt>
      <trkpt lat="48.68498" lon="6.13317">
        <ele>319</ele>
        <time>2012-03-22T13:43:36Z</time>
      </trkpt>
      <trkpt lat="48.68501" lon="6.13311">
        <ele>325</ele>
        <time>2012-03-22T13:43:38Z</time>
      </trkpt>
      <trkpt lat="48.68503" lon="6.13305">
        <ele>326</ele>
        <time>2012-03-22T13:43:40Z</time>
      </trkpt>
      <trkpt lat="48.68506" lon="6.133">
        <ele>326</ele>
        <time>2012-03-22T13:43:42Z</time>
      </trkpt>
      <trkpt lat="48.68509" lon="6.13296">
        <ele>326</ele>
        <time>2012-03-22T13:43:44Z</time>
      </trkpt>
      <trkpt lat="48.68512" lon="6.13291">
        <ele>324</ele>
        <time>2012-03-22T13:43:46Z</time>
      </trkpt>
      <trkpt lat="48.68515" lon="6.13287">
        <ele>323</ele>
        <time>2012-03-22T13:43:48Z</time>
      </trkpt>
      <trkpt lat="48.68517" lon="6.13282">
        <ele>323</ele>
        <time>2012-03-22T13:43:50Z</time>
      </trkpt>
      <trkpt lat="48.6852" lon="6.13278">
        <ele>323</ele>
        <time>2012-03-22T13:43:52Z</time>
      </trkpt>
      <trkpt lat="48.68523" lon="6.13272">
        <ele>325</ele>
        <time>2012-03-22T13:43:54Z</time>
      </trkpt>
      <trkpt lat="48.68526" lon="6.13266">
        <ele>324</ele>
        <time>2012-03-22T13:43:56Z</time>
      </trkpt>
      <trkpt lat="48.68528" lon="6.1326">
        <ele>322</ele>
        <time>2012-03-22T13:43:58Z</time>
      </trkpt>
      <trkpt lat="48.68531" lon="6.13254">
        <ele>321</ele>
        <time>2012-03-22T13:44:00Z</time>
      </trkpt>
      <trkpt lat="48.68536" lon="6.13248">
        <ele>321</ele>
        <time>2012-03-22T13:44:02Z</time>
      </trkpt>
      <trkpt lat="48.6854" lon="6.13241">
        <ele>320</ele>
        <time>2012-03-22T13:44:04Z</time>
      </trkpt>
      <trkpt lat="48.68543" lon="6.13239">
        <ele>321</ele>
        <time>2012-03-22T13:44:06Z</time>
      </trkpt>
      <trkpt lat="48.68546" lon="6.13235">
        <ele>319</ele>
        <time>2012-03-22T13:44:08Z</time>
      </trkpt>
      <trkpt lat="48.68549" lon="6.1323">
        <ele>317</ele>
        <time>2012-03-22T13:44:10Z</time>
      </trkpt>
      <trkpt lat="48.68552" lon="6.13226">
        <ele>313</ele>
        <time>2012-03-22T13:44:12Z</time>
      </trkpt>
      <trkpt lat="48.68554" lon="6.13223">
        <ele>317</ele>
        <time>2012-03-22T13:44:14Z</time>
      </trkpt>
      <trkpt lat="48.68557" lon="6.13218">
        <ele>320</ele>
        <time>2012-03-22T13:44:16Z</time>
      </trkpt>
      <trkpt lat="48.68562" lon="6.13211">
        <ele>322</ele>
        <time>2012-03-22T13:44:18Z</time>
      </trkpt>
      <trkpt lat="48.68567" lon="6.13205">
        <ele>323</ele>
        <time>2012-03-22T13:44:20Z</time>
      </trkpt>
      <trkpt lat="48.68571" lon="6.13201">
        <ele>324</ele>
        <time>2012-03-22T13:44:22Z</time>
      </trkpt>
      <trkpt lat="48.68575" lon="6.13197">
        <ele>323</ele>
        <time>2012-03-22T13:44:24Z</time>
      </trkpt>
      <trkpt lat="48.6858" lon="6.13192">
        <ele>321</ele>
        <time>2012-03-22T13:44:26Z</time>
      </trkpt>
      <trkpt lat="48.68584" lon="6.13187">
        <ele>321</ele>
        <time>2012-03-22T13:44:28Z</time>
      </trkpt>
      <trkpt lat="48.68588" lon="6.13183">
        <ele>322</ele>
        <time>2012-03-22T13:44:30Z</time>
      </trkpt>
      <trkpt lat="48.68592" lon="6.13178">
        <ele>319</ele>
        <time>2012-03-22T13:44:32Z</time>
      </trkpt>
      <trkpt lat="48.68596" lon="6.13175">
        <ele>319</ele>
        <time>2012-03-22T13:44:34Z</time>
      </trkpt>
      <trkpt lat="48.686" lon="6.13172">
        <ele>318</ele>
        <time>2012-03-22T13:44:36Z</time>
      </trkpt>
      <trkpt lat="48.68605" lon="6.13169">
        <ele>321</ele>
        <time>2012-03-22T13:44:38Z</time>
      </trkpt>
      <trkpt lat="48.6861" lon="6.13165">
        <ele>322</ele>
        <time>2012-03-22T13:44:40Z</time>
      </trkpt>
      <trkpt lat="48.68615" lon="6.13162">
        <ele>323</ele>
        <time>2012-03-22T13:44:42Z</time>
      </trkpt>
      <trkpt lat="48.68619" lon="6.13159">
        <ele>320</ele>
        <time>2012-03-22T13:44:44Z</time>
      </trkpt>
      <trkpt lat="48.68624" lon="6.13157">
        <ele>319</ele>
        <time>2012-03-22T13:44:46Z</time>
      </trkpt>
      <trkpt lat="48.68629" lon="6.13156">
        <ele>320</ele>
        <time>2012-03-22T13:44:48Z</time>
      </trkpt>
      <trkpt lat="48.68634" lon="6.13153">
        <ele>321</ele>
        <time>2012-03-22T13:44:50Z</time>
      </trkpt>
      <trkpt lat="48.68638" lon="6.13151">
        <ele>320</ele>
        <time>2012-03-22T13:44:52Z</time>
      </trkpt>
      <trkpt lat="48.68643" lon="6.1315">
        <ele>317</ele>
        <time>2012-03-22T13:44:54Z</time>
      </trkpt>
      <trkpt lat="48.68647" lon="6.13148">
        <ele>316</ele>
        <time>2012-03-22T13:44:56Z</time>
      </trkpt>
      <trkpt lat="48.68652" lon="6.13146">
        <ele>315</ele>
        <time>2012-03-22T13:44:58Z</time>
      </trkpt>
      <trkpt lat="48.68657" lon="6.13144">
        <ele>324</ele>
        <time>2012-03-22T13:45:00Z</time>
      </trkpt>
      <trkpt lat="48.68662" lon="6.13143">
        <ele>325</ele>
        <time>2012-03-22T13:45:02Z</time>
      </trkpt>
      <trkpt lat="48.68667" lon="6.13142">
        <ele>324</ele>
        <time>2012-03-22T13:45:04Z</time>
      </trkpt>
      <trkpt lat="48.68672" lon="6.13141">
        <ele>325</ele>
        <time>2012-03-22T13:45:06Z</time>
      </trkpt>
      <trkpt lat="48.68677" lon="6.1314">
        <ele>325</ele>
        <time>2012-03-22T13:45:08Z</time>
      </trkpt>
      <trkpt lat="48.68682" lon="6.1314">
        <ele>324</ele>
        <time>2012-03-22T13:45:10Z</time>
      </trkpt>
      <trkpt lat="48.68687" lon="6.1314">
        <ele>321</ele>
        <time>2012-03-22T13:45:12Z</time>
      </trkpt>
      <trkpt lat="48.68691" lon="6.13141">
        <ele>324</ele>
        <time>2012-03-22T13:45:14Z</time>
      </trkpt>
      <trkpt lat="48.68695" lon="6.13141">
        <ele>323</ele>
        <time>2012-03-22T13:45:16Z</time>
      </trkpt>
      <trkpt lat="48.68697" lon="6.13142">
        <ele>324</ele>
        <time>2012-03-22T13:45:18Z</time>
      </trkpt>
      <trkpt lat="48.68703" lon="6.13143">
        <ele>326</ele>
        <time>2012-03-22T13:45:20Z</time>
      </trkpt>
      <trkpt lat="48.68708" lon="6.13144">
        <ele>328</ele>
        <time>2012-03-22T13:45:22Z</time>
      </trkpt>
      <trkpt lat="48.68713" lon="6.13143">
        <ele>329</ele>
        <time>2012-03-22T13:45:24Z</time>
      </trkpt>
      <trkpt lat="48.68718" lon="6.13143">
        <ele>329</ele>
        <time>2012-03-22T13:45:26Z</time>
      </trkpt>
      <trkpt lat="48.68723" lon="6.13144">
        <ele>328</ele>
        <time>2012-03-22T13:45:28Z</time>
      </trkpt>
      <trkpt lat="48.68728" lon="6.13145">
        <ele>327</ele>
        <time>2012-03-22T13:45:30Z</time>
      </trkpt>
      <trkpt lat="48.68732" lon="6.13146">
        <ele>326</ele>
        <time>2012-03-22T13:45:32Z</time>
      </trkpt>
      <trkpt lat="48.68737" lon="6.13145">
        <ele>326</ele>
        <time>2012-03-22T13:45:34Z</time>
      </trkpt>
      <trkpt lat="48.68742" lon="6.13145">
        <ele>324</ele>
        <time>2012-03-22T13:45:36Z</time>
      </trkpt>
      <trkpt lat="48.68748" lon="6.13145">
        <ele>323</ele>
        <time>2012-03-22T13:45:38Z</time>
      </trkpt>
      <trkpt lat="48.68752" lon="6.13145">
        <ele>320</ele>
        <time>2012-03-22T13:45:40Z</time>
      </trkpt>
      <trkpt lat="48.68755" lon="6.13145">
        <ele>319</ele>
        <time>2012-03-22T13:45:42Z</time>
      </trkpt>
      <trkpt lat="48.68759" lon="6.13146">
        <ele>318</ele>
        <time>2012-03-22T13:45:44Z</time>
      </trkpt>
      <trkpt lat="48.68763" lon="6.13147">
        <ele>321</ele>
        <time>2012-03-22T13:45:46Z</time>
      </trkpt>
      <trkpt lat="48.68767" lon="6.13147">
        <ele>322</ele>
        <time>2012-03-22T13:45:48Z</time>
      </trkpt>
      <trkpt lat="48.68771" lon="6.13148">
        <ele>323</ele>
        <time>2012-03-22T13:45:50Z</time>
      </trkpt>
      <trkpt lat="48.68776" lon="6.1315">
        <ele>322</ele>
        <time>2012-03-22T13:45:52Z</time>
      </trkpt>
      <trkpt lat="48.68779" lon="6.13151">
        <ele>324</ele>
        <time>2012-03-22T13:45:54Z</time>
      </trkpt>
      <trkpt lat="48.68782" lon="6.13153">
        <ele>327</ele>
        <time>2012-03-22T13:45:56Z</time>
      </trkpt>
      <trkpt lat="48.68784" lon="6.13154">
        <ele>327</ele>
        <time>2012-03-22T13:45:58Z</time>
      </trkpt>
      <trkpt lat="48.68787" lon="6.13155">
        <ele>329</ele>
        <time>2012-03-22T13:46:00Z</time>
      </trkpt>
      <trkpt lat="48.68791" lon="6.13157">
        <ele>330</ele>
        <time>2012-03-22T13:46:02Z</time>
      </trkpt>
      <trkpt lat="48.68795" lon="6.1316">
        <ele>329</ele>
        <time>2012-03-22T13:46:04Z</time>
      </trkpt>
      <trkpt lat="48.68799" lon="6.13164">
        <ele>328</ele>
        <time>2012-03-22T13:46:06Z</time>
      </trkpt>
      <trkpt lat="48.68803" lon="6.13167">
        <ele>325</ele>
        <time>2012-03-22T13:46:08Z</time>
      </trkpt>
      <trkpt lat="48.68806" lon="6.13171">
        <ele>324</ele>
        <time>2012-03-22T13:46:10Z</time>
      </trkpt>
      <trkpt lat="48.6881" lon="6.13174">
        <ele>325</ele>
        <time>2012-03-22T13:46:12Z</time>
      </trkpt>
      <trkpt lat="48.68813" lon="6.13178">
        <ele>327</ele>
        <time>2012-03-22T13:46:14Z</time>
      </trkpt>
      <trkpt lat="48.68817" lon="6.13182">
        <ele>327</ele>
        <time>2012-03-22T13:46:16Z</time>
      </trkpt>
      <trkpt lat="48.68819" lon="6.13183">
        <ele>331</ele>
        <time>2012-03-22T13:46:18Z</time>
      </trkpt>
      <trkpt lat="48.68821" lon="6.13184">
        <ele>333</ele>
        <time>2012-03-22T13:46:20Z</time>
      </trkpt>
      <trkpt lat="48.68825" lon="6.13182">
        <ele>334</ele>
        <time>2012-03-22T13:46:22Z</time>
      </trkpt>
      <trkpt lat="48.68827" lon="6.13182">
        <ele>335</ele>
        <time>2012-03-22T13:46:24Z</time>
      </trkpt>
      <trkpt lat="48.68827" lon="6.13179">
        <ele>337</ele>
        <time>2012-03-22T13:46:26Z</time>
      </trkpt>
      <trkpt lat="48.68828" lon="6.13175">
        <ele>337</ele>
        <time>2012-03-22T13:46:28Z</time>
      </trkpt>
      <trkpt lat="48.68829" lon="6.13169">
        <ele>338</ele>
        <time>2012-03-22T13:46:30Z</time>
      </trkpt>
      <trkpt lat="48.6883" lon="6.13164">
        <ele>338</ele>
        <time>2012-03-22T13:46:32Z</time>
      </trkpt>
      <trkpt lat="48.68829" lon="6.13159">
        <ele>337</ele>
        <time>2012-03-22T13:46:34Z</time>
      </trkpt>
      <trkpt lat="48.68828" lon="6.13154">
        <ele>337</ele>
        <time>2012-03-22T13:46:36Z</time>
      </trkpt>
      <trkpt lat="48.68828" lon="6.13149">
        <ele>338</ele>
        <time>2012-03-22T13:46:38Z</time>
      </trkpt>
      <trkpt lat="48.68828" lon="6.13145">
        <ele>338</ele>
        <time>2012-03-22T13:46:40Z</time>
      </trkpt>
      <trkpt lat="48.68827" lon="6.1314">
        <ele>339</ele>
        <time>2012-03-22T13:46:42Z</time>
      </trkpt>
      <trkpt lat="48.68826" lon="6.13134">
        <ele>341</ele>
        <time>2012-03-22T13:46:44Z</time>
      </trkpt>
      <trkpt lat="48.68825" lon="6.13128">
        <ele>341</ele>
        <time>2012-03-22T13:46:46Z</time>
      </trkpt>
      <trkpt lat="48.68824" lon="6.13121">
        <ele>341</ele>
        <time>2012-03-22T13:46:48Z</time>
      </trkpt>
      <trkpt lat="48.68823" lon="6.13114">
        <ele>341</ele>
        <time>2012-03-22T13:46:50Z</time>
      </trkpt>
      <trkpt lat="48.68821" lon="6.13108">
        <ele>341</ele>
        <time>2012-03-22T13:46:52Z</time>
      </trkpt>
      <trkpt lat="48.6882" lon="6.13102">
        <ele>342</ele>
        <time>2012-03-22T13:46:54Z</time>
      </trkpt>
      <trkpt lat="48.68821" lon="6.13095">
        <ele>342</ele>
        <time>2012-03-22T13:46:56Z</time>
      </trkpt>
      <trkpt lat="48.6882" lon="6.13088">
        <ele>342</ele>
        <time>2012-03-22T13:46:58Z</time>
      </trkpt>
      <trkpt lat="48.6882" lon="6.13081">
        <ele>341</ele>
        <time>2012-03-22T13:47:00Z</time>
      </trkpt>
      <trkpt lat="48.68819" lon="6.13073">
        <ele>339</ele>
        <time>2012-03-22T13:47:02Z</time>
      </trkpt>
      <trkpt lat="48.68819" lon="6.13065">
        <ele>340</ele>
        <time>2012-03-22T13:47:04Z</time>
      </trkpt>
      <trkpt lat="48.68819" lon="6.13058">
        <ele>339</ele>
        <time>2012-03-22T13:47:06Z</time>
      </trkpt>
      <trkpt lat="48.68818" lon="6.1305">
        <ele>339</ele>
        <time>2012-03-22T13:47:08Z</time>
      </trkpt>
      <trkpt lat="48.68817" lon="6.13043">
        <ele>338</ele>
        <time>2012-03-22T13:47:10Z</time>
      </trkpt>
      <trkpt lat="48.68815" lon="6.13035">
        <ele>338</ele>
        <time>2012-03-22T13:47:12Z</time>
      </trkpt>
      <trkpt lat="48.68814" lon="6.13027">
        <ele>338</ele>
        <time>2012-03-22T13:47:14Z</time>
      </trkpt>
      <trkpt lat="48.68813" lon="6.13019">
        <ele>337</ele>
        <time>2012-03-22T13:47:16Z</time>
      </trkpt>
      <trkpt lat="48.68813" lon="6.13011">
        <ele>338</ele>
        <time>2012-03-22T13:47:18Z</time>
      </trkpt>
      <trkpt lat="48.68812" lon="6.13005">
        <ele>339</ele>
        <time>2012-03-22T13:47:20Z</time>
      </trkpt>
      <trkpt lat="48.68811" lon="6.12998">
        <ele>339</ele>
        <time>2012-03-22T13:47:22Z</time>
      </trkpt>
      <trkpt lat="48.68811" lon="6.12991">
        <ele>340</ele>
        <time>2012-03-22T13:47:24Z</time>
      </trkpt>
      <trkpt lat="48.68811" lon="6.12985">
        <ele>342</ele>
        <time>2012-03-22T13:47:26Z</time>
      </trkpt>
      <trkpt lat="48.6881" lon="6.12979">
        <ele>342</ele>
        <time>2012-03-22T13:47:28Z</time>
      </trkpt>
      <trkpt lat="48.68809" lon="6.12972">
        <ele>343</ele>
        <time>2012-03-22T13:47:30Z</time>
      </trkpt>
      <trkpt lat="48.68808" lon="6.12966">
        <ele>343</ele>
        <time>2012-03-22T13:47:32Z</time>
      </trkpt>
      <trkpt lat="48.68807" lon="6.12958">
        <ele>342</ele>
        <time>2012-03-22T13:47:34Z</time>
      </trkpt>
      <trkpt lat="48.68807" lon="6.1295">
        <ele>342</ele>
        <time>2012-03-22T13:47:36Z</time>
      </trkpt>
      <trkpt lat="48.68805" lon="6.12944">
        <ele>344</ele>
        <time>2012-03-22T13:47:38Z</time>
      </trkpt>
      <trkpt lat="48.68805" lon="6.12935">
        <ele>345</ele>
        <time>2012-03-22T13:47:40Z</time>
      </trkpt>
      <trkpt lat="48.68805" lon="6.12927">
        <ele>346</ele>
        <time>2012-03-22T13:47:42Z</time>
      </trkpt>
      <trkpt lat="48.68805" lon="6.12921">
        <ele>348</ele>
        <time>2012-03-22T13:47:44Z</time>
      </trkpt>
      <trkpt lat="48.68805" lon="6.12914">
        <ele>349</ele>
        <time>2012-03-22T13:47:46Z</time>
      </trkpt>
      <trkpt lat="48.68805" lon="6.12907">
        <ele>350</ele>
        <time>2012-03-22T13:47:48Z</time>
      </trkpt>
      <trkpt lat="48.68805" lon="6.12899">
        <ele>350</ele>
        <time>2012-03-22T13:47:50Z</time>
      </trkpt>
      <trkpt lat="48.68805" lon="6.12891">
        <ele>348</ele>
        <time>2012-03-22T13:47:52Z</time>
      </trkpt>
      <trkpt lat="48.68806" lon="6.12883">
        <ele>347</ele>
        <time>2012-03-22T13:47:54Z</time>
      </trkpt>
      <trkpt lat="48.68807" lon="6.12876">
        <ele>349</ele>
        <time>2012-03-22T13:47:56Z</time>
      </trkpt>
      <trkpt lat="48.68806" lon="6.12868">
        <ele>349</ele>
        <time>2012-03-22T13:47:58Z</time>
      </trkpt>
      <trkpt lat="48.68806" lon="6.12861">
        <ele>348</ele>
        <time>2012-03-22T13:48:00Z</time>
      </trkpt>
      <trkpt lat="48.68805" lon="6.12852">
        <ele>348</ele>
        <time>2012-03-22T13:48:02Z</time>
      </trkpt>
      <trkpt lat="48.68805" lon="6.12844">
        <ele>348</ele>
        <time>2012-03-22T13:48:04Z</time>
      </trkpt>
      <trkpt lat="48.68804" lon="6.12836">
        <ele>349</ele>
        <time>2012-03-22T13:48:06Z</time>
      </trkpt>
      <trkpt lat="48.68802" lon="6.12828">
        <ele>350</ele>
        <time>2012-03-22T13:48:08Z</time>
      </trkpt>
      <trkpt lat="48.68802" lon="6.12821">
        <ele>352</ele>
        <time>2012-03-22T13:48:10Z</time>
      </trkpt>
      <trkpt lat="48.68802" lon="6.12814">
        <ele>352</ele>
        <time>2012-03-22T13:48:12Z</time>
      </trkpt>
      <trkpt lat="48.68801" lon="6.12805">
        <ele>353</ele>
        <time>2012-03-22T13:48:14Z</time>
      </trkpt>
      <trkpt lat="48.688" lon="6.12797">
        <ele>351</ele>
        <time>2012-03-22T13:48:16Z</time>
      </trkpt>
      <trkpt lat="48.688" lon="6.12789">
        <ele>351</ele>
        <time>2012-03-22T13:48:18Z</time>
      </trkpt>
      <trkpt lat="48.68799" lon="6.12781">
        <ele>352</ele>
        <time>2012-03-22T13:48:20Z</time>
      </trkpt>
      <trkpt lat="48.68798" lon="6.12773">
        <ele>352</ele>
        <time>2012-03-22T13:48:22Z</time>
      </trkpt>
      <trkpt lat="48.68797" lon="6.12764">
        <ele>351</ele>
        <time>2012-03-22T13:48:24Z</time>
      </trkpt>
      <trkpt lat="48.68796" lon="6.12755">
        <ele>352</ele>
        <time>2012-03-22T13:48:26Z</time>
      </trkpt>
      <trkpt lat="48.68793" lon="6.12747">
        <ele>351</ele>
        <time>2012-03-22T13:48:28Z</time>
      </trkpt>
      <trkpt lat="48.68789" lon="6.1274">
        <ele>351</ele>
        <time>2012-03-22T13:48:30Z</time>
      </trkpt>
      <trkpt lat="48.68784" lon="6.12735">
        <ele>352</ele>
        <time>2012-03-22T13:48:32Z</time>
      </trkpt>
      <trkpt lat="48.68779" lon="6.12733">
        <ele>351</ele>
        <time>2012-03-22T13:48:34Z</time>
      </trkpt>
      <trkpt lat="48.68774" lon="6.12733">
        <ele>351</ele>
        <time>2012-03-22T13:48:36Z</time>
      </trkpt>
      <trkpt lat="48.68768" lon="6.12735">
        <ele>353</ele>
        <time>2012-03-22T13:48:38Z</time>
      </trkpt>
      <trkpt lat="48.68761" lon="6.12738">
        <ele>354</ele>
        <time>2012-03-22T13:48:40Z</time>
      </trkpt>
      <trkpt lat="48.68755" lon="6.12741">
        <ele>355</ele>
        <time>2012-03-22T13:48:42Z</time>
      </trkpt>
      <trkpt lat="48.68747" lon="6.12743">
        <ele>356</ele>
        <time>2012-03-22T13:48:44Z</time>
      </trkpt>
      <trkpt lat="48.6874" lon="6.12747">
        <ele>359</ele>
        <time>2012-03-22T13:48:46Z</time>
      </trkpt>
      <trkpt lat="48.68733" lon="6.1275">
        <ele>362</ele>
        <time>2012-03-22T13:48:48Z</time>
      </trkpt>
      <trkpt lat="48.68724" lon="6.12754">
        <ele>365</ele>
        <time>2012-03-22T13:48:50Z</time>
      </trkpt>
      <trkpt lat="48.68716" lon="6.12757">
        <ele>365</ele>
        <time>2012-03-22T13:48:52Z</time>
      </trkpt>
      <trkpt lat="48.68708" lon="6.1276">
        <ele>366</ele>
        <time>2012-03-22T13:48:54Z</time>
      </trkpt>
      <trkpt lat="48.68697" lon="6.12763">
        <ele>367</ele>
        <time>2012-03-22T13:48:56Z</time>
      </trkpt>
      <trkpt lat="48.68686" lon="6.12767">
        <ele>368</ele>
        <time>2012-03-22T13:48:58Z</time>
      </trkpt>
      <trkpt lat="48.68676" lon="6.1277">
        <ele>370</ele>
        <time>2012-03-22T13:49:00Z</time>
      </trkpt>
      <trkpt lat="48.68667" lon="6.12773">
        <ele>370</ele>
        <time>2012-03-22T13:49:02Z</time>
      </trkpt>
      <trkpt lat="48.68658" lon="6.12777">
        <ele>367</ele>
        <time>2012-03-22T13:49:04Z</time>
      </trkpt>
      <trkpt lat="48.68646" lon="6.1278">
        <ele>365</ele>
        <time>2012-03-22T13:49:06Z</time>
      </trkpt>
      <trkpt lat="48.68634" lon="6.12783">
        <ele>361</ele>
        <time>2012-03-22T13:49:08Z</time>
      </trkpt>
      <trkpt lat="48.68622" lon="6.12787">
        <ele>362</ele>
        <time>2012-03-22T13:49:10Z</time>
      </trkpt>
      <trkpt lat="48.68612" lon="6.12791">
        <ele>362</ele>
        <time>2012-03-22T13:49:12Z</time>
      </trkpt>
      <trkpt lat="48.68603" lon="6.12794">
        <ele>363</ele>
        <time>2012-03-22T13:49:14Z</time>
      </trkpt>
      <trkpt lat="48.68591" lon="6.12798">
        <ele>367</ele>
        <time>2012-03-22T13:49:16Z</time>
      </trkpt>
      <trkpt lat="48.68581" lon="6.12802">
        <ele>366</ele>
        <time>2012-03-22T13:49:18Z</time>
      </trkpt>
      <trkpt lat="48.68571" lon="6.12805">
        <ele>364</ele>
        <time>2012-03-22T13:49:20Z</time>
      </trkpt>
      <trkpt lat="48.6856" lon="6.12809">
        <ele>364</ele>
        <time>2012-03-22T13:49:22Z</time>
      </trkpt>
      <trkpt lat="48.68552" lon="6.12814">
        <ele>365</ele>
        <time>2012-03-22T13:49:24Z</time>
      </trkpt>
      <trkpt lat="48.68543" lon="6.1282">
        <ele>363</ele>
        <time>2012-03-22T13:49:26Z</time>
      </trkpt>
      <trkpt lat="48.68532" lon="6.12826">
        <ele>366</ele>
        <time>2012-03-22T13:49:28Z</time>
      </trkpt>
      <trkpt lat="48.6852" lon="6.12832">
        <ele>364</ele>
        <time>2012-03-22T13:49:30Z</time>
      </trkpt>
      <trkpt lat="48.68509" lon="6.12838">
        <ele>361</ele>
        <time>2012-03-22T13:49:32Z</time>
      </trkpt>
      <trkpt lat="48.685" lon="6.12843">
        <ele>360</ele>
        <time>2012-03-22T13:49:34Z</time>
      </trkpt>
      <trkpt lat="48.68492" lon="6.12849">
        <ele>357</ele>
        <time>2012-03-22T13:49:36Z</time>
      </trkpt>
      <trkpt lat="48.68485" lon="6.12854">
        <ele>358</ele>
        <time>2012-03-22T13:49:38Z</time>
      </trkpt>
      <trkpt lat="48.68477" lon="6.12862">
        <ele>357</ele>
        <time>2012-03-22T13:49:40Z</time>
      </trkpt>
      <trkpt lat="48.68469" lon="6.12873">
        <ele>363</ele>
        <time>2012-03-22T13:49:42Z</time>
      </trkpt>
      <trkpt lat="48.6846" lon="6.12878">
        <ele>361</ele>
        <time>2012-03-22T13:49:44Z</time>
      </trkpt>
      <trkpt lat="48.68454" lon="6.12878">
        <ele>353</ele>
        <time>2012-03-22T13:49:46Z</time>
      </trkpt>
      <trkpt lat="48.6845" lon="6.12875">
        <ele>355</ele>
        <time>2012-03-22T13:49:48Z</time>
      </trkpt>
      <trkpt lat="48.68445" lon="6.12869">
        <ele>358</ele>
        <time>2012-03-22T13:49:50Z</time>
      </trkpt>
      <trkpt lat="48.6844" lon="6.12863">
        <ele>359</ele>
        <time>2012-03-22T13:49:52Z</time>
      </trkpt>
      <trkpt lat="48.68435" lon="6.12856">
        <ele>363</ele>
        <time>2012-03-22T13:49:54Z</time>
      </trkpt>
      <trkpt lat="48.6843" lon="6.1285">
        <ele>366</ele>
        <time>2012-03-22T13:49:56Z</time>
      </trkpt>
      <trkpt lat="48.68425" lon="6.12844">
        <ele>366</ele>
        <time>2012-03-22T13:49:58Z</time>
      </trkpt>
      <trkpt lat="48.6842" lon="6.1284">
        <ele>368</ele>
        <time>2012-03-22T13:50:00Z</time>
      </trkpt>
      <trkpt lat="48.68414" lon="6.12833">
        <ele>369</ele>
        <time>2012-03-22T13:50:02Z</time>
      </trkpt>
      <trkpt lat="48.68407" lon="6.12829">
        <ele>368</ele>
        <time>2012-03-22T13:50:04Z</time>
      </trkpt>
      <trkpt lat="48.68403" lon="6.12823">
        <ele>369</ele>
        <time>2012-03-22T13:50:06Z</time>
      </trkpt>
      <trkpt lat="48.68398" lon="6.12817">
        <ele>374</ele>
        <time>2012-03-22T13:50:08Z</time>
      </trkpt>
      <trkpt lat="48.6839" lon="6.12811">
        <ele>375</ele>
        <time>2012-03-22T13:50:10Z</time>
      </trkpt>
      <trkpt lat="48.68385" lon="6.12806">
        <ele>376</ele>
        <time>2012-03-22T13:50:12Z</time>
      </trkpt>
      <trkpt lat="48.68378" lon="6.12798">
        <ele>370</ele>
        <time>2012-03-22T13:50:14Z</time>
      </trkpt>
      <trkpt lat="48.68372" lon="6.12791">
        <ele>371</ele>
        <time>2012-03-22T13:50:16Z</time>
      </trkpt>
      <trkpt lat="48.68365" lon="6.12785">
        <ele>367</ele>
        <time>2012-03-22T13:50:18Z</time>
      </trkpt>
      <trkpt lat="48.68359" lon="6.12777">
        <ele>364</ele>
        <time>2012-03-22T13:50:20Z</time>
      </trkpt>
      <trkpt lat="48.68353" lon="6.12769">
        <ele>364</ele>
        <time>2012-03-22T13:50:22Z</time>
      </trkpt>
      <trkpt lat="48.68347" lon="6.12761">
        <ele>365</ele>
        <time>2012-03-22T13:50:24Z</time>
      </trkpt>
      <trkpt lat="48.6834" lon="6.12753">
        <ele>364</ele>
        <time>2012-03-22T13:50:26Z</time>
      </trkpt>
      <trkpt lat="48.68335" lon="6.12746">
        <ele>365</ele>
        <time>2012-03-22T13:50:28Z</time>
      </trkpt>
      <trkpt lat="48.6833" lon="6.12741">
        <ele>366</ele>
        <time>2012-03-22T13:50:30Z</time>
      </trkpt>
      <trkpt lat="48.68324" lon="6.12736">
        <ele>370</ele>
        <time>2012-03-22T13:50:32Z</time>
      </trkpt>
      <trkpt lat="48.68318" lon="6.12731">
        <ele>374</ele>
        <time>2012-03-22T13:50:34Z</time>
      </trkpt>
      <trkpt lat="48.6831" lon="6.12725">
        <ele>376</ele>
        <time>2012-03-22T13:50:36Z</time>
      </trkpt>
      <trkpt lat="48.683" lon="6.12718">
        <ele>376</ele>
        <time>2012-03-22T13:50:38Z</time>
      </trkpt>
      <trkpt lat="48.68293" lon="6.12711">
        <ele>375</ele>
        <time>2012-03-22T13:50:40Z</time>
      </trkpt>
      <trkpt lat="48.68287" lon="6.12702">
        <ele>377</ele>
        <time>2012-03-22T13:50:42Z</time>
      </trkpt>
      <trkpt lat="48.68281" lon="6.12696">
        <ele>378</ele>
        <time>2012-03-22T13:50:44Z</time>
      </trkpt>
      <trkpt lat="48.68274" lon="6.12688">
        <ele>379</ele>
        <time>2012-03-22T13:50:46Z</time>
      </trkpt>
      <trkpt lat="48.68268" lon="6.12681">
        <ele>376</ele>
        <time>2012-03-22T13:50:48Z</time>
      </trkpt>
      <trkpt lat="48.68262" lon="6.12673">
        <ele>375</ele>
        <time>2012-03-22T13:50:50Z</time>
      </trkpt>
      <trkpt lat="48.68256" lon="6.12665">
        <ele>377</ele>
        <time>2012-03-22T13:50:52Z</time>
      </trkpt>
      <trkpt lat="48.6825" lon="6.12657">
        <ele>375</ele>
        <time>2012-03-22T13:50:54Z</time>
      </trkpt>
      <trkpt lat="48.68245" lon="6.1265">
        <ele>378</ele>
        <time>2012-03-22T13:50:56Z</time>
      </trkpt>
      <trkpt lat="48.6824" lon="6.12644">
        <ele>378</ele>
        <time>2012-03-22T13:50:58Z</time>
      </trkpt>
      <trkpt lat="48.68233" lon="6.12638">
        <ele>377</ele>
        <time>2012-03-22T13:51:00Z</time>
      </trkpt>
      <trkpt lat="48.68226" lon="6.12632">
        <ele>377</ele>
        <time>2012-03-22T13:51:02Z</time>
      </trkpt>
      <trkpt lat="48.6822" lon="6.12626">
        <ele>380</ele>
        <time>2012-03-22T13:51:04Z</time>
      </trkpt>
      <trkpt lat="48.68213" lon="6.1262">
        <ele>381</ele>
        <time>2012-03-22T13:51:06Z</time>
      </trkpt>
      <trkpt lat="48.68206" lon="6.12614">
        <ele>378</ele>
        <time>2012-03-22T13:51:08Z</time>
      </trkpt>
      <trkpt lat="48.682" lon="6.12608">
        <ele>383</ele>
        <time>2012-03-22T13:51:10Z</time>
      </trkpt>
      <trkpt lat="48.68194" lon="6.12601">
        <ele>380</ele>
        <time>2012-03-22T13:51:12Z</time>
      </trkpt>
      <trkpt lat="48.68187" lon="6.12591">
        <ele>382</ele>
        <time>2012-03-22T13:51:14Z</time>
      </trkpt>
      <trkpt lat="48.68182" lon="6.12579">
        <ele>381</ele>
        <time>2012-03-22T13:51:16Z</time>
      </trkpt>
      <trkpt lat="48.68177" lon="6.1257">
        <ele>379</ele>
        <time>2012-03-22T13:51:18Z</time>
      </trkpt>
      <trkpt lat="48.68172" lon="6.12558">
        <ele>378</ele>
        <time>2012-03-22T13:51:20Z</time>
      </trkpt>
      <trkpt lat="48.68167" lon="6.12545">
        <ele>380</ele>
        <time>2012-03-22T13:51:22Z</time>
      </trkpt>
      <trkpt lat="48.68161" lon="6.12532">
        <ele>380</ele>
        <time>2012-03-22T13:51:24Z</time>
      </trkpt>
      <trkpt lat="48.68157" lon="6.1252">
        <ele>381</ele>
        <time>2012-03-22T13:51:26Z</time>
      </trkpt>
      <trkpt lat="48.68153" lon="6.12507">
        <ele>380</ele>
        <time>2012-03-22T13:51:28Z</time>
      </trkpt>
      <trkpt lat="48.68147" lon="6.12492">
        <ele>380</ele>
        <time>2012-03-22T13:51:30Z</time>
      </trkpt>
      <trkpt lat="48.68143" lon="6.12481">
        <ele>383</ele>
        <time>2012-03-22T13:51:32Z</time>
      </trkpt>
      <trkpt lat="48.68138" lon="6.1247">
        <ele>381</ele>
        <time>2012-03-22T13:51:34Z</time>
      </trkpt>
      <trkpt lat="48.68132" lon="6.12456">
        <ele>380</ele>
        <time>2012-03-22T13:51:36Z</time>
      </trkpt>
      <trkpt lat="48.68127" lon="6.12439">
        <ele>376</ele>
        <time>2012-03-22T13:51:38Z</time>
      </trkpt>
      <trkpt lat="48.68122" lon="6.12426">
        <ele>371</ele>
        <time>2012-03-22T13:51:40Z</time>
      </trkpt>
      <trkpt lat="48.68116" lon="6.12412">
        <ele>372</ele>
        <time>2012-03-22T13:51:42Z</time>
      </trkpt>
      <trkpt lat="48.68111" lon="6.12395">
        <ele>371</ele>
        <time>2012-03-22T13:51:44Z</time>
      </trkpt>
      <trkpt lat="48.68109" lon="6.12382">
        <ele>371</ele>
        <time>2012-03-22T13:51:46Z</time>
      </trkpt>
      <trkpt lat="48.68105" lon="6.12365">
        <ele>372</ele>
        <time>2012-03-22T13:51:48Z</time>
      </trkpt>
      <trkpt lat="48.68101" lon="6.12349">
        <ele>374</ele>
        <time>2012-03-22T13:51:50Z</time>
      </trkpt>
      <trkpt lat="48.68096" lon="6.12335">
        <ele>374</ele>
        <time>2012-03-22T13:51:52Z</time>
      </trkpt>
      <trkpt lat="48.6809" lon="6.12319">
        <ele>375</ele>
        <time>2012-03-22T13:51:54Z</time>
      </trkpt>
      <trkpt lat="48.68084" lon="6.12303">
        <ele>372</ele>
        <time>2012-03-22T13:51:56Z</time>
      </trkpt>
      <trkpt lat="48.68077" lon="6.12288">
        <ele>371</ele>
        <time>2012-03-22T13:51:58Z</time>
      </trkpt>
      <trkpt lat="48.68071" lon="6.12271">
        <ele>368</ele>
        <time>2012-03-22T13:52:00Z</time>
      </trkpt>
      <trkpt lat="48.68066" lon="6.12249">
        <ele>370</ele>
        <time>2012-03-22T13:52:02Z</time>
      </trkpt>
      <trkpt lat="48.68061" lon="6.12232">
        <ele>371</ele>
        <time>2012-03-22T13:52:04Z</time>
      </trkpt>
      <trkpt lat="48.68053" lon="6.12218">
        <ele>373</ele>
        <time>2012-03-22T13:52:06Z</time>
      </trkpt>
      <trkpt lat="48.68048" lon="6.12205">
        <ele>377</ele>
        <time>2012-03-22T13:52:08Z</time>
      </trkpt>
      <trkpt lat="48.68045" lon="6.12188">
        <ele>377</ele>
        <time>2012-03-22T13:52:10Z</time>
      </trkpt>
      <trkpt lat="48.68042" lon="6.12171">
        <ele>375</ele>
        <time>2012-03-22T13:52:12Z</time>
      </trkpt>
      <trkpt lat="48.68038" lon="6.12152">
        <ele>375</ele>
        <time>2012-03-22T13:52:14Z</time>
      </trkpt>
      <trkpt lat="48.68034" lon="6.12132">
        <ele>375</ele>
        <time>2012-03-22T13:52:16Z</time>
      </trkpt>
      <trkpt lat="48.6803" lon="6.12118">
        <ele>374</ele>
        <time>2012-03-22T13:52:18Z</time>
      </trkpt>
      <trkpt lat="48.68026" lon="6.12108">
        <ele>372</ele>
        <time>2012-03-22T13:52:20Z</time>
      </trkpt>
      <trkpt lat="48.6802" lon="6.12102">
        <ele>363</ele>
        <time>2012-03-22T13:52:22Z</time>
      </trkpt>
      <trkpt lat="48.68012" lon="6.121">
        <ele>359</ele>
        <time>2012-03-22T13:52:24Z</time>
      </trkpt>
      <trkpt lat="48.68006" lon="6.121">
        <ele>357</ele>
        <time>2012-03-22T13:52:26Z</time>
      </trkpt>
      <trkpt lat="48.68" lon="6.12101">
        <ele>354</ele>
        <time>2012-03-22T13:52:28Z</time>
      </trkpt>
      <trkpt lat="48.67995" lon="6.12102">
        <ele>357</ele>
        <time>2012-03-22T13:52:30Z</time>
      </trkpt>
      <trkpt lat="48.67989" lon="6.12104">
        <ele>363</ele>
        <time>2012-03-22T13:52:32Z</time>
      </trkpt>
      <trkpt lat="48.67985" lon="6.12107">
        <ele>359</ele>
        <time>2012-03-22T13:52:34Z</time>
      </trkpt>
      <trkpt lat="48.6798" lon="6.12111">
        <ele>358</ele>
        <time>2012-03-22T13:52:36Z</time>
      </trkpt>
      <trkpt lat="48.67974" lon="6.12113">
        <ele>359</ele>
        <time>2012-03-22T13:52:38Z</time>
      </trkpt>
      <trkpt lat="48.67969" lon="6.12116">
        <ele>366</ele>
        <time>2012-03-22T13:52:40Z</time>
      </trkpt>
      <trkpt lat="48.67964" lon="6.12117">
        <ele>371</ele>
        <time>2012-03-22T13:52:42Z</time>
      </trkpt>
      <trkpt lat="48.6796" lon="6.12119">
        <ele>373</ele>
        <time>2012-03-22T13:52:44Z</time>
      </trkpt>
      <trkpt lat="48.67954" lon="6.12121">
        <ele>375</ele>
        <time>2012-03-22T13:52:46Z</time>
      </trkpt>
      <trkpt lat="48.67949" lon="6.12123">
        <ele>373</ele>
        <time>2012-03-22T13:52:48Z</time>
      </trkpt>
      <trkpt lat="48.67946" lon="6.12125">
        <ele>375</ele>
        <time>2012-03-22T13:52:50Z</time>
      </trkpt>
      <trkpt lat="48.67941" lon="6.1213">
        <ele>376</ele>
        <time>2012-03-22T13:52:52Z</time>
      </trkpt>
      <trkpt lat="48.67936" lon="6.12131">
        <ele>377</ele>
        <time>2012-03-22T13:52:54Z</time>
      </trkpt>
      <trkpt lat="48.6793" lon="6.12133">
        <ele>375</ele>
        <time>2012-03-22T13:52:56Z</time>
      </trkpt>
      <trkpt lat="48.67916" lon="6.12136">
        <ele>373</ele>
        <time>2012-03-22T13:53:00Z</time>
      </trkpt>
      <trkpt lat="48.6791" lon="6.12136">
        <ele>375</ele>
        <time>2012-03-22T13:53:02Z</time>
      </trkpt>
      <trkpt lat="48.67904" lon="6.12139">
        <ele>382</ele>
        <time>2012-03-22T13:53:04Z</time>
      </trkpt>
      <trkpt lat="48.67897" lon="6.12142">
        <ele>378</ele>
        <time>2012-03-22T13:53:06Z</time>
      </trkpt>
      <trkpt lat="48.6789" lon="6.12146">
        <ele>377</ele>
        <time>2012-03-22T13:53:08Z</time>
      </trkpt>
      <trkpt lat="48.67884" lon="6.12149">
        <ele>375</ele>
        <time>2012-03-22T13:53:10Z</time>
      </trkpt>
      <trkpt lat="48.67876" lon="6.12151">
        <ele>376</ele>
        <time>2012-03-22T13:53:12Z</time>
      </trkpt>
      <trkpt lat="48.67869" lon="6.12152">
        <ele>376</ele>
        <time>2012-03-22T13:53:14Z</time>
      </trkpt>
      <trkpt lat="48.6786" lon="6.12157">
        <ele>374</ele>
        <time>2012-03-22T13:53:16Z</time>
      </trkpt>
      <trkpt lat="48.67853" lon="6.12159">
        <ele>379</ele>
        <time>2012-03-22T13:53:18Z</time>
      </trkpt>
      <trkpt lat="48.67847" lon="6.12158">
        <ele>383</ele>
        <time>2012-03-22T13:53:20Z</time>
      </trkpt>
      <trkpt lat="48.67844" lon="6.12158">
        <ele>378</ele>
        <time>2012-03-22T13:53:22Z</time>
      </trkpt>
      <trkpt lat="48.67838" lon="6.12159">
        <ele>380</ele>
        <time>2012-03-22T13:53:24Z</time>
      </trkpt>
      <trkpt lat="48.67831" lon="6.12163">
        <ele>379</ele>
        <time>2012-03-22T13:53:26Z</time>
      </trkpt>
      <trkpt lat="48.67826" lon="6.12167">
        <ele>381</ele>
        <time>2012-03-22T13:53:28Z</time>
      </trkpt>
      <trkpt lat="48.67822" lon="6.12167">
        <ele>379</ele>
        <time>2012-03-22T13:53:30Z</time>
      </trkpt>
      <trkpt lat="48.67816" lon="6.12167">
        <ele>372</ele>
        <time>2012-03-22T13:53:32Z</time>
      </trkpt>
      <trkpt lat="48.67811" lon="6.12165">
        <ele>373</ele>
        <time>2012-03-22T13:53:34Z</time>
      </trkpt>
      <trkpt lat="48.67804" lon="6.12161">
        <ele>383</ele>
        <time>2012-03-22T13:53:36Z</time>
      </trkpt>
      <trkpt lat="48.67796" lon="6.12158">
        <ele>378</ele>
        <time>2012-03-22T13:53:38Z</time>
      </trkpt>
      <trkpt lat="48.67785" lon="6.12157">
        <ele>376</ele>
        <time>2012-03-22T13:53:40Z</time>
      </trkpt>
      <trkpt lat="48.67775" lon="6.12156">
        <ele>382</ele>
        <time>2012-03-22T13:53:42Z</time>
      </trkpt>
      <trkpt lat="48.67769" lon="6.12154">
        <ele>379</ele>
        <time>2012-03-22T13:53:44Z</time>
      </trkpt>
      <trkpt lat="48.6776" lon="6.12154">
        <ele>377</ele>
        <time>2012-03-22T13:53:46Z</time>
      </trkpt>
      <trkpt lat="48.67754" lon="6.12153">
        <ele>376</ele>
        <time>2012-03-22T13:53:48Z</time>
      </trkpt>
      <trkpt lat="48.67745" lon="6.12153">
        <ele>375</ele>
        <time>2012-03-22T13:53:50Z</time>
      </trkpt>
      <trkpt lat="48.67735" lon="6.12156">
        <ele>378</ele>
        <time>2012-03-22T13:53:52Z</time>
      </trkpt>
      <trkpt lat="48.67728" lon="6.12156">
        <ele>377</ele>
        <time>2012-03-22T13:53:54Z</time>
      </trkpt>
      <trkpt lat="48.67722" lon="6.12158">
        <ele>379</ele>
        <time>2012-03-22T13:53:56Z</time>
      </trkpt>
      <trkpt lat="48.67716" lon="6.12158">
        <ele>379</ele>
        <time>2012-03-22T13:53:58Z</time>
      </trkpt>
      <trkpt lat="48.67712" lon="6.12157">
        <ele>377</ele>
        <time>2012-03-22T13:54:00Z</time>
      </trkpt>
      <trkpt lat="48.67709" lon="6.12153">
        <ele>366</ele>
        <time>2012-03-22T13:54:02Z</time>
      </trkpt>
      <trkpt lat="48.67707" lon="6.12148">
        <ele>358</ele>
        <time>2012-03-22T13:54:04Z</time>
      </trkpt>
      <trkpt lat="48.67703" lon="6.12143">
        <ele>358</ele>
        <time>2012-03-22T13:54:06Z</time>
      </trkpt>
      <trkpt lat="48.67696" lon="6.12139">
        <ele>360</ele>
        <time>2012-03-22T13:54:10Z</time>
      </trkpt>
      <trkpt lat="48.67688" lon="6.12137">
        <ele>358</ele>
        <time>2012-03-22T13:54:12Z</time>
      </trkpt>
      <trkpt lat="48.67682" lon="6.12135">
        <ele>354</ele>
        <time>2012-03-22T13:54:14Z</time>
      </trkpt>
      <trkpt lat="48.67675" lon="6.12136">
        <ele>354</ele>
        <time>2012-03-22T13:54:16Z</time>
      </trkpt>
      <trkpt lat="48.67669" lon="6.12139">
        <ele>348</ele>
        <time>2012-03-22T13:54:18Z</time>
      </trkpt>
      <trkpt lat="48.67662" lon="6.12138">
        <ele>347</ele>
        <time>2012-03-22T13:54:20Z</time>
      </trkpt>
      <trkpt lat="48.67656" lon="6.12137">
        <ele>353</ele>
        <time>2012-03-22T13:54:22Z</time>
      </trkpt>
      <trkpt lat="48.67652" lon="6.12138">
        <ele>355</ele>
        <time>2012-03-22T13:54:24Z</time>
      </trkpt>
      <trkpt lat="48.67645" lon="6.1214">
        <ele>357</ele>
        <time>2012-03-22T13:54:26Z</time>
      </trkpt>
      <trkpt lat="48.6764" lon="6.1214">
        <ele>359</ele>
        <time>2012-03-22T13:54:28Z</time>
      </trkpt>
      <trkpt lat="48.67632" lon="6.12141">
        <ele>362</ele>
        <time>2012-03-22T13:54:32Z</time>
      </trkpt>
      <trkpt lat="48.67624" lon="6.12143">
        <ele>361</ele>
        <time>2012-03-22T13:54:36Z</time>
      </trkpt>
      <trkpt lat="48.67621" lon="6.12144">
        <ele>363</ele>
        <time>2012-03-22T13:54:38Z</time>
      </trkpt>
      <trkpt lat="48.6762" lon="6.12145">
        <ele>368</ele>
        <time>2012-03-22T13:54:40Z</time>
      </trkpt>
      <trkpt lat="48.67615" lon="6.12147">
        <ele>366</ele>
        <time>2012-03-22T13:54:42Z</time>
      </trkpt>
      <trkpt lat="48.67611" lon="6.12147">
        <ele>361</ele>
        <time>2012-03-22T13:54:44Z</time>
      </trkpt>
      <trkpt lat="48.67608" lon="6.12146">
        <ele>357</ele>
        <time>2012-03-22T13:54:46Z</time>
      </trkpt>
      <trkpt lat="48.67606" lon="6.12145">
        <ele>354</ele>
        <time>2012-03-22T13:54:48Z</time>
      </trkpt>
      <trkpt lat="48.67601" lon="6.12144">
        <ele>359</ele>
        <time>2012-03-22T13:54:50Z</time>
      </trkpt>
      <trkpt lat="48.67596" lon="6.12146">
        <ele>364</ele>
        <time>2012-03-22T13:54:52Z</time>
      </trkpt>
      <trkpt lat="48.6759" lon="6.12148">
        <ele>362</ele>
        <time>2012-03-22T13:54:54Z</time>
      </trkpt>
      <trkpt lat="48.67586" lon="6.12148">
        <ele>367</ele>
        <time>2012-03-22T13:54:56Z</time>
      </trkpt>
      <trkpt lat="48.67579" lon="6.12148">
        <ele>366</ele>
        <time>2012-03-22T13:54:58Z</time>
      </trkpt>
      <trkpt lat="48.67574" lon="6.12148">
        <ele>362</ele>
        <time>2012-03-22T13:55:00Z</time>
      </trkpt>
      <trkpt lat="48.67569" lon="6.12148">
        <ele>367</ele>
        <time>2012-03-22T13:55:02Z</time>
      </trkpt>
      <trkpt lat="48.67565" lon="6.1215">
        <ele>365</ele>
        <time>2012-03-22T13:55:04Z</time>
      </trkpt>
      <trkpt lat="48.67562" lon="6.12151">
        <ele>363</ele>
        <time>2012-03-22T13:55:06Z</time>
      </trkpt>
      <trkpt lat="48.67558" lon="6.12153">
        <ele>362</ele>
        <time>2012-03-22T13:55:08Z</time>
      </trkpt>
      <trkpt lat="48.67554" lon="6.12155">
        <ele>368</ele>
        <time>2012-03-22T13:55:10Z</time>
      </trkpt>
      <trkpt lat="48.67551" lon="6.12155">
        <ele>371</ele>
        <time>2012-03-22T13:55:12Z</time>
      </trkpt>
      <trkpt lat="48.67548" lon="6.1215">
        <ele>373</ele>
        <time>2012-03-22T13:55:16Z</time>
      </trkpt>
      <trkpt lat="48.67543" lon="6.12148">
        <ele>372</ele>
        <time>2012-03-22T13:55:18Z</time>
      </trkpt>
      <trkpt lat="48.67535" lon="6.12147">
        <ele>369</ele>
        <time>2012-03-22T13:55:20Z</time>
      </trkpt>
      <trkpt lat="48.67528" lon="6.12147">
        <ele>365</ele>
        <time>2012-03-22T13:55:22Z</time>
      </trkpt>
      <trkpt lat="48.67521" lon="6.12147">
        <ele>363</ele>
        <time>2012-03-22T13:55:24Z</time>
      </trkpt>
      <trkpt lat="48.67514" lon="6.12147">
        <ele>360</ele>
        <time>2012-03-22T13:55:26Z</time>
      </trkpt>
      <trkpt lat="48.67507" lon="6.12147">
        <ele>358</ele>
        <time>2012-03-22T13:55:28Z</time>
      </trkpt>
      <trkpt lat="48.675" lon="6.12147">
        <ele>356</ele>
        <time>2012-03-22T13:55:30Z</time>
      </trkpt>
      <trkpt lat="48.67494" lon="6.12148">
        <ele>355</ele>
        <time>2012-03-22T13:55:32Z</time>
      </trkpt>
      <trkpt lat="48.67489" lon="6.12149">
        <ele>354</ele>
        <time>2012-03-22T13:55:34Z</time>
      </trkpt>
      <trkpt lat="48.67485" lon="6.1215">
        <ele>355</ele>
        <time>2012-03-22T13:55:36Z</time>
      </trkpt>
      <trkpt lat="48.67479" lon="6.12151">
        <ele>356</ele>
        <time>2012-03-22T13:55:38Z</time>
      </trkpt>
      <trkpt lat="48.67474" lon="6.12153">
        <ele>354</ele>
        <time>2012-03-22T13:55:40Z</time>
      </trkpt>
      <trkpt lat="48.67468" lon="6.12154">
        <ele>353</ele>
        <time>2012-03-22T13:55:42Z</time>
      </trkpt>
      <trkpt lat="48.67463" lon="6.12156">
        <ele>352</ele>
        <time>2012-03-22T13:55:44Z</time>
      </trkpt>
      <trkpt lat="48.67457" lon="6.12157">
        <ele>353</ele>
        <time>2012-03-22T13:55:46Z</time>
      </trkpt>
      <trkpt lat="48.67451" lon="6.12159">
        <ele>358</ele>
        <time>2012-03-22T13:55:48Z</time>
      </trkpt>
      <trkpt lat="48.67446" lon="6.12161">
        <ele>357</ele>
        <time>2012-03-22T13:55:50Z</time>
      </trkpt>
      <trkpt lat="48.6744" lon="6.12163">
        <ele>363</ele>
        <time>2012-03-22T13:55:52Z</time>
      </trkpt>
      <trkpt lat="48.67434" lon="6.12164">
        <ele>364</ele>
        <time>2012-03-22T13:55:54Z</time>
      </trkpt>
      <trkpt lat="48.67428" lon="6.12166">
        <ele>365</ele>
        <time>2012-03-22T13:55:56Z</time>
      </trkpt>
      <trkpt lat="48.67421" lon="6.12168">
        <ele>362</ele>
        <time>2012-03-22T13:55:58Z</time>
      </trkpt>
      <trkpt lat="48.67414" lon="6.1217">
        <ele>363</ele>
        <time>2012-03-22T13:56:00Z</time>
      </trkpt>
      <trkpt lat="48.67409" lon="6.1217">
        <ele>358</ele>
        <time>2012-03-22T13:56:02Z</time>
      </trkpt>
      <trkpt lat="48.67406" lon="6.12168">
        <ele>357</ele>
        <time>2012-03-22T13:56:04Z</time>
      </trkpt>
      <trkpt lat="48.67403" lon="6.12163">
        <ele>355</ele>
        <time>2012-03-22T13:56:06Z</time>
      </trkpt>
      <trkpt lat="48.67402" lon="6.12156">
        <ele>353</ele>
        <time>2012-03-22T13:56:08Z</time>
      </trkpt>
      <trkpt lat="48.67402" lon="6.1215">
        <ele>354</ele>
        <time>2012-03-22T13:56:10Z</time>
      </trkpt>
      <trkpt lat="48.674" lon="6.12143">
        <ele>361</ele>
        <time>2012-03-22T13:56:12Z</time>
      </trkpt>
      <trkpt lat="48.67399" lon="6.12138">
        <ele>358</ele>
        <time>2012-03-22T13:56:14Z</time>
      </trkpt>
      <trkpt lat="48.67397" lon="6.12133">
        <ele>360</ele>
        <time>2012-03-22T13:56:16Z</time>
      </trkpt>
      <trkpt lat="48.67395" lon="6.12125">
        <ele>363</ele>
        <time>2012-03-22T13:56:18Z</time>
      </trkpt>
      <trkpt lat="48.67393" lon="6.12116">
        <ele>363</ele>
        <time>2012-03-22T13:56:20Z</time>
      </trkpt>
      <trkpt lat="48.67391" lon="6.12107">
        <ele>359</ele>
        <time>2012-03-22T13:56:22Z</time>
      </trkpt>
      <trkpt lat="48.67391" lon="6.12097">
        <ele>357</ele>
        <time>2012-03-22T13:56:24Z</time>
      </trkpt>
      <trkpt lat="48.67392" lon="6.12083">
        <ele>353</ele>
        <time>2012-03-22T13:56:26Z</time>
      </trkpt>
      <trkpt lat="48.67392" lon="6.12071">
        <ele>356</ele>
        <time>2012-03-22T13:56:28Z</time>
      </trkpt>
      <trkpt lat="48.67394" lon="6.12058">
        <ele>358</ele>
        <time>2012-03-22T13:56:30Z</time>
      </trkpt>
      <trkpt lat="48.67392" lon="6.12042">
        <ele>361</ele>
        <time>2012-03-22T13:56:32Z</time>
      </trkpt>
      <trkpt lat="48.67392" lon="6.12028">
        <ele>362</ele>
        <time>2012-03-22T13:56:34Z</time>
      </trkpt>
      <trkpt lat="48.67393" lon="6.1201">
        <ele>362</ele>
        <time>2012-03-22T13:56:36Z</time>
      </trkpt>
      <trkpt lat="48.67394" lon="6.11996">
        <ele>359</ele>
        <time>2012-03-22T13:56:38Z</time>
      </trkpt>
      <trkpt lat="48.67394" lon="6.11982">
        <ele>361</ele>
        <time>2012-03-22T13:56:40Z</time>
      </trkpt>
      <trkpt lat="48.67394" lon="6.11971">
        <ele>366</ele>
        <time>2012-03-22T13:56:42Z</time>
      </trkpt>
      <trkpt lat="48.67394" lon="6.11959">
        <ele>367</ele>
        <time>2012-03-22T13:56:44Z</time>
      </trkpt>
      <trkpt lat="48.67394" lon="6.11949">
        <ele>370</ele>
        <time>2012-03-22T13:56:46Z</time>
      </trkpt>
      <trkpt lat="48.67395" lon="6.11938">
        <ele>367</ele>
        <time>2012-03-22T13:56:48Z</time>
      </trkpt>
      <trkpt lat="48.67397" lon="6.11928">
        <ele>371</ele>
        <time>2012-03-22T13:56:50Z</time>
      </trkpt>
      <trkpt lat="48.674" lon="6.11912">
        <ele>375</ele>
        <time>2012-03-22T13:56:52Z</time>
      </trkpt>
      <trkpt lat="48.67403" lon="6.11898">
        <ele>373</ele>
        <time>2012-03-22T13:56:54Z</time>
      </trkpt>
      <trkpt lat="48.67404" lon="6.11886">
        <ele>376</ele>
        <time>2012-03-22T13:56:56Z</time>
      </trkpt>
      <trkpt lat="48.67405" lon="6.11875">
        <ele>376</ele>
        <time>2012-03-22T13:56:58Z</time>
      </trkpt>
      <trkpt lat="48.67406" lon="6.11865">
        <ele>381</ele>
        <time>2012-03-22T13:57:00Z</time>
      </trkpt>
      <trkpt lat="48.67407" lon="6.11855">
        <ele>373</ele>
        <time>2012-03-22T13:57:02Z</time>
      </trkpt>
      <trkpt lat="48.67409" lon="6.11844">
        <ele>373</ele>
        <time>2012-03-22T13:57:04Z</time>
      </trkpt>
      <trkpt lat="48.67411" lon="6.11832">
        <ele>373</ele>
        <time>2012-03-22T13:57:06Z</time>
      </trkpt>
      <trkpt lat="48.67415" lon="6.11818">
        <ele>376</ele>
        <time>2012-03-22T13:57:08Z</time>
      </trkpt>
      <trkpt lat="48.67417" lon="6.11808">
        <ele>372</ele>
        <time>2012-03-22T13:57:10Z</time>
      </trkpt>
      <trkpt lat="48.67416" lon="6.11794">
        <ele>371</ele>
        <time>2012-03-22T13:57:12Z</time>
      </trkpt>
      <trkpt lat="48.67415" lon="6.11782">
        <ele>369</ele>
        <time>2012-03-22T13:57:14Z</time>
      </trkpt>
      <trkpt lat="48.67417" lon="6.11768">
        <ele>372</ele>
        <time>2012-03-22T13:57:16Z</time>
      </trkpt>
      <trkpt lat="48.67419" lon="6.11759">
        <ele>367</ele>
        <time>2012-03-22T13:57:18Z</time>
      </trkpt>
      <trkpt lat="48.6742" lon="6.11748">
        <ele>363</ele>
        <time>2012-03-22T13:57:20Z</time>
      </trkpt>
      <trkpt lat="48.67421" lon="6.11739">
        <ele>363</ele>
        <time>2012-03-22T13:57:22Z</time>
      </trkpt>
      <trkpt lat="48.6742" lon="6.11728">
        <ele>366</ele>
        <time>2012-03-22T13:57:24Z</time>
      </trkpt>
      <trkpt lat="48.67419" lon="6.11716">
        <ele>369</ele>
        <time>2012-03-22T13:57:26Z</time>
      </trkpt>
      <trkpt lat="48.6742" lon="6.11704">
        <ele>371</ele>
        <time>2012-03-22T13:57:28Z</time>
      </trkpt>
      <trkpt lat="48.67421" lon="6.11693">
        <ele>369</ele>
        <time>2012-03-22T13:57:30Z</time>
      </trkpt>
      <trkpt lat="48.67421" lon="6.11684">
        <ele>368</ele>
        <time>2012-03-22T13:57:32Z</time>
      </trkpt>
      <trkpt lat="48.67422" lon="6.11676">
        <ele>367</ele>
        <time>2012-03-22T13:57:34Z</time>
      </trkpt>
      <trkpt lat="48.67422" lon="6.11663">
        <ele>364</ele>
        <time>2012-03-22T13:57:36Z</time>
      </trkpt>
      <trkpt lat="48.67421" lon="6.11648">
        <ele>364</ele>
        <time>2012-03-22T13:57:38Z</time>
      </trkpt>
      <trkpt lat="48.67424" lon="6.11634">
        <ele>365</ele>
        <time>2012-03-22T13:57:40Z</time>
      </trkpt>
      <trkpt lat="48.67423" lon="6.11621">
        <ele>361</ele>
        <time>2012-03-22T13:57:42Z</time>
      </trkpt>
      <trkpt lat="48.67424" lon="6.11609">
        <ele>366</ele>
        <time>2012-03-22T13:57:44Z</time>
      </trkpt>
      <trkpt lat="48.67422" lon="6.116">
        <ele>366</ele>
        <time>2012-03-22T13:57:46Z</time>
      </trkpt>
      <trkpt lat="48.67421" lon="6.11589">
        <ele>366</ele>
        <time>2012-03-22T13:57:48Z</time>
      </trkpt>
      <trkpt lat="48.67423" lon="6.11572">
        <ele>365</ele>
        <time>2012-03-22T13:57:50Z</time>
      </trkpt>
      <trkpt lat="48.67426" lon="6.11557">
        <ele>365</ele>
        <time>2012-03-22T13:57:52Z</time>
      </trkpt>
      <trkpt lat="48.67429" lon="6.11549">
        <ele>366</ele>
        <time>2012-03-22T13:57:54Z</time>
      </trkpt>
      <trkpt lat="48.67431" lon="6.11542">
        <ele>371</ele>
        <time>2012-03-22T13:57:56Z</time>
      </trkpt>
      <trkpt lat="48.67432" lon="6.11537">
        <ele>370</ele>
        <time>2012-03-22T13:57:58Z</time>
      </trkpt>
      <trkpt lat="48.67435" lon="6.11533">
        <ele>367</ele>
        <time>2012-03-22T13:58:06Z</time>
      </trkpt>
      <trkpt lat="48.67435" lon="6.11528">
        <ele>359</ele>
        <time>2012-03-22T13:58:08Z</time>
      </trkpt>
      <trkpt lat="48.67437" lon="6.11522">
        <ele>349</ele>
        <time>2012-03-22T13:58:10Z</time>
      </trkpt>
      <trkpt lat="48.67437" lon="6.1152">
        <ele>353</ele>
        <time>2012-03-22T13:58:12Z</time>
      </trkpt>
      <trkpt lat="48.67438" lon="6.11518">
        <ele>353</ele>
        <time>2012-03-22T13:58:14Z</time>
      </trkpt>
      <trkpt lat="48.67439" lon="6.11515">
        <ele>348</ele>
        <time>2012-03-22T13:58:16Z</time>
      </trkpt>
      <trkpt lat="48.6744" lon="6.11513">
        <ele>349</ele>
        <time>2012-03-22T13:58:18Z</time>
      </trkpt>
      <trkpt lat="48.6744" lon="6.11509">
        <ele>348</ele>
        <time>2012-03-22T13:58:20Z</time>
      </trkpt>
      <trkpt lat="48.6744" lon="6.11506">
        <ele>347</ele>
        <time>2012-03-22T13:58:22Z</time>
      </trkpt>
      <trkpt lat="48.67439" lon="6.11504">
        <ele>347</ele>
        <time>2012-03-22T13:58:24Z</time>
      </trkpt>
      <trkpt lat="48.67439" lon="6.11501">
        <ele>345</ele>
        <time>2012-03-22T13:58:28Z</time>
      </trkpt>
      <trkpt lat="48.67439" lon="6.11499">
        <ele>343</ele>
        <time>2012-03-22T13:58:30Z</time>
      </trkpt>
      <trkpt lat="48.67437" lon="6.11488">
        <ele>342</ele>
        <time>2012-03-22T13:58:40Z</time>
      </trkpt>
      <trkpt lat="48.67438" lon="6.11484">
        <ele>337</ele>
        <time>2012-03-22T13:58:46Z</time>
      </trkpt>
      <trkpt lat="48.6744" lon="6.11482">
        <ele>330</ele>
        <time>2012-03-22T13:58:48Z</time>
      </trkpt>
      <trkpt lat="48.67439" lon="6.11481">
        <ele>328</ele>
        <time>2012-03-22T13:58:50Z</time>
      </trkpt>
      <trkpt lat="48.6744" lon="6.11477">
        <ele>325</ele>
        <time>2012-03-22T13:58:52Z</time>
      </trkpt>
      <trkpt lat="48.67442" lon="6.11472">
        <ele>316</ele>
        <time>2012-03-22T13:58:56Z</time>
      </trkpt>
      <trkpt lat="48.67443" lon="6.1147">
        <ele>318</ele>
        <time>2012-03-22T13:59:00Z</time>
      </trkpt>
      <trkpt lat="48.67444" lon="6.11463">
        <ele>323</ele>
        <time>2012-03-22T13:59:04Z</time>
      </trkpt>
      <trkpt lat="48.67444" lon="6.11457">
        <ele>327</ele>
        <time>2012-03-22T13:59:08Z</time>
      </trkpt>
      <trkpt lat="48.67444" lon="6.11453">
        <ele>322</ele>
        <time>2012-03-22T13:59:10Z</time>
      </trkpt>
      <trkpt lat="48.67444" lon="6.11452">
        <ele>322</ele>
        <time>2012-03-22T13:59:12Z</time>
      </trkpt>
      <trkpt lat="48.67445" lon="6.11451">
        <ele>318</ele>
        <time>2012-03-22T13:59:14Z</time>
      </trkpt>
      <trkpt lat="48.67445" lon="6.1145">
        <ele>319</ele>
        <time>2012-03-22T13:59:16Z</time>
      </trkpt>
      <trkpt lat="48.67444" lon="6.1145">
        <ele>317</ele>
        <time>2012-03-22T13:59:22Z</time>
      </trkpt>
      <trkpt lat="48.67444" lon="6.1145">
        <ele>312</ele>
        <time>2012-03-22T13:59:26Z</time>
      </trkpt>
      <trkpt lat="48.67449" lon="6.11443">
        <ele>312</ele>
        <time>2012-03-22T13:59:46Z</time>
      </trkpt>
      <trkpt lat="48.67447" lon="6.11441">
        <ele>312</ele>
        <time>2012-03-22T14:00:16Z</time>
      </trkpt>
      <trkpt lat="48.67446" lon="6.11434">
        <ele>304</ele>
        <time>2012-03-22T14:01:02Z</time>
      </trkpt>
      <trkpt lat="48.67447" lon="6.11433">
        <ele>302</ele>
        <time>2012-03-22T14:01:04Z</time>
      </trkpt>
      <trkpt lat="48.67447" lon="6.11432">
        <ele>301</ele>
        <time>2012-03-22T14:01:08Z</time>
      </trkpt>
      <trkpt lat="48.67443" lon="6.11437">
        <ele>308</ele>
        <time>2012-03-22T14:01:50Z</time>
      </trkpt>
      <trkpt lat="48.67443" lon="6.11439">
        <ele>299</ele>
        <time>2012-03-22T14:01:52Z</time>
      </trkpt>
      <trkpt lat="48.67442" lon="6.11439">
        <ele>300</ele>
        <time>2012-03-22T14:01:54Z</time>
      </trkpt>
      <trkpt lat="48.67441" lon="6.11438">
        <ele>304</ele>
        <time>2012-03-22T14:01:56Z</time>
      </trkpt>
      <trkpt lat="48.6744" lon="6.11436">
        <ele>300</ele>
        <time>2012-03-22T14:01:58Z</time>
      </trkpt>
      <trkpt lat="48.67439" lon="6.11437">
        <ele>304</ele>
        <time>2012-03-22T14:02:04Z</time>
      </trkpt>
      <trkpt lat="48.67439" lon="6.11436">
        <ele>315</ele>
        <time>2012-03-22T14:02:12Z</time>
      </trkpt>
      <trkpt lat="48.67412" lon="6.11447">
        <ele>311</ele>
        <time>2012-03-22T14:08:32Z</time>
      </trkpt>
      <trkpt lat="48.67432" lon="6.11441">
        <ele>310</ele>
        <time>2012-03-22T14:08:42Z</time>
      </trkpt>
      <trkpt lat="48.67437" lon="6.11439">
        <ele>308</ele>
        <time>2012-03-22T14:08:44Z</time>
      </trkpt>
      <trkpt lat="48.67444" lon="6.1144">
        <ele>304</ele>
        <time>2012-03-22T14:08:46Z</time>
      </trkpt>
      <trkpt lat="48.67451" lon="6.11441">
        <ele>303</ele>
        <time>2012-03-22T14:08:48Z</time>
      </trkpt>
      <trkpt lat="48.67456" lon="6.11441">
        <ele>300</ele>
        <time>2012-03-22T14:08:50Z</time>
      </trkpt>
      <trkpt lat="48.67462" lon="6.11439">
        <ele>302</ele>
        <time>2012-03-22T14:08:52Z</time>
      </trkpt>
      <trkpt lat="48.67474" lon="6.11437">
        <ele>296</ele>
        <time>2012-03-22T14:08:56Z</time>
      </trkpt>
      <trkpt lat="48.67482" lon="6.11436">
        <ele>293</ele>
        <time>2012-03-22T14:08:58Z</time>
      </trkpt>
      <trkpt lat="48.67491" lon="6.11435">
        <ele>293</ele>
        <time>2012-03-22T14:09:00Z</time>
      </trkpt>
      <trkpt lat="48.67499" lon="6.11435">
        <ele>293</ele>
        <time>2012-03-22T14:09:02Z</time>
      </trkpt>
      <trkpt lat="48.67507" lon="6.11435">
        <ele>292</ele>
        <time>2012-03-22T14:09:04Z</time>
      </trkpt>
      <trkpt lat="48.67515" lon="6.11432">
        <ele>294</ele>
        <time>2012-03-22T14:09:06Z</time>
      </trkpt>
      <trkpt lat="48.67522" lon="6.11432">
        <ele>293</ele>
        <time>2012-03-22T14:09:08Z</time>
      </trkpt>
      <trkpt lat="48.67529" lon="6.11431">
        <ele>292</ele>
        <time>2012-03-22T14:09:10Z</time>
      </trkpt>
      <trkpt lat="48.67534" lon="6.11431">
        <ele>293</ele>
        <time>2012-03-22T14:09:12Z</time>
      </trkpt>
      <trkpt lat="48.67541" lon="6.11431">
        <ele>296</ele>
        <time>2012-03-22T14:09:14Z</time>
      </trkpt>
      <trkpt lat="48.67548" lon="6.11432">
        <ele>294</ele>
        <time>2012-03-22T14:09:16Z</time>
      </trkpt>
      <trkpt lat="48.67555" lon="6.11432">
        <ele>295</ele>
        <time>2012-03-22T14:09:18Z</time>
      </trkpt>
      <trkpt lat="48.67562" lon="6.11432">
        <ele>294</ele>
        <time>2012-03-22T14:09:20Z</time>
      </trkpt>
      <trkpt lat="48.6757" lon="6.11431">
        <ele>296</ele>
        <time>2012-03-22T14:09:22Z</time>
      </trkpt>
      <trkpt lat="48.67578" lon="6.11431">
        <ele>297</ele>
        <time>2012-03-22T14:09:24Z</time>
      </trkpt>
      <trkpt lat="48.67585" lon="6.11432">
        <ele>293</ele>
        <time>2012-03-22T14:09:26Z</time>
      </trkpt>
      <trkpt lat="48.6759" lon="6.1143">
        <ele>294</ele>
        <time>2012-03-22T14:09:28Z</time>
      </trkpt>
      <trkpt lat="48.67596" lon="6.1143">
        <ele>297</ele>
        <time>2012-03-22T14:09:30Z</time>
      </trkpt>
      <trkpt lat="48.67602" lon="6.11429">
        <ele>295</ele>
        <time>2012-03-22T14:09:32Z</time>
      </trkpt>
      <trkpt lat="48.67609" lon="6.11429">
        <ele>293</ele>
        <time>2012-03-22T14:09:34Z</time>
      </trkpt>
      <trkpt lat="48.67617" lon="6.11428">
        <ele>298</ele>
        <time>2012-03-22T14:09:36Z</time>
      </trkpt>
      <trkpt lat="48.67625" lon="6.11427">
        <ele>296</ele>
        <time>2012-03-22T14:09:38Z</time>
      </trkpt>
      <trkpt lat="48.67633" lon="6.11425">
        <ele>299</ele>
        <time>2012-03-22T14:09:40Z</time>
      </trkpt>
      <trkpt lat="48.67643" lon="6.11423">
        <ele>302</ele>
        <time>2012-03-22T14:09:42Z</time>
      </trkpt>
      <trkpt lat="48.67653" lon="6.1142">
        <ele>302</ele>
        <time>2012-03-22T14:09:44Z</time>
      </trkpt>
      <trkpt lat="48.67662" lon="6.11418">
        <ele>301</ele>
        <time>2012-03-22T14:09:46Z</time>
      </trkpt>
      <trkpt lat="48.67669" lon="6.11417">
        <ele>299</ele>
        <time>2012-03-22T14:09:48Z</time>
      </trkpt>
      <trkpt lat="48.67675" lon="6.11417">
        <ele>305</ele>
        <time>2012-03-22T14:09:50Z</time>
      </trkpt>
      <trkpt lat="48.6768" lon="6.11421">
        <ele>306</ele>
        <time>2012-03-22T14:09:52Z</time>
      </trkpt>
      <trkpt lat="48.67684" lon="6.11424">
        <ele>305</ele>
        <time>2012-03-22T14:09:54Z</time>
      </trkpt>
      <trkpt lat="48.6769" lon="6.11428">
        <ele>310</ele>
        <time>2012-03-22T14:09:56Z</time>
      </trkpt>
      <trkpt lat="48.67693" lon="6.11433">
        <ele>314</ele>
        <time>2012-03-22T14:09:58Z</time>
      </trkpt>
      <trkpt lat="48.67696" lon="6.11439">
        <ele>312</ele>
        <time>2012-03-22T14:10:00Z</time>
      </trkpt>
      <trkpt lat="48.67701" lon="6.11444">
        <ele>312</ele>
        <time>2012-03-22T14:10:02Z</time>
      </trkpt>
      <trkpt lat="48.67706" lon="6.11448">
        <ele>314</ele>
        <time>2012-03-22T14:10:04Z</time>
      </trkpt>
      <trkpt lat="48.67714" lon="6.11448">
        <ele>314</ele>
        <time>2012-03-22T14:10:06Z</time>
      </trkpt>
      <trkpt lat="48.6772" lon="6.11448">
        <ele>316</ele>
        <time>2012-03-22T14:10:08Z</time>
      </trkpt>
      <trkpt lat="48.6773" lon="6.11448">
        <ele>315</ele>
        <time>2012-03-22T14:10:10Z</time>
      </trkpt>
      <trkpt lat="48.6774" lon="6.11451">
        <ele>318</ele>
        <time>2012-03-22T14:10:12Z</time>
      </trkpt>
      <trkpt lat="48.67747" lon="6.11454">
        <ele>316</ele>
        <time>2012-03-22T14:10:14Z</time>
      </trkpt>
      <trkpt lat="48.67753" lon="6.11456">
        <ele>311</ele>
        <time>2012-03-22T14:10:16Z</time>
      </trkpt>
      <trkpt lat="48.67762" lon="6.11455">
        <ele>312</ele>
        <time>2012-03-22T14:10:20Z</time>
      </trkpt>
      <trkpt lat="48.67768" lon="6.1145">
        <ele>313</ele>
        <time>2012-03-22T14:10:22Z</time>
      </trkpt>
      <trkpt lat="48.67772" lon="6.11449">
        <ele>310</ele>
        <time>2012-03-22T14:10:24Z</time>
      </trkpt>
      <trkpt lat="48.67775" lon="6.11448">
        <ele>308</ele>
        <time>2012-03-22T14:10:26Z</time>
      </trkpt>
      <trkpt lat="48.67777" lon="6.11448">
        <ele>310</ele>
        <time>2012-03-22T14:10:30Z</time>
      </trkpt>
      <trkpt lat="48.67779" lon="6.11448">
        <ele>309</ele>
        <time>2012-03-22T14:10:32Z</time>
      </trkpt>
      <trkpt lat="48.67781" lon="6.11449">
        <ele>305</ele>
        <time>2012-03-22T14:10:34Z</time>
      </trkpt>
      <trkpt lat="48.67784" lon="6.11449">
        <ele>306</ele>
        <time>2012-03-22T14:10:36Z</time>
      </trkpt>
      <trkpt lat="48.67789" lon="6.11449">
        <ele>308</ele>
        <time>2012-03-22T14:10:38Z</time>
      </trkpt>
      <trkpt lat="48.67793" lon="6.11449">
        <ele>309</ele>
        <time>2012-03-22T14:10:40Z</time>
      </trkpt>
      <trkpt lat="48.67797" lon="6.11447">
        <ele>309</ele>
        <time>2012-03-22T14:10:42Z</time>
      </trkpt>
      <trkpt lat="48.67799" lon="6.11448">
        <ele>311</ele>
        <time>2012-03-22T14:10:44Z</time>
      </trkpt>
      <trkpt lat="48.67803" lon="6.11449">
        <ele>313</ele>
        <time>2012-03-22T14:10:46Z</time>
      </trkpt>
      <trkpt lat="48.67806" lon="6.11449">
        <ele>312</ele>
        <time>2012-03-22T14:10:48Z</time>
      </trkpt>
      <trkpt lat="48.6781" lon="6.1145">
        <ele>314</ele>
        <time>2012-03-22T14:10:50Z</time>
      </trkpt>
      <trkpt lat="48.67813" lon="6.11451">
        <ele>314</ele>
        <time>2012-03-22T14:10:52Z</time>
      </trkpt>
      <trkpt lat="48.67817" lon="6.11457">
        <ele>317</ele>
        <time>2012-03-22T14:10:56Z</time>
      </trkpt>
      <trkpt lat="48.6782" lon="6.11458">
        <ele>316</ele>
        <time>2012-03-22T14:10:58Z</time>
      </trkpt>
      <trkpt lat="48.67825" lon="6.11457">
        <ele>314</ele>
        <time>2012-03-22T14:11:00Z</time>
      </trkpt>
      <trkpt lat="48.67834" lon="6.1146">
        <ele>312</ele>
        <time>2012-03-22T14:11:04Z</time>
      </trkpt>
      <trkpt lat="48.67838" lon="6.11462">
        <ele>311</ele>
        <time>2012-03-22T14:11:06Z</time>
      </trkpt>
      <trkpt lat="48.67841" lon="6.11463">
        <ele>310</ele>
        <time>2012-03-22T14:11:08Z</time>
      </trkpt>
      <trkpt lat="48.67844" lon="6.11463">
        <ele>311</ele>
        <time>2012-03-22T14:11:10Z</time>
      </trkpt>
      <trkpt lat="48.67847" lon="6.11462">
        <ele>307</ele>
        <time>2012-03-22T14:11:12Z</time>
      </trkpt>
      <trkpt lat="48.6785" lon="6.11462">
        <ele>304</ele>
        <time>2012-03-22T14:11:14Z</time>
      </trkpt>
      <trkpt lat="48.67855" lon="6.1146">
        <ele>306</ele>
        <time>2012-03-22T14:11:16Z</time>
      </trkpt>
      <trkpt lat="48.67864" lon="6.11456">
        <ele>313</ele>
        <time>2012-03-22T14:11:20Z</time>
      </trkpt>
      <trkpt lat="48.67868" lon="6.11453">
        <ele>315</ele>
        <time>2012-03-22T14:11:22Z</time>
      </trkpt>
      <trkpt lat="48.67872" lon="6.1145">
        <ele>319</ele>
        <time>2012-03-22T14:11:24Z</time>
      </trkpt>
      <trkpt lat="48.67877" lon="6.11443">
        <ele>326</ele>
        <time>2012-03-22T14:11:26Z</time>
      </trkpt>
      <trkpt lat="48.67879" lon="6.11435">
        <ele>327</ele>
        <time>2012-03-22T14:11:28Z</time>
      </trkpt>
      <trkpt lat="48.67881" lon="6.11427">
        <ele>329</ele>
        <time>2012-03-22T14:11:30Z</time>
      </trkpt>
      <trkpt lat="48.67883" lon="6.1142">
        <ele>328</ele>
        <time>2012-03-22T14:11:32Z</time>
      </trkpt>
      <trkpt lat="48.67884" lon="6.11414">
        <ele>329</ele>
        <time>2012-03-22T14:11:34Z</time>
      </trkpt>
      <trkpt lat="48.67885" lon="6.11409">
        <ele>328</ele>
        <time>2012-03-22T14:11:36Z</time>
      </trkpt>
      <trkpt lat="48.67884" lon="6.11405">
        <ele>330</ele>
        <time>2012-03-22T14:11:38Z</time>
      </trkpt>
      <trkpt lat="48.67885" lon="6.11399">
        <ele>333</ele>
        <time>2012-03-22T14:11:40Z</time>
      </trkpt>
      <trkpt lat="48.67886" lon="6.11393">
        <ele>334</ele>
        <time>2012-03-22T14:11:42Z</time>
      </trkpt>
      <trkpt lat="48.67885" lon="6.11385">
        <ele>335</ele>
        <time>2012-03-22T14:11:44Z</time>
      </trkpt>
      <trkpt lat="48.67884" lon="6.11379">
        <ele>336</ele>
        <time>2012-03-22T14:11:46Z</time>
      </trkpt>
      <trkpt lat="48.67884" lon="6.11371">
        <ele>336</ele>
        <time>2012-03-22T14:11:48Z</time>
      </trkpt>
      <trkpt lat="48.67883" lon="6.11362">
        <ele>335</ele>
        <time>2012-03-22T14:11:50Z</time>
      </trkpt>
      <trkpt lat="48.67883" lon="6.11354">
        <ele>334</ele>
        <time>2012-03-22T14:11:52Z</time>
      </trkpt>
      <trkpt lat="48.67883" lon="6.11347">
        <ele>334</ele>
        <time>2012-03-22T14:11:54Z</time>
      </trkpt>
      <trkpt lat="48.67883" lon="6.1134">
        <ele>330</ele>
        <time>2012-03-22T14:11:56Z</time>
      </trkpt>
      <trkpt lat="48.67885" lon="6.11332">
        <ele>331</ele>
        <time>2012-03-22T14:11:58Z</time>
      </trkpt>
      <trkpt lat="48.67885" lon="6.11322">
        <ele>332</ele>
        <time>2012-03-22T14:12:00Z</time>
      </trkpt>
      <trkpt lat="48.67884" lon="6.11312">
        <ele>334</ele>
        <time>2012-03-22T14:12:02Z</time>
      </trkpt>
      <trkpt lat="48.67882" lon="6.11304">
        <ele>334</ele>
        <time>2012-03-22T14:12:04Z</time>
      </trkpt>
      <trkpt lat="48.67881" lon="6.11298">
        <ele>333</ele>
        <time>2012-03-22T14:12:06Z</time>
      </trkpt>
      <trkpt lat="48.67881" lon="6.11292">
        <ele>332</ele>
        <time>2012-03-22T14:12:08Z</time>
      </trkpt>
      <trkpt lat="48.67881" lon="6.11285">
        <ele>331</ele>
        <time>2012-03-22T14:12:10Z</time>
      </trkpt>
      <trkpt lat="48.6788" lon="6.11279">
        <ele>331</ele>
        <time>2012-03-22T14:12:12Z</time>
      </trkpt>
      <trkpt lat="48.67879" lon="6.11273">
        <ele>331</ele>
        <time>2012-03-22T14:12:14Z</time>
      </trkpt>
      <trkpt lat="48.67879" lon="6.11267">
        <ele>332</ele>
        <time>2012-03-22T14:12:16Z</time>
      </trkpt>
      <trkpt lat="48.67879" lon="6.1126">
        <ele>330</ele>
        <time>2012-03-22T14:12:18Z</time>
      </trkpt>
      <trkpt lat="48.67878" lon="6.11252">
        <ele>332</ele>
        <time>2012-03-22T14:12:20Z</time>
      </trkpt>
      <trkpt lat="48.67877" lon="6.11245">
        <ele>331</ele>
        <time>2012-03-22T14:12:22Z</time>
      </trkpt>
      <trkpt lat="48.67879" lon="6.11238">
        <ele>332</ele>
        <time>2012-03-22T14:12:24Z</time>
      </trkpt>
      <trkpt lat="48.67878" lon="6.11231">
        <ele>332</ele>
        <time>2012-03-22T14:12:26Z</time>
      </trkpt>
      <trkpt lat="48.67876" lon="6.11224">
        <ele>334</ele>
        <time>2012-03-22T14:12:28Z</time>
      </trkpt>
      <trkpt lat="48.67875" lon="6.11217">
        <ele>335</ele>
        <time>2012-03-22T14:12:30Z</time>
      </trkpt>
      <trkpt lat="48.67873" lon="6.11211">
        <ele>335</ele>
        <time>2012-03-22T14:12:32Z</time>
      </trkpt>
      <trkpt lat="48.6787" lon="6.11207">
        <ele>334</ele>
        <time>2012-03-22T14:12:34Z</time>
      </trkpt>
      <trkpt lat="48.67868" lon="6.11202">
        <ele>335</ele>
        <time>2012-03-22T14:12:36Z</time>
      </trkpt>
      <trkpt lat="48.67866" lon="6.11196">
        <ele>333</ele>
        <time>2012-03-22T14:12:38Z</time>
      </trkpt>
      <trkpt lat="48.67865" lon="6.1119">
        <ele>336</ele>
        <time>2012-03-22T14:12:40Z</time>
      </trkpt>
      <trkpt lat="48.67864" lon="6.11183">
        <ele>337</ele>
        <time>2012-03-22T14:12:42Z</time>
      </trkpt>
      <trkpt lat="48.67864" lon="6.11173">
        <ele>340</ele>
        <time>2012-03-22T14:12:44Z</time>
      </trkpt>
      <trkpt lat="48.67865" lon="6.11164">
        <ele>336</ele>
        <time>2012-03-22T14:12:46Z</time>
      </trkpt>
      <trkpt lat="48.67864" lon="6.11155">
        <ele>332</ele>
        <time>2012-03-22T14:12:48Z</time>
      </trkpt>
      <trkpt lat="48.67865" lon="6.11146">
        <ele>331</ele>
        <time>2012-03-22T14:12:50Z</time>
      </trkpt>
      <trkpt lat="48.67865" lon="6.1114">
        <ele>331</ele>
        <time>2012-03-22T14:12:52Z</time>
      </trkpt>
      <trkpt lat="48.67866" lon="6.11133">
        <ele>330</ele>
        <time>2012-03-22T14:12:54Z</time>
      </trkpt>
      <trkpt lat="48.67865" lon="6.11127">
        <ele>327</ele>
        <time>2012-03-22T14:12:56Z</time>
      </trkpt>
      <trkpt lat="48.67865" lon="6.11122">
        <ele>330</ele>
        <time>2012-03-22T14:12:58Z</time>
      </trkpt>
      <trkpt lat="48.67865" lon="6.11116">
        <ele>333</ele>
        <time>2012-03-22T14:13:00Z</time>
      </trkpt>
      <trkpt lat="48.67864" lon="6.11111">
        <ele>336</ele>
        <time>2012-03-22T14:13:02Z</time>
      </trkpt>
      <trkpt lat="48.67864" lon="6.11106">
        <ele>335</ele>
        <time>2012-03-22T14:13:04Z</time>
      </trkpt>
      <trkpt lat="48.67863" lon="6.11101">
        <ele>338</ele>
        <time>2012-03-22T14:13:06Z</time>
      </trkpt>
      <trkpt lat="48.6786" lon="6.11095">
        <ele>340</ele>
        <time>2012-03-22T14:13:08Z</time>
      </trkpt>
      <trkpt lat="48.67859" lon="6.11088">
        <ele>338</ele>
        <time>2012-03-22T14:13:10Z</time>
      </trkpt>
      <trkpt lat="48.67857" lon="6.11083">
        <ele>339</ele>
        <time>2012-03-22T14:13:12Z</time>
      </trkpt>
      <trkpt lat="48.67856" lon="6.11077">
        <ele>341</ele>
        <time>2012-03-22T14:13:14Z</time>
      </trkpt>
      <trkpt lat="48.67856" lon="6.1107">
        <ele>346</ele>
        <time>2012-03-22T14:13:16Z</time>
      </trkpt>
      <trkpt lat="48.67856" lon="6.11062">
        <ele>346</ele>
        <time>2012-03-22T14:13:18Z</time>
      </trkpt>
      <trkpt lat="48.67855" lon="6.11056">
        <ele>344</ele>
        <time>2012-03-22T14:13:20Z</time>
      </trkpt>
      <trkpt lat="48.67852" lon="6.11051">
        <ele>345</ele>
        <time>2012-03-22T14:13:22Z</time>
      </trkpt>
      <trkpt lat="48.67851" lon="6.11046">
        <ele>346</ele>
        <time>2012-03-22T14:13:24Z</time>
      </trkpt>
      <trkpt lat="48.67849" lon="6.1104">
        <ele>351</ele>
        <time>2012-03-22T14:13:26Z</time>
      </trkpt>
      <trkpt lat="48.67847" lon="6.11032">
        <ele>352</ele>
        <time>2012-03-22T14:13:28Z</time>
      </trkpt>
      <trkpt lat="48.67846" lon="6.11023">
        <ele>353</ele>
        <time>2012-03-22T14:13:30Z</time>
      </trkpt>
      <trkpt lat="48.67845" lon="6.11018">
        <ele>350</ele>
        <time>2012-03-22T14:13:32Z</time>
      </trkpt>
      <trkpt lat="48.67844" lon="6.11008">
        <ele>350</ele>
        <time>2012-03-22T14:13:34Z</time>
      </trkpt>
      <trkpt lat="48.67843" lon="6.11001">
        <ele>350</ele>
        <time>2012-03-22T14:13:36Z</time>
      </trkpt>
      <trkpt lat="48.67841" lon="6.10994">
        <ele>352</ele>
        <time>2012-03-22T14:13:38Z</time>
      </trkpt>
      <trkpt lat="48.67838" lon="6.10985">
        <ele>356</ele>
        <time>2012-03-22T14:13:40Z</time>
      </trkpt>
      <trkpt lat="48.67836" lon="6.10976">
        <ele>356</ele>
        <time>2012-03-22T14:13:42Z</time>
      </trkpt>
      <trkpt lat="48.67835" lon="6.10965">
        <ele>356</ele>
        <time>2012-03-22T14:13:44Z</time>
      </trkpt>
      <trkpt lat="48.67834" lon="6.10954">
        <ele>356</ele>
        <time>2012-03-22T14:13:46Z</time>
      </trkpt>
      <trkpt lat="48.67832" lon="6.10942">
        <ele>355</ele>
        <time>2012-03-22T14:13:48Z</time>
      </trkpt>
      <trkpt lat="48.6783" lon="6.10929">
        <ele>357</ele>
        <time>2012-03-22T14:13:50Z</time>
      </trkpt>
      <trkpt lat="48.67829" lon="6.10916">
        <ele>355</ele>
        <time>2012-03-22T14:13:52Z</time>
      </trkpt>
      <trkpt lat="48.67828" lon="6.10904">
        <ele>354</ele>
        <time>2012-03-22T14:13:54Z</time>
      </trkpt>
      <trkpt lat="48.67828" lon="6.10896">
        <ele>352</ele>
        <time>2012-03-22T14:13:56Z</time>
      </trkpt>
      <trkpt lat="48.67828" lon="6.10888">
        <ele>355</ele>
        <time>2012-03-22T14:13:58Z</time>
      </trkpt>
      <trkpt lat="48.67826" lon="6.10881">
        <ele>356</ele>
        <time>2012-03-22T14:14:00Z</time>
      </trkpt>
      <trkpt lat="48.67826" lon="6.10872">
        <ele>357</ele>
        <time>2012-03-22T14:14:02Z</time>
      </trkpt>
      <trkpt lat="48.67827" lon="6.1086">
        <ele>351</ele>
        <time>2012-03-22T14:14:04Z</time>
      </trkpt>
      <trkpt lat="48.67827" lon="6.10848">
        <ele>347</ele>
        <time>2012-03-22T14:14:06Z</time>
      </trkpt>
      <trkpt lat="48.67825" lon="6.10839">
        <ele>347</ele>
        <time>2012-03-22T14:14:08Z</time>
      </trkpt>
      <trkpt lat="48.67823" lon="6.10828">
        <ele>346</ele>
        <time>2012-03-22T14:14:10Z</time>
      </trkpt>
      <trkpt lat="48.67821" lon="6.10817">
        <ele>346</ele>
        <time>2012-03-22T14:14:12Z</time>
      </trkpt>
      <trkpt lat="48.6782" lon="6.10804">
        <ele>343</ele>
        <time>2012-03-22T14:14:14Z</time>
      </trkpt>
      <trkpt lat="48.67818" lon="6.10793">
        <ele>344</ele>
        <time>2012-03-22T14:14:16Z</time>
      </trkpt>
      <trkpt lat="48.67817" lon="6.10781">
        <ele>346</ele>
        <time>2012-03-22T14:14:18Z</time>
      </trkpt>
      <trkpt lat="48.67816" lon="6.10769">
        <ele>347</ele>
        <time>2012-03-22T14:14:20Z</time>
      </trkpt>
      <trkpt lat="48.67814" lon="6.10759">
        <ele>345</ele>
        <time>2012-03-22T14:14:22Z</time>
      </trkpt>
      <trkpt lat="48.67813" lon="6.10749">
        <ele>346</ele>
        <time>2012-03-22T14:14:24Z</time>
      </trkpt>
      <trkpt lat="48.67812" lon="6.1074">
        <ele>343</ele>
        <time>2012-03-22T14:14:26Z</time>
      </trkpt>
      <trkpt lat="48.67811" lon="6.1073">
        <ele>341</ele>
        <time>2012-03-22T14:14:28Z</time>
      </trkpt>
      <trkpt lat="48.67807" lon="6.10721">
        <ele>342</ele>
        <time>2012-03-22T14:14:30Z</time>
      </trkpt>
      <trkpt lat="48.67805" lon="6.10711">
        <ele>341</ele>
        <time>2012-03-22T14:14:32Z</time>
      </trkpt>
      <trkpt lat="48.67804" lon="6.10699">
        <ele>340</ele>
        <time>2012-03-22T14:14:34Z</time>
      </trkpt>
      <trkpt lat="48.67802" lon="6.10688">
        <ele>339</ele>
        <time>2012-03-22T14:14:36Z</time>
      </trkpt>
      <trkpt lat="48.67802" lon="6.10677">
        <ele>337</ele>
        <time>2012-03-22T14:14:38Z</time>
      </trkpt>
      <trkpt lat="48.67802" lon="6.10666">
        <ele>337</ele>
        <time>2012-03-22T14:14:40Z</time>
      </trkpt>
      <trkpt lat="48.678" lon="6.10655">
        <ele>338</ele>
        <time>2012-03-22T14:14:42Z</time>
      </trkpt>
      <trkpt lat="48.67798" lon="6.10644">
        <ele>340</ele>
        <time>2012-03-22T14:14:44Z</time>
      </trkpt>
      <trkpt lat="48.67797" lon="6.10632">
        <ele>339</ele>
        <time>2012-03-22T14:14:46Z</time>
      </trkpt>
      <trkpt lat="48.67796" lon="6.1062">
        <ele>339</ele>
        <time>2012-03-22T14:14:48Z</time>
      </trkpt>
      <trkpt lat="48.67795" lon="6.10606">
        <ele>344</ele>
        <time>2012-03-22T14:14:50Z</time>
      </trkpt>
      <trkpt lat="48.67793" lon="6.1059">
        <ele>344</ele>
        <time>2012-03-22T14:14:52Z</time>
      </trkpt>
      <trkpt lat="48.67791" lon="6.10574">
        <ele>344</ele>
        <time>2012-03-22T14:14:54Z</time>
      </trkpt>
      <trkpt lat="48.67789" lon="6.10559">
        <ele>343</ele>
        <time>2012-03-22T14:14:56Z</time>
      </trkpt>
      <trkpt lat="48.67786" lon="6.10545">
        <ele>342</ele>
        <time>2012-03-22T14:14:58Z</time>
      </trkpt>
      <trkpt lat="48.67783" lon="6.1053">
        <ele>340</ele>
        <time>2012-03-22T14:15:00Z</time>
      </trkpt>
      <trkpt lat="48.67781" lon="6.10516">
        <ele>342</ele>
        <time>2012-03-22T14:15:02Z</time>
      </trkpt>
      <trkpt lat="48.67779" lon="6.10501">
        <ele>340</ele>
        <time>2012-03-22T14:15:04Z</time>
      </trkpt>
      <trkpt lat="48.67775" lon="6.10484">
        <ele>338</ele>
        <time>2012-03-22T14:15:06Z</time>
      </trkpt>
      <trkpt lat="48.67772" lon="6.10469">
        <ele>332</ele>
        <time>2012-03-22T14:15:08Z</time>
      </trkpt>
      <trkpt lat="48.6777" lon="6.10453">
        <ele>335</ele>
        <time>2012-03-22T14:15:10Z</time>
      </trkpt>
      <trkpt lat="48.67767" lon="6.10435">
        <ele>334</ele>
        <time>2012-03-22T14:15:12Z</time>
      </trkpt>
      <trkpt lat="48.67765" lon="6.10417">
        <ele>331</ele>
        <time>2012-03-22T14:15:14Z</time>
      </trkpt>
      <trkpt lat="48.67763" lon="6.10397">
        <ele>328</ele>
        <time>2012-03-22T14:15:16Z</time>
      </trkpt>
      <trkpt lat="48.67761" lon="6.10378">
        <ele>328</ele>
        <time>2012-03-22T14:15:18Z</time>
      </trkpt>
      <trkpt lat="48.67759" lon="6.10356">
        <ele>327</ele>
        <time>2012-03-22T14:15:20Z</time>
      </trkpt>
      <trkpt lat="48.67756" lon="6.10334">
        <ele>329</ele>
        <time>2012-03-22T14:15:22Z</time>
      </trkpt>
      <trkpt lat="48.67754" lon="6.1031">
        <ele>327</ele>
        <time>2012-03-22T14:15:25Z</time>
      </trkpt>
      <trkpt lat="48.67752" lon="6.10298">
        <ele>326</ele>
        <time>2012-03-22T14:15:26Z</time>
      </trkpt>
      <trkpt lat="48.67749" lon="6.10282">
        <ele>328</ele>
        <time>2012-03-22T14:15:28Z</time>
      </trkpt>
      <trkpt lat="48.67747" lon="6.10269">
        <ele>329</ele>
        <time>2012-03-22T14:15:30Z</time>
      </trkpt>
      <trkpt lat="48.67746" lon="6.10262">
        <ele>328</ele>
        <time>2012-03-22T14:15:32Z</time>
      </trkpt>
      <trkpt lat="48.67745" lon="6.10255">
        <ele>332</ele>
        <time>2012-03-22T14:15:34Z</time>
      </trkpt>
      <trkpt lat="48.67744" lon="6.10248">
        <ele>335</ele>
        <time>2012-03-22T14:15:36Z</time>
      </trkpt>
      <trkpt lat="48.67743" lon="6.10242">
        <ele>335</ele>
        <time>2012-03-22T14:15:38Z</time>
      </trkpt>
      <trkpt lat="48.67742" lon="6.10234">
        <ele>334</ele>
        <time>2012-03-22T14:15:40Z</time>
      </trkpt>
      <trkpt lat="48.67742" lon="6.10227">
        <ele>336</ele>
        <time>2012-03-22T14:15:42Z</time>
      </trkpt>
      <trkpt lat="48.67742" lon="6.10219">
        <ele>336</ele>
        <time>2012-03-22T14:15:44Z</time>
      </trkpt>
      <trkpt lat="48.6774" lon="6.1021">
        <ele>336</ele>
        <time>2012-03-22T14:15:46Z</time>
      </trkpt>
      <trkpt lat="48.67738" lon="6.10201">
        <ele>340</ele>
        <time>2012-03-22T14:15:48Z</time>
      </trkpt>
      <trkpt lat="48.67736" lon="6.10182">
        <ele>343</ele>
        <time>2012-03-22T14:15:52Z</time>
      </trkpt>
      <trkpt lat="48.67735" lon="6.10174">
        <ele>343</ele>
        <time>2012-03-22T14:15:54Z</time>
      </trkpt>
      <trkpt lat="48.67734" lon="6.10165">
        <ele>344</ele>
        <time>2012-03-22T14:15:56Z</time>
      </trkpt>
      <trkpt lat="48.67732" lon="6.10155">
        <ele>344</ele>
        <time>2012-03-22T14:15:58Z</time>
      </trkpt>
      <trkpt lat="48.6773" lon="6.10146">
        <ele>344</ele>
        <time>2012-03-22T14:16:00Z</time>
      </trkpt>
      <trkpt lat="48.67725" lon="6.10138">
        <ele>346</ele>
        <time>2012-03-22T14:16:02Z</time>
      </trkpt>
      <trkpt lat="48.67722" lon="6.10134">
        <ele>345</ele>
        <time>2012-03-22T14:16:04Z</time>
      </trkpt>
      <trkpt lat="48.67722" lon="6.10125">
        <ele>344</ele>
        <time>2012-03-22T14:16:06Z</time>
      </trkpt>
      <trkpt lat="48.6772" lon="6.10112">
        <ele>344</ele>
        <time>2012-03-22T14:16:08Z</time>
      </trkpt>
      <trkpt lat="48.67719" lon="6.101">
        <ele>347</ele>
        <time>2012-03-22T14:16:10Z</time>
      </trkpt>
      <trkpt lat="48.67718" lon="6.10087">
        <ele>349</ele>
        <time>2012-03-22T14:16:12Z</time>
      </trkpt>
      <trkpt lat="48.67716" lon="6.10077">
        <ele>344</ele>
        <time>2012-03-22T14:16:14Z</time>
      </trkpt>
      <trkpt lat="48.67714" lon="6.10065">
        <ele>346</ele>
        <time>2012-03-22T14:16:17Z</time>
      </trkpt>
      <trkpt lat="48.67712" lon="6.10061">
        <ele>346</ele>
        <time>2012-03-22T14:16:18Z</time>
      </trkpt>
      <trkpt lat="48.67712" lon="6.10052">
        <ele>352</ele>
        <time>2012-03-22T14:16:20Z</time>
      </trkpt>
      <trkpt lat="48.67712" lon="6.10044">
        <ele>351</ele>
        <time>2012-03-22T14:16:22Z</time>
      </trkpt>
      <trkpt lat="48.67711" lon="6.10034">
        <ele>350</ele>
        <time>2012-03-22T14:16:24Z</time>
      </trkpt>
      <trkpt lat="48.6771" lon="6.10024">
        <ele>356</ele>
        <time>2012-03-22T14:16:26Z</time>
      </trkpt>
      <trkpt lat="48.67708" lon="6.10014">
        <ele>353</ele>
        <time>2012-03-22T14:16:28Z</time>
      </trkpt>
      <trkpt lat="48.67706" lon="6.10004">
        <ele>354</ele>
        <time>2012-03-22T14:16:30Z</time>
      </trkpt>
      <trkpt lat="48.67705" lon="6.09994">
        <ele>354</ele>
        <time>2012-03-22T14:16:32Z</time>
      </trkpt>
      <trkpt lat="48.67704" lon="6.09982">
        <ele>354</ele>
        <time>2012-03-22T14:16:34Z</time>
      </trkpt>
      <trkpt lat="48.67702" lon="6.09971">
        <ele>353</ele>
        <time>2012-03-22T14:16:36Z</time>
      </trkpt>
      <trkpt lat="48.67701" lon="6.09962">
        <ele>354</ele>
        <time>2012-03-22T14:16:38Z</time>
      </trkpt>
      <trkpt lat="48.67699" lon="6.09951">
        <ele>350</ele>
        <time>2012-03-22T14:16:40Z</time>
      </trkpt>
      <trkpt lat="48.67697" lon="6.09946">
        <ele>350</ele>
        <time>2012-03-22T14:16:41Z</time>
      </trkpt>
      <trkpt lat="48.67696" lon="6.09941">
        <ele>354</ele>
        <time>2012-03-22T14:16:42Z</time>
      </trkpt>
      <trkpt lat="48.67693" lon="6.09934">
        <ele>355</ele>
        <time>2012-03-22T14:16:44Z</time>
      </trkpt>
      <trkpt lat="48.67693" lon="6.09921">
        <ele>354</ele>
        <time>2012-03-22T14:16:46Z</time>
      </trkpt>
      <trkpt lat="48.67693" lon="6.09912">
        <ele>356</ele>
        <time>2012-03-22T14:16:48Z</time>
      </trkpt>
      <trkpt lat="48.67692" lon="6.09904">
        <ele>359</ele>
        <time>2012-03-22T14:16:50Z</time>
      </trkpt>
      <trkpt lat="48.67692" lon="6.09894">
        <ele>361</ele>
        <time>2012-03-22T14:16:52Z</time>
      </trkpt>
      <trkpt lat="48.67692" lon="6.09883">
        <ele>359</ele>
        <time>2012-03-22T14:16:54Z</time>
      </trkpt>
      <trkpt lat="48.67691" lon="6.09874">
        <ele>357</ele>
        <time>2012-03-22T14:16:56Z</time>
      </trkpt>
      <trkpt lat="48.6769" lon="6.09868">
        <ele>359</ele>
        <time>2012-03-22T14:16:58Z</time>
      </trkpt>
      <trkpt lat="48.67689" lon="6.09859">
        <ele>359</ele>
        <time>2012-03-22T14:17:00Z</time>
      </trkpt>
      <trkpt lat="48.67689" lon="6.0985">
        <ele>362</ele>
        <time>2012-03-22T14:17:02Z</time>
      </trkpt>
      <trkpt lat="48.67687" lon="6.09843">
        <ele>365</ele>
        <time>2012-03-22T14:17:04Z</time>
      </trkpt>
      <trkpt lat="48.67687" lon="6.09833">
        <ele>366</ele>
        <time>2012-03-22T14:17:06Z</time>
      </trkpt>
      <trkpt lat="48.67686" lon="6.09824">
        <ele>362</ele>
        <time>2012-03-22T14:17:08Z</time>
      </trkpt>
      <trkpt lat="48.67684" lon="6.09817">
        <ele>364</ele>
        <time>2012-03-22T14:17:10Z</time>
      </trkpt>
      <trkpt lat="48.67685" lon="6.09808">
        <ele>363</ele>
        <time>2012-03-22T14:17:12Z</time>
      </trkpt>
      <trkpt lat="48.67683" lon="6.09798">
        <ele>364</ele>
        <time>2012-03-22T14:17:14Z</time>
      </trkpt>
      <trkpt lat="48.67684" lon="6.09787">
        <ele>363</ele>
        <time>2012-03-22T14:17:16Z</time>
      </trkpt>
      <trkpt lat="48.67685" lon="6.09774">
        <ele>361</ele>
        <time>2012-03-22T14:17:18Z</time>
      </trkpt>
      <trkpt lat="48.67687" lon="6.09763">
        <ele>363</ele>
        <time>2012-03-22T14:17:20Z</time>
      </trkpt>
      <trkpt lat="48.67688" lon="6.09755">
        <ele>360</ele>
        <time>2012-03-22T14:17:22Z</time>
      </trkpt>
      <trkpt lat="48.6769" lon="6.09743">
        <ele>360</ele>
        <time>2012-03-22T14:17:24Z</time>
      </trkpt>
      <trkpt lat="48.67691" lon="6.09733">
        <ele>354</ele>
        <time>2012-03-22T14:17:26Z</time>
      </trkpt>
      <trkpt lat="48.67691" lon="6.09723">
        <ele>353</ele>
        <time>2012-03-22T14:17:28Z</time>
      </trkpt>
      <trkpt lat="48.67693" lon="6.09714">
        <ele>355</ele>
        <time>2012-03-22T14:17:30Z</time>
      </trkpt>
      <trkpt lat="48.67695" lon="6.09701">
        <ele>356</ele>
        <time>2012-03-22T14:17:32Z</time>
      </trkpt>
      <trkpt lat="48.67693" lon="6.09694">
        <ele>353</ele>
        <time>2012-03-22T14:17:34Z</time>
      </trkpt>
      <trkpt lat="48.67694" lon="6.09683">
        <ele>351</ele>
        <time>2012-03-22T14:17:36Z</time>
      </trkpt>
      <trkpt lat="48.67695" lon="6.09673">
        <ele>352</ele>
        <time>2012-03-22T14:17:38Z</time>
      </trkpt>
      <trkpt lat="48.67696" lon="6.09664">
        <ele>351</ele>
        <time>2012-03-22T14:17:40Z</time>
      </trkpt>
      <trkpt lat="48.67698" lon="6.09655">
        <ele>354</ele>
        <time>2012-03-22T14:17:42Z</time>
      </trkpt>
      <trkpt lat="48.67699" lon="6.09646">
        <ele>356</ele>
        <time>2012-03-22T14:17:44Z</time>
      </trkpt>
      <trkpt lat="48.677" lon="6.09637">
        <ele>355</ele>
        <time>2012-03-22T14:17:46Z</time>
      </trkpt>
      <trkpt lat="48.67701" lon="6.09627">
        <ele>357</ele>
        <time>2012-03-22T14:17:48Z</time>
      </trkpt>
      <trkpt lat="48.67703" lon="6.09617">
        <ele>359</ele>
        <time>2012-03-22T14:17:50Z</time>
      </trkpt>
      <trkpt lat="48.67704" lon="6.09606">
        <ele>358</ele>
        <time>2012-03-22T14:17:52Z</time>
      </trkpt>
      <trkpt lat="48.67706" lon="6.09597">
        <ele>360</ele>
        <time>2012-03-22T14:17:54Z</time>
      </trkpt>
      <trkpt lat="48.67707" lon="6.09586">
        <ele>360</ele>
        <time>2012-03-22T14:17:56Z</time>
      </trkpt>
      <trkpt lat="48.67709" lon="6.09576">
        <ele>358</ele>
        <time>2012-03-22T14:17:58Z</time>
      </trkpt>
      <trkpt lat="48.6771" lon="6.09568">
        <ele>360</ele>
        <time>2012-03-22T14:18:00Z</time>
      </trkpt>
      <trkpt lat="48.67711" lon="6.09559">
        <ele>361</ele>
        <time>2012-03-22T14:18:02Z</time>
      </trkpt>
      <trkpt lat="48.67712" lon="6.0955">
        <ele>359</ele>
        <time>2012-03-22T14:18:04Z</time>
      </trkpt>
      <trkpt lat="48.67712" lon="6.0954">
        <ele>358</ele>
        <time>2012-03-22T14:18:06Z</time>
      </trkpt>
      <trkpt lat="48.67712" lon="6.0953">
        <ele>355</ele>
        <time>2012-03-22T14:18:08Z</time>
      </trkpt>
      <trkpt lat="48.67713" lon="6.09523">
        <ele>356</ele>
        <time>2012-03-22T14:18:10Z</time>
      </trkpt>
      <trkpt lat="48.67714" lon="6.09514">
        <ele>354</ele>
        <time>2012-03-22T14:18:12Z</time>
      </trkpt>
      <trkpt lat="48.67716" lon="6.09506">
        <ele>354</ele>
        <time>2012-03-22T14:18:14Z</time>
      </trkpt>
      <trkpt lat="48.67716" lon="6.09496">
        <ele>355</ele>
        <time>2012-03-22T14:18:16Z</time>
      </trkpt>
      <trkpt lat="48.67717" lon="6.09485">
        <ele>355</ele>
        <time>2012-03-22T14:18:18Z</time>
      </trkpt>
      <trkpt lat="48.67717" lon="6.09474">
        <ele>355</ele>
        <time>2012-03-22T14:18:20Z</time>
      </trkpt>
      <trkpt lat="48.67718" lon="6.09458">
        <ele>355</ele>
        <time>2012-03-22T14:18:23Z</time>
      </trkpt>
      <trkpt lat="48.67719" lon="6.09453">
        <ele>355</ele>
        <time>2012-03-22T14:18:24Z</time>
      </trkpt>
      <trkpt lat="48.6772" lon="6.09442">
        <ele>353</ele>
        <time>2012-03-22T14:18:26Z</time>
      </trkpt>
      <trkpt lat="48.67721" lon="6.0943">
        <ele>352</ele>
        <time>2012-03-22T14:18:28Z</time>
      </trkpt>
      <trkpt lat="48.67723" lon="6.09418">
        <ele>353</ele>
        <time>2012-03-22T14:18:30Z</time>
      </trkpt>
      <trkpt lat="48.67725" lon="6.09405">
        <ele>354</ele>
        <time>2012-03-22T14:18:32Z</time>
      </trkpt>
      <trkpt lat="48.67727" lon="6.09394">
        <ele>353</ele>
        <time>2012-03-22T14:18:34Z</time>
      </trkpt>
      <trkpt lat="48.67728" lon="6.09383">
        <ele>353</ele>
        <time>2012-03-22T14:18:36Z</time>
      </trkpt>
      <trkpt lat="48.67728" lon="6.09373">
        <ele>354</ele>
        <time>2012-03-22T14:18:38Z</time>
      </trkpt>
      <trkpt lat="48.67729" lon="6.0936">
        <ele>353</ele>
        <time>2012-03-22T14:18:40Z</time>
      </trkpt>
      <trkpt lat="48.6773" lon="6.09345">
        <ele>356</ele>
        <time>2012-03-22T14:18:42Z</time>
      </trkpt>
      <trkpt lat="48.67732" lon="6.09331">
        <ele>357</ele>
        <time>2012-03-22T14:18:44Z</time>
      </trkpt>
      <trkpt lat="48.67734" lon="6.09317">
        <ele>356</ele>
        <time>2012-03-22T14:18:46Z</time>
      </trkpt>
      <trkpt lat="48.67735" lon="6.09304">
        <ele>355</ele>
        <time>2012-03-22T14:18:48Z</time>
      </trkpt>
      <trkpt lat="48.67736" lon="6.09291">
        <ele>352</ele>
        <time>2012-03-22T14:18:50Z</time>
      </trkpt>
      <trkpt lat="48.67736" lon="6.0928">
        <ele>351</ele>
        <time>2012-03-22T14:18:52Z</time>
      </trkpt>
      <trkpt lat="48.67736" lon="6.09269">
        <ele>349</ele>
        <time>2012-03-22T14:18:54Z</time>
      </trkpt>
      <trkpt lat="48.67738" lon="6.09256">
        <ele>349</ele>
        <time>2012-03-22T14:18:56Z</time>
      </trkpt>
      <trkpt lat="48.67738" lon="6.09243">
        <ele>349</ele>
        <time>2012-03-22T14:18:58Z</time>
      </trkpt>
      <trkpt lat="48.67738" lon="6.0923">
        <ele>351</ele>
        <time>2012-03-22T14:19:00Z</time>
      </trkpt>
      <trkpt lat="48.67739" lon="6.09217">
        <ele>352</ele>
        <time>2012-03-22T14:19:02Z</time>
      </trkpt>
      <trkpt lat="48.67741" lon="6.09204">
        <ele>347</ele>
        <time>2012-03-22T14:19:04Z</time>
      </trkpt>
      <trkpt lat="48.67742" lon="6.09189">
        <ele>349</ele>
        <time>2012-03-22T14:19:06Z</time>
      </trkpt>
      <trkpt lat="48.67744" lon="6.09169">
        <ele>350</ele>
        <time>2012-03-22T14:19:09Z</time>
      </trkpt>
      <trkpt lat="48.67744" lon="6.09162">
        <ele>350</ele>
        <time>2012-03-22T14:19:10Z</time>
      </trkpt>
      <trkpt lat="48.67745" lon="6.09147">
        <ele>351</ele>
        <time>2012-03-22T14:19:12Z</time>
      </trkpt>
      <trkpt lat="48.67748" lon="6.0913">
        <ele>349</ele>
        <time>2012-03-22T14:19:14Z</time>
      </trkpt>
      <trkpt lat="48.67749" lon="6.09113">
        <ele>347</ele>
        <time>2012-03-22T14:19:16Z</time>
      </trkpt>
      <trkpt lat="48.67751" lon="6.09095">
        <ele>345</ele>
        <time>2012-03-22T14:19:18Z</time>
      </trkpt>
      <trkpt lat="48.67753" lon="6.09076">
        <ele>346</ele>
        <time>2012-03-22T14:19:20Z</time>
      </trkpt>
      <trkpt lat="48.67756" lon="6.09057">
        <ele>346</ele>
        <time>2012-03-22T14:19:22Z</time>
      </trkpt>
      <trkpt lat="48.67757" lon="6.09038">
        <ele>345</ele>
        <time>2012-03-22T14:19:24Z</time>
      </trkpt>
      <trkpt lat="48.67758" lon="6.09021">
        <ele>343</ele>
        <time>2012-03-22T14:19:26Z</time>
      </trkpt>
      <trkpt lat="48.67757" lon="6.09003">
        <ele>342</ele>
        <time>2012-03-22T14:19:28Z</time>
      </trkpt>
      <trkpt lat="48.67752" lon="6.08986">
        <ele>342</ele>
        <time>2012-03-22T14:19:30Z</time>
      </trkpt>
      <trkpt lat="48.67745" lon="6.08974">
        <ele>344</ele>
        <time>2012-03-22T14:19:32Z</time>
      </trkpt>
      <trkpt lat="48.67728" lon="6.08956">
        <ele>343</ele>
        <time>2012-03-22T14:19:36Z</time>
      </trkpt>
      <trkpt lat="48.67722" lon="6.08949">
        <ele>346</ele>
        <time>2012-03-22T14:19:38Z</time>
      </trkpt>
      <trkpt lat="48.67716" lon="6.08943">
        <ele>348</ele>
        <time>2012-03-22T14:19:40Z</time>
      </trkpt>
      <trkpt lat="48.67711" lon="6.08939">
        <ele>346</ele>
        <time>2012-03-22T14:19:42Z</time>
      </trkpt>
      <trkpt lat="48.67706" lon="6.08934">
        <ele>345</ele>
        <time>2012-03-22T14:19:44Z</time>
      </trkpt>
      <trkpt lat="48.67696" lon="6.08923">
        <ele>344</ele>
        <time>2012-03-22T14:19:50Z</time>
      </trkpt>
      <trkpt lat="48.67692" lon="6.08919">
        <ele>343</ele>
        <time>2012-03-22T14:19:52Z</time>
      </trkpt>
      <trkpt lat="48.67683" lon="6.08911">
        <ele>345</ele>
        <time>2012-03-22T14:19:56Z</time>
      </trkpt>
      <trkpt lat="48.67679" lon="6.08907">
        <ele>346</ele>
        <time>2012-03-22T14:19:58Z</time>
      </trkpt>
      <trkpt lat="48.67673" lon="6.08902">
        <ele>347</ele>
        <time>2012-03-22T14:20:00Z</time>
      </trkpt>
      <trkpt lat="48.6767" lon="6.08899">
        <ele>348</ele>
        <time>2012-03-22T14:20:01Z</time>
      </trkpt>
      <trkpt lat="48.67665" lon="6.08892">
        <ele>348</ele>
        <time>2012-03-22T14:20:02Z</time>
      </trkpt>
      <trkpt lat="48.67658" lon="6.08885">
        <ele>348</ele>
        <time>2012-03-22T14:20:04Z</time>
      </trkpt>
      <trkpt lat="48.67651" lon="6.08878">
        <ele>349</ele>
        <time>2012-03-22T14:20:06Z</time>
      </trkpt>
      <trkpt lat="48.67643" lon="6.0887">
        <ele>348</ele>
        <time>2012-03-22T14:20:08Z</time>
      </trkpt>
      <trkpt lat="48.67632" lon="6.08865">
        <ele>349</ele>
        <time>2012-03-22T14:20:10Z</time>
      </trkpt>
      <trkpt lat="48.67617" lon="6.08863">
        <ele>350</ele>
        <time>2012-03-22T14:20:12Z</time>
      </trkpt>
      <trkpt lat="48.67596" lon="6.08863">
        <ele>348</ele>
        <time>2012-03-22T14:20:14Z</time>
      </trkpt>
      <trkpt lat="48.67576" lon="6.08865">
        <ele>348</ele>
        <time>2012-03-22T14:20:16Z</time>
      </trkpt>
      <trkpt lat="48.67556" lon="6.08861">
        <ele>345</ele>
        <time>2012-03-22T14:20:18Z</time>
      </trkpt>
      <trkpt lat="48.67536" lon="6.08854">
        <ele>344</ele>
        <time>2012-03-22T14:20:20Z</time>
      </trkpt>
      <trkpt lat="48.67516" lon="6.08845">
        <ele>345</ele>
        <time>2012-03-22T14:20:22Z</time>
      </trkpt>
      <trkpt lat="48.67482" lon="6.08835">
        <ele>347</ele>
        <time>2012-03-22T14:20:25Z</time>
      </trkpt>
      <trkpt lat="48.6747" lon="6.08835">
        <ele>348</ele>
        <time>2012-03-22T14:20:26Z</time>
      </trkpt>
      <trkpt lat="48.67446" lon="6.08835">
        <ele>343</ele>
        <time>2012-03-22T14:20:28Z</time>
      </trkpt>
      <trkpt lat="48.67422" lon="6.0884">
        <ele>343</ele>
        <time>2012-03-22T14:20:30Z</time>
      </trkpt>
      <trkpt lat="48.67401" lon="6.08847">
        <ele>340</ele>
        <time>2012-03-22T14:20:32Z</time>
      </trkpt>
      <trkpt lat="48.67382" lon="6.08851">
        <ele>334</ele>
        <time>2012-03-22T14:20:34Z</time>
      </trkpt>
      <trkpt lat="48.67367" lon="6.08855">
        <ele>337</ele>
        <time>2012-03-22T14:20:36Z</time>
      </trkpt>
      <trkpt lat="48.67355" lon="6.08845">
        <ele>334</ele>
        <time>2012-03-22T14:20:38Z</time>
      </trkpt>
      <trkpt lat="48.67346" lon="6.08819">
        <ele>327</ele>
        <time>2012-03-22T14:20:40Z</time>
      </trkpt>
      <trkpt lat="48.67344" lon="6.08793">
        <ele>324</ele>
        <time>2012-03-22T14:20:42Z</time>
      </trkpt>
      <trkpt lat="48.67347" lon="6.08755">
        <ele>326</ele>
        <time>2012-03-22T14:20:46Z</time>
      </trkpt>
      <trkpt lat="48.67346" lon="6.08739">
        <ele>328</ele>
        <time>2012-03-22T14:20:48Z</time>
      </trkpt>
      <trkpt lat="48.67345" lon="6.08733">
        <ele>324</ele>
        <time>2012-03-22T14:20:49Z</time>
      </trkpt>
      <trkpt lat="48.67345" lon="6.08728">
        <ele>325</ele>
        <time>2012-03-22T14:20:50Z</time>
      </trkpt>
      <trkpt lat="48.67344" lon="6.08719">
        <ele>324</ele>
        <time>2012-03-22T14:20:52Z</time>
      </trkpt>
      <trkpt lat="48.67342" lon="6.08711">
        <ele>324</ele>
        <time>2012-03-22T14:20:54Z</time>
      </trkpt>
      <trkpt lat="48.67341" lon="6.08703">
        <ele>324</ele>
        <time>2012-03-22T14:20:56Z</time>
      </trkpt>
      <trkpt lat="48.67337" lon="6.08696">
        <ele>324</ele>
        <time>2012-03-22T14:20:58Z</time>
      </trkpt>
      <trkpt lat="48.67334" lon="6.08692">
        <ele>327</ele>
        <time>2012-03-22T14:21:00Z</time>
      </trkpt>
      <trkpt lat="48.67332" lon="6.08688">
        <ele>331</ele>
        <time>2012-03-22T14:21:02Z</time>
      </trkpt>
      <trkpt lat="48.67323" lon="6.08672">
        <ele>334</ele>
        <time>2012-03-22T14:21:10Z</time>
      </trkpt>
      <trkpt lat="48.67316" lon="6.08659">
        <ele>329</ele>
        <time>2012-03-22T14:21:15Z</time>
      </trkpt>
      <trkpt lat="48.67315" lon="6.08656">
        <ele>333</ele>
        <time>2012-03-22T14:21:16Z</time>
      </trkpt>
      <trkpt lat="48.67309" lon="6.08647">
        <ele>338</ele>
        <time>2012-03-22T14:21:20Z</time>
      </trkpt>
      <trkpt lat="48.67305" lon="6.08642">
        <ele>341</ele>
        <time>2012-03-22T14:21:22Z</time>
      </trkpt>
      <trkpt lat="48.67299" lon="6.08632">
        <ele>335</ele>
        <time>2012-03-22T14:21:26Z</time>
      </trkpt>
      <trkpt lat="48.67296" lon="6.08627">
        <ele>338</ele>
        <time>2012-03-22T14:21:28Z</time>
      </trkpt>
      <trkpt lat="48.67286" lon="6.08613">
        <ele>342</ele>
        <time>2012-03-22T14:21:34Z</time>
      </trkpt>
      <trkpt lat="48.67279" lon="6.08604">
        <ele>344</ele>
        <time>2012-03-22T14:21:38Z</time>
      </trkpt>
      <trkpt lat="48.67271" lon="6.08593">
        <ele>347</ele>
        <time>2012-03-22T14:21:42Z</time>
      </trkpt>
      <trkpt lat="48.67268" lon="6.08587">
        <ele>346</ele>
        <time>2012-03-22T14:21:44Z</time>
      </trkpt>
      <trkpt lat="48.67265" lon="6.08583">
        <ele>346</ele>
        <time>2012-03-22T14:21:46Z</time>
      </trkpt>
      <trkpt lat="48.67256" lon="6.08571">
        <ele>348</ele>
        <time>2012-03-22T14:21:52Z</time>
      </trkpt>
      <trkpt lat="48.67249" lon="6.08563">
        <ele>355</ele>
        <time>2012-03-22T14:21:56Z</time>
      </trkpt>
      <trkpt lat="48.67244" lon="6.08559">
        <ele>356</ele>
        <time>2012-03-22T14:21:58Z</time>
      </trkpt>
      <trkpt lat="48.67239" lon="6.08556">
        <ele>355</ele>
        <time>2012-03-22T14:22:00Z</time>
      </trkpt>
      <trkpt lat="48.67234" lon="6.08552">
        <ele>354</ele>
        <time>2012-03-22T14:22:02Z</time>
      </trkpt>
      <trkpt lat="48.6723" lon="6.08549">
        <ele>354</ele>
        <time>2012-03-22T14:22:04Z</time>
      </trkpt>
      <trkpt lat="48.67225" lon="6.08545">
        <ele>355</ele>
        <time>2012-03-22T14:22:06Z</time>
      </trkpt>
      <trkpt lat="48.67222" lon="6.08543">
        <ele>356</ele>
        <time>2012-03-22T14:22:07Z</time>
      </trkpt>
      <trkpt lat="48.67217" lon="6.08535">
        <ele>356</ele>
        <time>2012-03-22T14:22:10Z</time>
      </trkpt>
      <trkpt lat="48.67213" lon="6.08528">
        <ele>356</ele>
        <time>2012-03-22T14:22:12Z</time>
      </trkpt>
      <trkpt lat="48.6721" lon="6.0852">
        <ele>350</ele>
        <time>2012-03-22T14:22:14Z</time>
      </trkpt>
      <trkpt lat="48.67207" lon="6.08513">
        <ele>351</ele>
        <time>2012-03-22T14:22:16Z</time>
      </trkpt>
      <trkpt lat="48.67202" lon="6.085">
        <ele>351</ele>
        <time>2012-03-22T14:22:20Z</time>
      </trkpt>
      <trkpt lat="48.67194" lon="6.08483">
        <ele>352</ele>
        <time>2012-03-22T14:22:26Z</time>
      </trkpt>
      <trkpt lat="48.67191" lon="6.08476">
        <ele>352</ele>
        <time>2012-03-22T14:22:28Z</time>
      </trkpt>
      <trkpt lat="48.67181" lon="6.08458">
        <ele>355</ele>
        <time>2012-03-22T14:22:35Z</time>
      </trkpt>
      <trkpt lat="48.67173" lon="6.08443">
        <ele>354</ele>
        <time>2012-03-22T14:22:40Z</time>
      </trkpt>
      <trkpt lat="48.67168" lon="6.08437">
        <ele>353</ele>
        <time>2012-03-22T14:22:42Z</time>
      </trkpt>
      <trkpt lat="48.67165" lon="6.08432">
        <ele>350</ele>
        <time>2012-03-22T14:22:44Z</time>
      </trkpt>
      <trkpt lat="48.67161" lon="6.08428">
        <ele>351</ele>
        <time>2012-03-22T14:22:46Z</time>
      </trkpt>
      <trkpt lat="48.67159" lon="6.08426">
        <ele>348</ele>
        <time>2012-03-22T14:22:47Z</time>
      </trkpt>
      <trkpt lat="48.67153" lon="6.08422">
        <ele>345</ele>
        <time>2012-03-22T14:22:50Z</time>
      </trkpt>
      <trkpt lat="48.67144" lon="6.08418">
        <ele>347</ele>
        <time>2012-03-22T14:22:53Z</time>
      </trkpt>
      <trkpt lat="48.67138" lon="6.08412">
        <ele>347</ele>
        <time>2012-03-22T14:22:56Z</time>
      </trkpt>
      <trkpt lat="48.67136" lon="6.08411">
        <ele>344</ele>
        <time>2012-03-22T14:22:57Z</time>
      </trkpt>
      <trkpt lat="48.67135" lon="6.08409">
        <ele>345</ele>
        <time>2012-03-22T14:22:58Z</time>
      </trkpt>
      <trkpt lat="48.6713" lon="6.08405">
        <ele>348</ele>
        <time>2012-03-22T14:23:00Z</time>
      </trkpt>
      <trkpt lat="48.67109" lon="6.08381">
        <ele>355</ele>
        <time>2012-03-22T14:23:12Z</time>
      </trkpt>
      <trkpt lat="48.67104" lon="6.08377">
        <ele>355</ele>
        <time>2012-03-22T14:23:14Z</time>
      </trkpt>
      <trkpt lat="48.67099" lon="6.08375">
        <ele>355</ele>
        <time>2012-03-22T14:23:16Z</time>
      </trkpt>
      <trkpt lat="48.67094" lon="6.08371">
        <ele>357</ele>
        <time>2012-03-22T14:23:18Z</time>
      </trkpt>
      <trkpt lat="48.67087" lon="6.08367">
        <ele>356</ele>
        <time>2012-03-22T14:23:21Z</time>
      </trkpt>
      <trkpt lat="48.6708" lon="6.08361">
        <ele>356</ele>
        <time>2012-03-22T14:23:24Z</time>
      </trkpt>
      <trkpt lat="48.67074" lon="6.08358">
        <ele>355</ele>
        <time>2012-03-22T14:23:26Z</time>
      </trkpt>
      <trkpt lat="48.67069" lon="6.08355">
        <ele>358</ele>
        <time>2012-03-22T14:23:28Z</time>
      </trkpt>
      <trkpt lat="48.6706" lon="6.0835">
        <ele>361</ele>
        <time>2012-03-22T14:23:32Z</time>
      </trkpt>
      <trkpt lat="48.67033" lon="6.08319">
        <ele>360</ele>
        <time>2012-03-22T14:23:46Z</time>
      </trkpt>
      <trkpt lat="48.67014" lon="6.08296">
        <ele>368</ele>
        <time>2012-03-22T14:23:58Z</time>
      </trkpt>
      <trkpt lat="48.67005" lon="6.08288">
        <ele>371</ele>
        <time>2012-03-22T14:24:02Z</time>
      </trkpt>
      <trkpt lat="48.66995" lon="6.08279">
        <ele>372</ele>
        <time>2012-03-22T14:24:06Z</time>
      </trkpt>
      <trkpt lat="48.6699" lon="6.08276">
        <ele>376</ele>
        <time>2012-03-22T14:24:08Z</time>
      </trkpt>
      <trkpt lat="48.6698" lon="6.08268">
        <ele>376</ele>
        <time>2012-03-22T14:24:12Z</time>
      </trkpt>
      <trkpt lat="48.66975" lon="6.08264">
        <ele>376</ele>
        <time>2012-03-22T14:24:14Z</time>
      </trkpt>
      <trkpt lat="48.6697" lon="6.08259">
        <ele>376</ele>
        <time>2012-03-22T14:24:16Z</time>
      </trkpt>
      <trkpt lat="48.66962" lon="6.08252">
        <ele>369</ele>
        <time>2012-03-22T14:24:20Z</time>
      </trkpt>
      <trkpt lat="48.66954" lon="6.08243">
        <ele>370</ele>
        <time>2012-03-22T14:24:24Z</time>
      </trkpt>
      <trkpt lat="48.66945" lon="6.08233">
        <ele>368</ele>
        <time>2012-03-22T14:24:28Z</time>
      </trkpt>
      <trkpt lat="48.66941" lon="6.08229">
        <ele>368</ele>
        <time>2012-03-22T14:24:30Z</time>
      </trkpt>
      <trkpt lat="48.6693" lon="6.08223">
        <ele>373</ele>
        <time>2012-03-22T14:24:34Z</time>
      </trkpt>
      <trkpt lat="48.66922" lon="6.08216">
        <ele>376</ele>
        <time>2012-03-22T14:24:38Z</time>
      </trkpt>
      <trkpt lat="48.66917" lon="6.0821">
        <ele>377</ele>
        <time>2012-03-22T14:24:40Z</time>
      </trkpt>
      <trkpt lat="48.66905" lon="6.08194">
        <ele>381</ele>
        <time>2012-03-22T14:24:46Z</time>
      </trkpt>
      <trkpt lat="48.669" lon="6.08189">
        <ele>382</ele>
        <time>2012-03-22T14:24:48Z</time>
      </trkpt>
      <trkpt lat="48.66889" lon="6.0818">
        <ele>383</ele>
        <time>2012-03-22T14:24:52Z</time>
      </trkpt>
      <trkpt lat="48.66881" lon="6.08172">
        <ele>388</ele>
        <time>2012-03-22T14:24:56Z</time>
      </trkpt>
      <trkpt lat="48.66875" lon="6.08168">
        <ele>392</ele>
        <time>2012-03-22T14:24:58Z</time>
      </trkpt>
      <trkpt lat="48.66869" lon="6.08165">
        <ele>393</ele>
        <time>2012-03-22T14:25:00Z</time>
      </trkpt>
      <trkpt lat="48.66859" lon="6.0816">
        <ele>396</ele>
        <time>2012-03-22T14:25:04Z</time>
      </trkpt>
      <trkpt lat="48.66855" lon="6.08157">
        <ele>393</ele>
        <time>2012-03-22T14:25:06Z</time>
      </trkpt>
      <trkpt lat="48.6685" lon="6.08151">
        <ele>393</ele>
        <time>2012-03-22T14:25:08Z</time>
      </trkpt>
      <trkpt lat="48.66843" lon="6.08137">
        <ele>389</ele>
        <time>2012-03-22T14:25:12Z</time>
      </trkpt>
      <trkpt lat="48.66835" lon="6.08128">
        <ele>390</ele>
        <time>2012-03-22T14:25:16Z</time>
      </trkpt>
      <trkpt lat="48.6683" lon="6.08123">
        <ele>384</ele>
        <time>2012-03-22T14:25:18Z</time>
      </trkpt>
      <trkpt lat="48.66824" lon="6.08117">
        <ele>385</ele>
        <time>2012-03-22T14:25:20Z</time>
      </trkpt>
      <trkpt lat="48.66819" lon="6.08112">
        <ele>382</ele>
        <time>2012-03-22T14:25:22Z</time>
      </trkpt>
      <trkpt lat="48.66803" lon="6.08098">
        <ele>386</ele>
        <time>2012-03-22T14:25:28Z</time>
      </trkpt>
      <trkpt lat="48.6679" lon="6.08087">
        <ele>383</ele>
        <time>2012-03-22T14:25:32Z</time>
      </trkpt>
      <trkpt lat="48.66783" lon="6.08081">
        <ele>383</ele>
        <time>2012-03-22T14:25:34Z</time>
      </trkpt>
      <trkpt lat="48.6678" lon="6.08077">
        <ele>385</ele>
        <time>2012-03-22T14:25:35Z</time>
      </trkpt>
      <trkpt lat="48.66772" lon="6.08069">
        <ele>389</ele>
        <time>2012-03-22T14:25:38Z</time>
      </trkpt>
      <trkpt lat="48.66766" lon="6.08061">
        <ele>387</ele>
        <time>2012-03-22T14:25:40Z</time>
      </trkpt>
      <trkpt lat="48.6676" lon="6.08052">
        <ele>378</ele>
        <time>2012-03-22T14:25:42Z</time>
      </trkpt>
      <trkpt lat="48.66753" lon="6.08044">
        <ele>377</ele>
        <time>2012-03-22T14:25:44Z</time>
      </trkpt>
      <trkpt lat="48.66747" lon="6.0804">
        <ele>371</ele>
        <time>2012-03-22T14:25:46Z</time>
      </trkpt>
      <trkpt lat="48.6674" lon="6.0804">
        <ele>370</ele>
        <time>2012-03-22T14:25:48Z</time>
      </trkpt>
      <trkpt lat="48.66734" lon="6.08048">
        <ele>368</ele>
        <time>2012-03-22T14:25:50Z</time>
      </trkpt>
      <trkpt lat="48.66733" lon="6.08055">
        <ele>363</ele>
        <time>2012-03-22T14:25:52Z</time>
      </trkpt>
      <trkpt lat="48.66733" lon="6.08064">
        <ele>365</ele>
        <time>2012-03-22T14:25:54Z</time>
      </trkpt>
      <trkpt lat="48.66732" lon="6.08075">
        <ele>366</ele>
        <time>2012-03-22T14:25:56Z</time>
      </trkpt>
      <trkpt lat="48.66733" lon="6.08087">
        <ele>364</ele>
        <time>2012-03-22T14:25:58Z</time>
      </trkpt>
      <trkpt lat="48.66733" lon="6.08101">
        <ele>367</ele>
        <time>2012-03-22T14:26:00Z</time>
      </trkpt>
      <trkpt lat="48.66734" lon="6.08116">
        <ele>369</ele>
        <time>2012-03-22T14:26:02Z</time>
      </trkpt>
      <trkpt lat="48.66734" lon="6.08132">
        <ele>365</ele>
        <time>2012-03-22T14:26:04Z</time>
      </trkpt>
      <trkpt lat="48.66734" lon="6.08148">
        <ele>363</ele>
        <time>2012-03-22T14:26:06Z</time>
      </trkpt>
      <trkpt lat="48.66735" lon="6.08164">
        <ele>362</ele>
        <time>2012-03-22T14:26:08Z</time>
      </trkpt>
      <trkpt lat="48.66736" lon="6.0818">
        <ele>366</ele>
        <time>2012-03-22T14:26:10Z</time>
      </trkpt>
      <trkpt lat="48.66737" lon="6.08196">
        <ele>366</ele>
        <time>2012-03-22T14:26:12Z</time>
      </trkpt>
      <trkpt lat="48.66738" lon="6.08214">
        <ele>362</ele>
        <time>2012-03-22T14:26:14Z</time>
      </trkpt>
      <trkpt lat="48.6674" lon="6.08236">
        <ele>364</ele>
        <time>2012-03-22T14:26:16Z</time>
      </trkpt>
      <trkpt lat="48.66741" lon="6.08257">
        <ele>365</ele>
        <time>2012-03-22T14:26:18Z</time>
      </trkpt>
      <trkpt lat="48.66741" lon="6.08279">
        <ele>364</ele>
        <time>2012-03-22T14:26:20Z</time>
      </trkpt>
      <trkpt lat="48.6674" lon="6.08315">
        <ele>363</ele>
        <time>2012-03-22T14:26:23Z</time>
      </trkpt>
      <trkpt lat="48.6674" lon="6.08328">
        <ele>360</ele>
        <time>2012-03-22T14:26:24Z</time>
      </trkpt>
      <trkpt lat="48.6674" lon="6.08355">
        <ele>356</ele>
        <time>2012-03-22T14:26:26Z</time>
      </trkpt>
      <trkpt lat="48.66741" lon="6.08384">
        <ele>356</ele>
        <time>2012-03-22T14:26:28Z</time>
      </trkpt>
      <trkpt lat="48.66742" lon="6.08409">
        <ele>354</ele>
        <time>2012-03-22T14:26:30Z</time>
      </trkpt>
      <trkpt lat="48.66744" lon="6.0843">
        <ele>353</ele>
        <time>2012-03-22T14:26:32Z</time>
      </trkpt>
      <trkpt lat="48.66746" lon="6.08449">
        <ele>351</ele>
        <time>2012-03-22T14:26:34Z</time>
      </trkpt>
      <trkpt lat="48.66747" lon="6.0847">
        <ele>348</ele>
        <time>2012-03-22T14:26:36Z</time>
      </trkpt>
      <trkpt lat="48.66747" lon="6.08492">
        <ele>349</ele>
        <time>2012-03-22T14:26:38Z</time>
      </trkpt>
      <trkpt lat="48.66746" lon="6.08515">
        <ele>347</ele>
        <time>2012-03-22T14:26:40Z</time>
      </trkpt>
      <trkpt lat="48.66746" lon="6.08538">
        <ele>347</ele>
        <time>2012-03-22T14:26:42Z</time>
      </trkpt>
      <trkpt lat="48.66746" lon="6.08561">
        <ele>347</ele>
        <time>2012-03-22T14:26:44Z</time>
      </trkpt>
      <trkpt lat="48.66747" lon="6.08601">
        <ele>346</ele>
        <time>2012-03-22T14:26:48Z</time>
      </trkpt>
      <trkpt lat="48.66747" lon="6.08614">
        <ele>346</ele>
        <time>2012-03-22T14:26:50Z</time>
      </trkpt>
      <trkpt lat="48.66747" lon="6.08626">
        <ele>346</ele>
        <time>2012-03-22T14:26:52Z</time>
      </trkpt>
      <trkpt lat="48.66748" lon="6.08637">
        <ele>349</ele>
        <time>2012-03-22T14:26:54Z</time>
      </trkpt>
      <trkpt lat="48.66748" lon="6.08645">
        <ele>350</ele>
        <time>2012-03-22T14:26:56Z</time>
      </trkpt>
      <trkpt lat="48.66749" lon="6.08653">
        <ele>349</ele>
        <time>2012-03-22T14:26:58Z</time>
      </trkpt>
      <trkpt lat="48.66751" lon="6.0866">
        <ele>352</ele>
        <time>2012-03-22T14:27:00Z</time>
      </trkpt>
      <trkpt lat="48.66752" lon="6.08667">
        <ele>355</ele>
        <time>2012-03-22T14:27:02Z</time>
      </trkpt>
      <trkpt lat="48.66753" lon="6.08675">
        <ele>354</ele>
        <time>2012-03-22T14:27:04Z</time>
      </trkpt>
      <trkpt lat="48.66754" lon="6.08685">
        <ele>351</ele>
        <time>2012-03-22T14:27:06Z</time>
      </trkpt>
      <trkpt lat="48.66755" lon="6.08693">
        <ele>353</ele>
        <time>2012-03-22T14:27:08Z</time>
      </trkpt>
      <trkpt lat="48.66755" lon="6.08701">
        <ele>354</ele>
        <time>2012-03-22T14:27:10Z</time>
      </trkpt>
      <trkpt lat="48.66755" lon="6.08709">
        <ele>356</ele>
        <time>2012-03-22T14:27:12Z</time>
      </trkpt>
      <trkpt lat="48.66755" lon="6.08716">
        <ele>358</ele>
        <time>2012-03-22T14:27:14Z</time>
      </trkpt>
      <trkpt lat="48.66755" lon="6.08723">
        <ele>359</ele>
        <time>2012-03-22T14:27:16Z</time>
      </trkpt>
      <trkpt lat="48.66755" lon="6.08732">
        <ele>358</ele>
        <time>2012-03-22T14:27:18Z</time>
      </trkpt>
      <trkpt lat="48.66755" lon="6.0874">
        <ele>358</ele>
        <time>2012-03-22T14:27:20Z</time>
      </trkpt>
      <trkpt lat="48.66754" lon="6.08748">
        <ele>357</ele>
        <time>2012-03-22T14:27:22Z</time>
      </trkpt>
      <trkpt lat="48.66754" lon="6.08757">
        <ele>357</ele>
        <time>2012-03-22T14:27:24Z</time>
      </trkpt>
      <trkpt lat="48.66754" lon="6.08768">
        <ele>357</ele>
        <time>2012-03-22T14:27:26Z</time>
      </trkpt>
      <trkpt lat="48.66755" lon="6.0878">
        <ele>353</ele>
        <time>2012-03-22T14:27:28Z</time>
      </trkpt>
      <trkpt lat="48.66755" lon="6.08794">
        <ele>352</ele>
        <time>2012-03-22T14:27:30Z</time>
      </trkpt>
      <trkpt lat="48.66753" lon="6.08806">
        <ele>353</ele>
        <time>2012-03-22T14:27:32Z</time>
      </trkpt>
      <trkpt lat="48.66752" lon="6.08818">
        <ele>353</ele>
        <time>2012-03-22T14:27:34Z</time>
      </trkpt>
      <trkpt lat="48.66752" lon="6.08823">
        <ele>353</ele>
        <time>2012-03-22T14:27:35Z</time>
      </trkpt>
      <trkpt lat="48.66752" lon="6.08827">
        <ele>354</ele>
        <time>2012-03-22T14:27:36Z</time>
      </trkpt>
      <trkpt lat="48.66752" lon="6.08838">
        <ele>354</ele>
        <time>2012-03-22T14:27:38Z</time>
      </trkpt>
      <trkpt lat="48.66751" lon="6.08847">
        <ele>355</ele>
        <time>2012-03-22T14:27:40Z</time>
      </trkpt>
      <trkpt lat="48.66752" lon="6.08856">
        <ele>358</ele>
        <time>2012-03-22T14:27:42Z</time>
      </trkpt>
      <trkpt lat="48.66752" lon="6.08867">
        <ele>361</ele>
        <time>2012-03-22T14:27:44Z</time>
      </trkpt>
      <trkpt lat="48.66752" lon="6.0888">
        <ele>363</ele>
        <time>2012-03-22T14:27:46Z</time>
      </trkpt>
      <trkpt lat="48.66752" lon="6.08895">
        <ele>359</ele>
        <time>2012-03-22T14:27:48Z</time>
      </trkpt>
      <trkpt lat="48.66751" lon="6.08909">
        <ele>358</ele>
        <time>2012-03-22T14:27:50Z</time>
      </trkpt>
      <trkpt lat="48.66747" lon="6.08921">
        <ele>359</ele>
        <time>2012-03-22T14:27:52Z</time>
      </trkpt>
      <trkpt lat="48.66743" lon="6.08936">
        <ele>359</ele>
        <time>2012-03-22T14:27:54Z</time>
      </trkpt>
      <trkpt lat="48.66737" lon="6.08949">
        <ele>357</ele>
        <time>2012-03-22T14:27:56Z</time>
      </trkpt>
      <trkpt lat="48.66734" lon="6.08955">
        <ele>357</ele>
        <time>2012-03-22T14:27:57Z</time>
      </trkpt>
      <trkpt lat="48.6673" lon="6.0896">
        <ele>359</ele>
        <time>2012-03-22T14:27:58Z</time>
      </trkpt>
      <trkpt lat="48.66721" lon="6.0897">
        <ele>361</ele>
        <time>2012-03-22T14:28:00Z</time>
      </trkpt>
      <trkpt lat="48.66711" lon="6.08981">
        <ele>361</ele>
        <time>2012-03-22T14:28:02Z</time>
      </trkpt>
      <trkpt lat="48.667" lon="6.08995">
        <ele>362</ele>
        <time>2012-03-22T14:28:04Z</time>
      </trkpt>
      <trkpt lat="48.66686" lon="6.09005">
        <ele>355</ele>
        <time>2012-03-22T14:28:06Z</time>
      </trkpt>
      <trkpt lat="48.6667" lon="6.09013">
        <ele>362</ele>
        <time>2012-03-22T14:28:08Z</time>
      </trkpt>
      <trkpt lat="48.66656" lon="6.09023">
        <ele>360</ele>
        <time>2012-03-22T14:28:10Z</time>
      </trkpt>
      <trkpt lat="48.66649" lon="6.09041">
        <ele>355</ele>
        <time>2012-03-22T14:28:12Z</time>
      </trkpt>
      <trkpt lat="48.6665" lon="6.09059">
        <ele>353</ele>
        <time>2012-03-22T14:28:14Z</time>
      </trkpt>
      <trkpt lat="48.66655" lon="6.09077">
        <ele>348</ele>
        <time>2012-03-22T14:28:16Z</time>
      </trkpt>
      <trkpt lat="48.66664" lon="6.09095">
        <ele>344</ele>
        <time>2012-03-22T14:28:18Z</time>
      </trkpt>
      <trkpt lat="48.66669" lon="6.09102">
        <ele>344</ele>
        <time>2012-03-22T14:28:19Z</time>
      </trkpt>
      <trkpt lat="48.66673" lon="6.09109">
        <ele>341</ele>
        <time>2012-03-22T14:28:20Z</time>
      </trkpt>
      <trkpt lat="48.6668" lon="6.09118">
        <ele>343</ele>
        <time>2012-03-22T14:28:22Z</time>
      </trkpt>
      <trkpt lat="48.66689" lon="6.09126">
        <ele>336</ele>
        <time>2012-03-22T14:28:26Z</time>
      </trkpt>
      <trkpt lat="48.66693" lon="6.09129">
        <ele>335</ele>
        <time>2012-03-22T14:28:28Z</time>
      </trkpt>
      <trkpt lat="48.66699" lon="6.09131">
        <ele>336</ele>
        <time>2012-03-22T14:28:30Z</time>
      </trkpt>
      <trkpt lat="48.66703" lon="6.09133">
        <ele>338</ele>
        <time>2012-03-22T14:28:32Z</time>
      </trkpt>
      <trkpt lat="48.66708" lon="6.09136">
        <ele>334</ele>
        <time>2012-03-22T14:28:34Z</time>
      </trkpt>
      <trkpt lat="48.66723" lon="6.09143">
        <ele>335</ele>
        <time>2012-03-22T14:28:40Z</time>
      </trkpt>
      <trkpt lat="48.66728" lon="6.09143">
        <ele>332</ele>
        <time>2012-03-22T14:28:42Z</time>
      </trkpt>
      <trkpt lat="48.66733" lon="6.09143">
        <ele>331</ele>
        <time>2012-03-22T14:28:45Z</time>
      </trkpt>
      <trkpt lat="48.66735" lon="6.09143">
        <ele>329</ele>
        <time>2012-03-22T14:28:46Z</time>
      </trkpt>
      <trkpt lat="48.66744" lon="6.09141">
        <ele>333</ele>
        <time>2012-03-22T14:28:50Z</time>
      </trkpt>
      <trkpt lat="48.66758" lon="6.09134">
        <ele>336</ele>
        <time>2012-03-22T14:28:56Z</time>
      </trkpt>
      <trkpt lat="48.66765" lon="6.0913">
        <ele>336</ele>
        <time>2012-03-22T14:28:58Z</time>
      </trkpt>
      <trkpt lat="48.6677" lon="6.09127">
        <ele>339</ele>
        <time>2012-03-22T14:29:00Z</time>
      </trkpt>
      <trkpt lat="48.66776" lon="6.09126">
        <ele>343</ele>
        <time>2012-03-22T14:29:02Z</time>
      </trkpt>
      <trkpt lat="48.66782" lon="6.09127">
        <ele>347</ele>
        <time>2012-03-22T14:29:04Z</time>
      </trkpt>
      <trkpt lat="48.66787" lon="6.09127">
        <ele>351</ele>
        <time>2012-03-22T14:29:06Z</time>
      </trkpt>
      <trkpt lat="48.66792" lon="6.09128">
        <ele>350</ele>
        <time>2012-03-22T14:29:08Z</time>
      </trkpt>
      <trkpt lat="48.668" lon="6.09127">
        <ele>355</ele>
        <time>2012-03-22T14:29:11Z</time>
      </trkpt>
      <trkpt lat="48.6681" lon="6.0913">
        <ele>349</ele>
        <time>2012-03-22T14:29:16Z</time>
      </trkpt>
      <trkpt lat="48.66828" lon="6.09158">
        <ele>356</ele>
        <time>2012-03-22T14:29:30Z</time>
      </trkpt>
      <trkpt lat="48.6683" lon="6.09163">
        <ele>355</ele>
        <time>2012-03-22T14:29:32Z</time>
      </trkpt>
      <trkpt lat="48.66831" lon="6.0917">
        <ele>356</ele>
        <time>2012-03-22T14:29:34Z</time>
      </trkpt>
      <trkpt lat="48.66831" lon="6.09178">
        <ele>354</ele>
        <time>2012-03-22T14:29:37Z</time>
      </trkpt>
      <trkpt lat="48.66831" lon="6.09182">
        <ele>356</ele>
        <time>2012-03-22T14:29:38Z</time>
      </trkpt>
      <trkpt lat="48.6683" lon="6.09188">
        <ele>355</ele>
        <time>2012-03-22T14:29:40Z</time>
      </trkpt>
      <trkpt lat="48.66828" lon="6.09193">
        <ele>355</ele>
        <time>2012-03-22T14:29:42Z</time>
      </trkpt>
      <trkpt lat="48.66823" lon="6.0921">
        <ele>356</ele>
        <time>2012-03-22T14:29:48Z</time>
      </trkpt>
      <trkpt lat="48.66821" lon="6.09214">
        <ele>357</ele>
        <time>2012-03-22T14:29:50Z</time>
      </trkpt>
      <trkpt lat="48.66819" lon="6.09218">
        <ele>355</ele>
        <time>2012-03-22T14:29:52Z</time>
      </trkpt>
      <trkpt lat="48.66813" lon="6.09225">
        <ele>354</ele>
        <time>2012-03-22T14:29:56Z</time>
      </trkpt>
      <trkpt lat="48.66811" lon="6.09228">
        <ele>354</ele>
        <time>2012-03-22T14:29:58Z</time>
      </trkpt>
      <trkpt lat="48.66803" lon="6.09238">
        <ele>353</ele>
        <time>2012-03-22T14:30:04Z</time>
      </trkpt>
      <trkpt lat="48.66793" lon="6.09249">
        <ele>363</ele>
        <time>2012-03-22T14:30:10Z</time>
      </trkpt>
      <trkpt lat="48.66789" lon="6.09253">
        <ele>362</ele>
        <time>2012-03-22T14:30:12Z</time>
      </trkpt>
      <trkpt lat="48.66783" lon="6.09257">
        <ele>362</ele>
        <time>2012-03-22T14:30:14Z</time>
      </trkpt>
      <trkpt lat="48.66778" lon="6.0926">
        <ele>360</ele>
        <time>2012-03-22T14:30:16Z</time>
      </trkpt>
      <trkpt lat="48.66771" lon="6.09266">
        <ele>358</ele>
        <time>2012-03-22T14:30:20Z</time>
      </trkpt>
      <trkpt lat="48.66767" lon="6.09273">
        <ele>360</ele>
        <time>2012-03-22T14:30:24Z</time>
      </trkpt>
      <trkpt lat="48.66764" lon="6.09278">
        <ele>364</ele>
        <time>2012-03-22T14:30:26Z</time>
      </trkpt>
      <trkpt lat="48.66762" lon="6.09281">
        <ele>365</ele>
        <time>2012-03-22T14:30:27Z</time>
      </trkpt>
      <trkpt lat="48.66761" lon="6.09284">
        <ele>364</ele>
        <time>2012-03-22T14:30:28Z</time>
      </trkpt>
      <trkpt lat="48.66761" lon="6.0929">
        <ele>361</ele>
        <time>2012-03-22T14:30:30Z</time>
      </trkpt>
      <trkpt lat="48.66761" lon="6.09297">
        <ele>361</ele>
        <time>2012-03-22T14:30:32Z</time>
      </trkpt>
      <trkpt lat="48.6676" lon="6.09305">
        <ele>360</ele>
        <time>2012-03-22T14:30:34Z</time>
      </trkpt>
      <trkpt lat="48.6676" lon="6.09321">
        <ele>361</ele>
        <time>2012-03-22T14:30:40Z</time>
      </trkpt>
      <trkpt lat="48.6676" lon="6.09327">
        <ele>365</ele>
        <time>2012-03-22T14:30:42Z</time>
      </trkpt>
      <trkpt lat="48.66759" lon="6.0934">
        <ele>365</ele>
        <time>2012-03-22T14:30:46Z</time>
      </trkpt>
      <trkpt lat="48.66761" lon="6.09351">
        <ele>371</ele>
        <time>2012-03-22T14:30:50Z</time>
      </trkpt>
      <trkpt lat="48.6676" lon="6.09354">
        <ele>373</ele>
        <time>2012-03-22T14:30:51Z</time>
      </trkpt>
      <trkpt lat="48.66759" lon="6.09357">
        <ele>371</ele>
        <time>2012-03-22T14:30:52Z</time>
      </trkpt>
      <trkpt lat="48.66758" lon="6.09362">
        <ele>374</ele>
        <time>2012-03-22T14:30:54Z</time>
      </trkpt>
      <trkpt lat="48.66758" lon="6.09369">
        <ele>375</ele>
        <time>2012-03-22T14:30:56Z</time>
      </trkpt>
      <trkpt lat="48.66758" lon="6.09386">
        <ele>372</ele>
        <time>2012-03-22T14:31:00Z</time>
      </trkpt>
      <trkpt lat="48.66758" lon="6.09393">
        <ele>371</ele>
        <time>2012-03-22T14:31:02Z</time>
      </trkpt>
      <trkpt lat="48.66758" lon="6.09401">
        <ele>370</ele>
        <time>2012-03-22T14:31:04Z</time>
      </trkpt>
      <trkpt lat="48.66757" lon="6.09409">
        <ele>370</ele>
        <time>2012-03-22T14:31:06Z</time>
      </trkpt>
      <trkpt lat="48.66758" lon="6.09417">
        <ele>370</ele>
        <time>2012-03-22T14:31:08Z</time>
      </trkpt>
      <trkpt lat="48.66757" lon="6.09432">
        <ele>369</ele>
        <time>2012-03-22T14:31:12Z</time>
      </trkpt>
      <trkpt lat="48.66757" lon="6.09456">
        <ele>372</ele>
        <time>2012-03-22T14:31:18Z</time>
      </trkpt>
      <trkpt lat="48.66757" lon="6.09465">
        <ele>373</ele>
        <time>2012-03-22T14:31:20Z</time>
      </trkpt>
      <trkpt lat="48.66755" lon="6.09473">
        <ele>373</ele>
        <time>2012-03-22T14:31:22Z</time>
      </trkpt>
      <trkpt lat="48.66756" lon="6.09483">
        <ele>375</ele>
        <time>2012-03-22T14:31:24Z</time>
      </trkpt>
      <trkpt lat="48.66755" lon="6.09491">
        <ele>376</ele>
        <time>2012-03-22T14:31:26Z</time>
      </trkpt>
      <trkpt lat="48.66755" lon="6.09499">
        <ele>373</ele>
        <time>2012-03-22T14:31:28Z</time>
      </trkpt>
      <trkpt lat="48.66755" lon="6.09507">
        <ele>374</ele>
        <time>2012-03-22T14:31:30Z</time>
      </trkpt>
      <trkpt lat="48.66754" lon="6.09514">
        <ele>375</ele>
        <time>2012-03-22T14:31:32Z</time>
      </trkpt>
      <trkpt lat="48.66754" lon="6.09523">
        <ele>376</ele>
        <time>2012-03-22T14:31:34Z</time>
      </trkpt>
      <trkpt lat="48.66755" lon="6.09532">
        <ele>377</ele>
        <time>2012-03-22T14:31:36Z</time>
      </trkpt>
      <trkpt lat="48.66754" lon="6.0954">
        <ele>379</ele>
        <time>2012-03-22T14:31:38Z</time>
      </trkpt>
      <trkpt lat="48.66753" lon="6.09552">
        <ele>381</ele>
        <time>2012-03-22T14:31:41Z</time>
      </trkpt>
      <trkpt lat="48.66753" lon="6.09557">
        <ele>382</ele>
        <time>2012-03-22T14:31:42Z</time>
      </trkpt>
      <trkpt lat="48.66754" lon="6.09569">
        <ele>384</ele>
        <time>2012-03-22T14:31:44Z</time>
      </trkpt>
      <trkpt lat="48.66754" lon="6.09582">
        <ele>383</ele>
        <time>2012-03-22T14:31:46Z</time>
      </trkpt>
      <trkpt lat="48.66755" lon="6.09593">
        <ele>381</ele>
        <time>2012-03-22T14:31:48Z</time>
      </trkpt>
      <trkpt lat="48.66756" lon="6.09604">
        <ele>378</ele>
        <time>2012-03-22T14:31:50Z</time>
      </trkpt>
      <trkpt lat="48.66757" lon="6.09615">
        <ele>377</ele>
        <time>2012-03-22T14:31:52Z</time>
      </trkpt>
      <trkpt lat="48.66759" lon="6.09628">
        <ele>375</ele>
        <time>2012-03-22T14:31:54Z</time>
      </trkpt>
      <trkpt lat="48.66759" lon="6.09641">
        <ele>376</ele>
        <time>2012-03-22T14:31:56Z</time>
      </trkpt>
      <trkpt lat="48.66759" lon="6.09654">
        <ele>373</ele>
        <time>2012-03-22T14:31:58Z</time>
      </trkpt>
      <trkpt lat="48.66758" lon="6.09668">
        <ele>373</ele>
        <time>2012-03-22T14:32:00Z</time>
      </trkpt>
      <trkpt lat="48.66758" lon="6.09683">
        <ele>373</ele>
        <time>2012-03-22T14:32:02Z</time>
      </trkpt>
      <trkpt lat="48.66755" lon="6.09706">
        <ele>374</ele>
        <time>2012-03-22T14:32:05Z</time>
      </trkpt>
      <trkpt lat="48.66755" lon="6.09714">
        <ele>372</ele>
        <time>2012-03-22T14:32:06Z</time>
      </trkpt>
      <trkpt lat="48.66753" lon="6.09729">
        <ele>370</ele>
        <time>2012-03-22T14:32:08Z</time>
      </trkpt>
      <trkpt lat="48.66752" lon="6.0975">
        <ele>373</ele>
        <time>2012-03-22T14:32:12Z</time>
      </trkpt>
      <trkpt lat="48.66753" lon="6.09772">
        <ele>374</ele>
        <time>2012-03-22T14:32:16Z</time>
      </trkpt>
      <trkpt lat="48.66753" lon="6.09783">
        <ele>373</ele>
        <time>2012-03-22T14:32:18Z</time>
      </trkpt>
      <trkpt lat="48.66752" lon="6.09794">
        <ele>372</ele>
        <time>2012-03-22T14:32:20Z</time>
      </trkpt>
      <trkpt lat="48.66752" lon="6.09806">
        <ele>372</ele>
        <time>2012-03-22T14:32:22Z</time>
      </trkpt>
      <trkpt lat="48.66754" lon="6.09821">
        <ele>370</ele>
        <time>2012-03-22T14:32:24Z</time>
      </trkpt>
      <trkpt lat="48.66755" lon="6.09836">
        <ele>369</ele>
        <time>2012-03-22T14:32:26Z</time>
      </trkpt>
      <trkpt lat="48.66753" lon="6.09842">
        <ele>368</ele>
        <time>2012-03-22T14:32:27Z</time>
      </trkpt>
      <trkpt lat="48.66752" lon="6.0986">
        <ele>367</ele>
        <time>2012-03-22T14:32:30Z</time>
      </trkpt>
      <trkpt lat="48.66753" lon="6.09873">
        <ele>370</ele>
        <time>2012-03-22T14:32:32Z</time>
      </trkpt>
      <trkpt lat="48.66753" lon="6.09887">
        <ele>371</ele>
        <time>2012-03-22T14:32:34Z</time>
      </trkpt>
      <trkpt lat="48.66753" lon="6.09899">
        <ele>371</ele>
        <time>2012-03-22T14:32:36Z</time>
      </trkpt>
      <trkpt lat="48.66753" lon="6.0991">
        <ele>372</ele>
        <time>2012-03-22T14:32:38Z</time>
      </trkpt>
      <trkpt lat="48.66754" lon="6.09921">
        <ele>375</ele>
        <time>2012-03-22T14:32:40Z</time>
      </trkpt>
      <trkpt lat="48.66754" lon="6.09931">
        <ele>377</ele>
        <time>2012-03-22T14:32:42Z</time>
      </trkpt>
      <trkpt lat="48.66755" lon="6.09945">
        <ele>377</ele>
        <time>2012-03-22T14:32:44Z</time>
      </trkpt>
      <trkpt lat="48.66755" lon="6.09957">
        <ele>377</ele>
        <time>2012-03-22T14:32:46Z</time>
      </trkpt>
      <trkpt lat="48.66754" lon="6.0997">
        <ele>375</ele>
        <time>2012-03-22T14:32:48Z</time>
      </trkpt>
      <trkpt lat="48.66754" lon="6.09984">
        <ele>376</ele>
        <time>2012-03-22T14:32:50Z</time>
      </trkpt>
      <trkpt lat="48.66755" lon="6.10013">
        <ele>374</ele>
        <time>2012-03-22T14:32:54Z</time>
      </trkpt>
      <trkpt lat="48.66754" lon="6.10028">
        <ele>374</ele>
        <time>2012-03-22T14:32:56Z</time>
      </trkpt>
      <trkpt lat="48.66752" lon="6.10043">
        <ele>372</ele>
        <time>2012-03-22T14:32:58Z</time>
      </trkpt>
      <trkpt lat="48.6675" lon="6.10055">
        <ele>373</ele>
        <time>2012-03-22T14:33:00Z</time>
      </trkpt>
      <trkpt lat="48.66751" lon="6.1007">
        <ele>377</ele>
        <time>2012-03-22T14:33:02Z</time>
      </trkpt>
      <trkpt lat="48.6675" lon="6.10086">
        <ele>377</ele>
        <time>2012-03-22T14:33:04Z</time>
      </trkpt>
      <trkpt lat="48.6675" lon="6.10105">
        <ele>377</ele>
        <time>2012-03-22T14:33:06Z</time>
      </trkpt>
      <trkpt lat="48.66749" lon="6.10125">
        <ele>375</ele>
        <time>2012-03-22T14:33:08Z</time>
      </trkpt>
      <trkpt lat="48.6675" lon="6.10147">
        <ele>372</ele>
        <time>2012-03-22T14:33:10Z</time>
      </trkpt>
      <trkpt lat="48.66752" lon="6.10165">
        <ele>374</ele>
        <time>2012-03-22T14:33:12Z</time>
      </trkpt>
      <trkpt lat="48.66753" lon="6.10188">
        <ele>377</ele>
        <time>2012-03-22T14:33:14Z</time>
      </trkpt>
      <trkpt lat="48.66752" lon="6.1022">
        <ele>373</ele>
        <time>2012-03-22T14:33:17Z</time>
      </trkpt>
      <trkpt lat="48.66752" lon="6.10232">
        <ele>372</ele>
        <time>2012-03-22T14:33:18Z</time>
      </trkpt>
      <trkpt lat="48.66751" lon="6.10253">
        <ele>372</ele>
        <time>2012-03-22T14:33:20Z</time>
      </trkpt>
      <trkpt lat="48.6675" lon="6.10275">
        <ele>371</ele>
        <time>2012-03-22T14:33:22Z</time>
      </trkpt>
      <trkpt lat="48.66751" lon="6.10299">
        <ele>373</ele>
        <time>2012-03-22T14:33:24Z</time>
      </trkpt>
      <trkpt lat="48.66749" lon="6.10323">
        <ele>374</ele>
        <time>2012-03-22T14:33:26Z</time>
      </trkpt>
      <trkpt lat="48.66748" lon="6.10348">
        <ele>374</ele>
        <time>2012-03-22T14:33:28Z</time>
      </trkpt>
      <trkpt lat="48.66748" lon="6.10376">
        <ele>369</ele>
        <time>2012-03-22T14:33:30Z</time>
      </trkpt>
      <trkpt lat="48.66748" lon="6.10403">
        <ele>367</ele>
        <time>2012-03-22T14:33:32Z</time>
      </trkpt>
      <trkpt lat="48.66748" lon="6.10429">
        <ele>367</ele>
        <time>2012-03-22T14:33:34Z</time>
      </trkpt>
      <trkpt lat="48.66748" lon="6.10457">
        <ele>366</ele>
        <time>2012-03-22T14:33:36Z</time>
      </trkpt>
      <trkpt lat="48.66747" lon="6.10487">
        <ele>362</ele>
        <time>2012-03-22T14:33:38Z</time>
      </trkpt>
      <trkpt lat="48.66746" lon="6.10533">
        <ele>359</ele>
        <time>2012-03-22T14:33:41Z</time>
      </trkpt>
      <trkpt lat="48.66747" lon="6.10547">
        <ele>359</ele>
        <time>2012-03-22T14:33:42Z</time>
      </trkpt>
      <trkpt lat="48.66746" lon="6.10574">
        <ele>360</ele>
        <time>2012-03-22T14:33:44Z</time>
      </trkpt>
      <trkpt lat="48.66746" lon="6.10601">
        <ele>361</ele>
        <time>2012-03-22T14:33:46Z</time>
      </trkpt>
      <trkpt lat="48.66744" lon="6.10649">
        <ele>364</ele>
        <time>2012-03-22T14:33:50Z</time>
      </trkpt>
      <trkpt lat="48.66744" lon="6.1068">
        <ele>363</ele>
        <time>2012-03-22T14:33:52Z</time>
      </trkpt>
      <trkpt lat="48.66744" lon="6.10704">
        <ele>361</ele>
        <time>2012-03-22T14:33:54Z</time>
      </trkpt>
      <trkpt lat="48.66746" lon="6.10733">
        <ele>360</ele>
        <time>2012-03-22T14:33:56Z</time>
      </trkpt>
      <trkpt lat="48.66745" lon="6.10758">
        <ele>359</ele>
        <time>2012-03-22T14:33:58Z</time>
      </trkpt>
      <trkpt lat="48.66742" lon="6.1078">
        <ele>360</ele>
        <time>2012-03-22T14:34:00Z</time>
      </trkpt>
      <trkpt lat="48.66742" lon="6.10805">
        <ele>357</ele>
        <time>2012-03-22T14:34:02Z</time>
      </trkpt>
      <trkpt lat="48.66748" lon="6.10862">
        <ele>357</ele>
        <time>2012-03-22T14:34:06Z</time>
      </trkpt>
      <trkpt lat="48.66748" lon="6.10887">
        <ele>358</ele>
        <time>2012-03-22T14:34:08Z</time>
      </trkpt>
      <trkpt lat="48.66748" lon="6.10902">
        <ele>356</ele>
        <time>2012-03-22T14:34:10Z</time>
      </trkpt>
      <trkpt lat="48.66748" lon="6.10926">
        <ele>356</ele>
        <time>2012-03-22T14:34:12Z</time>
      </trkpt>
      <trkpt lat="48.66748" lon="6.1095">
        <ele>355</ele>
        <time>2012-03-22T14:34:14Z</time>
      </trkpt>
      <trkpt lat="48.66748" lon="6.10973">
        <ele>356</ele>
        <time>2012-03-22T14:34:16Z</time>
      </trkpt>
      <trkpt lat="48.66747" lon="6.10994">
        <ele>356</ele>
        <time>2012-03-22T14:34:18Z</time>
      </trkpt>
      <trkpt lat="48.66746" lon="6.11015">
        <ele>354</ele>
        <time>2012-03-22T14:34:20Z</time>
      </trkpt>
      <trkpt lat="48.66745" lon="6.11034">
        <ele>353</ele>
        <time>2012-03-22T14:34:22Z</time>
      </trkpt>
      <trkpt lat="48.66744" lon="6.11052">
        <ele>354</ele>
        <time>2012-03-22T14:34:24Z</time>
      </trkpt>
      <trkpt lat="48.66744" lon="6.11072">
        <ele>353</ele>
        <time>2012-03-22T14:34:26Z</time>
      </trkpt>
      <trkpt lat="48.66744" lon="6.11081">
        <ele>352</ele>
        <time>2012-03-22T14:34:27Z</time>
      </trkpt>
      <trkpt lat="48.66743" lon="6.11089">
        <ele>352</ele>
        <time>2012-03-22T14:34:28Z</time>
      </trkpt>
      <trkpt lat="48.66743" lon="6.11107">
        <ele>352</ele>
        <time>2012-03-22T14:34:30Z</time>
      </trkpt>
      <trkpt lat="48.66742" lon="6.11123">
        <ele>354</ele>
        <time>2012-03-22T14:34:32Z</time>
      </trkpt>
      <trkpt lat="48.66736" lon="6.11132">
        <ele>353</ele>
        <time>2012-03-22T14:34:34Z</time>
      </trkpt>
      <trkpt lat="48.66729" lon="6.11139">
        <ele>355</ele>
        <time>2012-03-22T14:34:36Z</time>
      </trkpt>
      <trkpt lat="48.66723" lon="6.11141">
        <ele>356</ele>
        <time>2012-03-22T14:34:38Z</time>
      </trkpt>
      <trkpt lat="48.66716" lon="6.11143">
        <ele>352</ele>
        <time>2012-03-22T14:34:40Z</time>
      </trkpt>
      <trkpt lat="48.66709" lon="6.11145">
        <ele>349</ele>
        <time>2012-03-22T14:34:42Z</time>
      </trkpt>
      <trkpt lat="48.66701" lon="6.11147">
        <ele>347</ele>
        <time>2012-03-22T14:34:44Z</time>
      </trkpt>
      <trkpt lat="48.66695" lon="6.1115">
        <ele>348</ele>
        <time>2012-03-22T14:34:46Z</time>
      </trkpt>
      <trkpt lat="48.6669" lon="6.11151">
        <ele>346</ele>
        <time>2012-03-22T14:34:47Z</time>
      </trkpt>
      <trkpt lat="48.66678" lon="6.11156">
        <ele>342</ele>
        <time>2012-03-22T14:34:50Z</time>
      </trkpt>
      <trkpt lat="48.6667" lon="6.11159">
        <ele>342</ele>
        <time>2012-03-22T14:34:52Z</time>
      </trkpt>
      <trkpt lat="48.66661" lon="6.11162">
        <ele>343</ele>
        <time>2012-03-22T14:34:54Z</time>
      </trkpt>
      <trkpt lat="48.66653" lon="6.11164">
        <ele>344</ele>
        <time>2012-03-22T14:34:56Z</time>
      </trkpt>
      <trkpt lat="48.66644" lon="6.11166">
        <ele>340</ele>
        <time>2012-03-22T14:34:58Z</time>
      </trkpt>
      <trkpt lat="48.66636" lon="6.11168">
        <ele>339</ele>
        <time>2012-03-22T14:35:00Z</time>
      </trkpt>
      <trkpt lat="48.66628" lon="6.11169">
        <ele>340</ele>
        <time>2012-03-22T14:35:02Z</time>
      </trkpt>
      <trkpt lat="48.6662" lon="6.1117">
        <ele>339</ele>
        <time>2012-03-22T14:35:04Z</time>
      </trkpt>
      <trkpt lat="48.66611" lon="6.11172">
        <ele>340</ele>
        <time>2012-03-22T14:35:06Z</time>
      </trkpt>
      <trkpt lat="48.66602" lon="6.11174">
        <ele>342</ele>
        <time>2012-03-22T14:35:08Z</time>
      </trkpt>
      <trkpt lat="48.66594" lon="6.11177">
        <ele>343</ele>
        <time>2012-03-22T14:35:10Z</time>
      </trkpt>
      <trkpt lat="48.66588" lon="6.11178">
        <ele>341</ele>
        <time>2012-03-22T14:35:11Z</time>
      </trkpt>
      <trkpt lat="48.66584" lon="6.11179">
        <ele>342</ele>
        <time>2012-03-22T14:35:12Z</time>
      </trkpt>
      <trkpt lat="48.66575" lon="6.11181">
        <ele>343</ele>
        <time>2012-03-22T14:35:14Z</time>
      </trkpt>
      <trkpt lat="48.66566" lon="6.11183">
        <ele>344</ele>
        <time>2012-03-22T14:35:16Z</time>
      </trkpt>
      <trkpt lat="48.66555" lon="6.11187">
        <ele>343</ele>
        <time>2012-03-22T14:35:18Z</time>
      </trkpt>
      <trkpt lat="48.66544" lon="6.11191">
        <ele>342</ele>
        <time>2012-03-22T14:35:20Z</time>
      </trkpt>
      <trkpt lat="48.66532" lon="6.11194">
        <ele>341</ele>
        <time>2012-03-22T14:35:22Z</time>
      </trkpt>
      <trkpt lat="48.66525" lon="6.11194">
        <ele>344</ele>
        <time>2012-03-22T14:35:24Z</time>
      </trkpt>
      <trkpt lat="48.66513" lon="6.11196">
        <ele>346</ele>
        <time>2012-03-22T14:35:26Z</time>
      </trkpt>
      <trkpt lat="48.66499" lon="6.11199">
        <ele>350</ele>
        <time>2012-03-22T14:35:28Z</time>
      </trkpt>
      <trkpt lat="48.66486" lon="6.11202">
        <ele>352</ele>
        <time>2012-03-22T14:35:30Z</time>
      </trkpt>
      <trkpt lat="48.66476" lon="6.11206">
        <ele>353</ele>
        <time>2012-03-22T14:35:32Z</time>
      </trkpt>
      <trkpt lat="48.66467" lon="6.11205">
        <ele>350</ele>
        <time>2012-03-22T14:35:34Z</time>
      </trkpt>
      <trkpt lat="48.66458" lon="6.11208">
        <ele>352</ele>
        <time>2012-03-22T14:35:36Z</time>
      </trkpt>
      <trkpt lat="48.66453" lon="6.1121">
        <ele>351</ele>
        <time>2012-03-22T14:35:38Z</time>
      </trkpt>
      <trkpt lat="48.66446" lon="6.11212">
        <ele>352</ele>
        <time>2012-03-22T14:35:40Z</time>
      </trkpt>
      <trkpt lat="48.66438" lon="6.11214">
        <ele>356</ele>
        <time>2012-03-22T14:35:42Z</time>
      </trkpt>
      <trkpt lat="48.66429" lon="6.11217">
        <ele>355</ele>
        <time>2012-03-22T14:35:44Z</time>
      </trkpt>
      <trkpt lat="48.66421" lon="6.11219">
        <ele>356</ele>
        <time>2012-03-22T14:35:46Z</time>
      </trkpt>
      <trkpt lat="48.66415" lon="6.1122">
        <ele>357</ele>
        <time>2012-03-22T14:35:48Z</time>
      </trkpt>
      <trkpt lat="48.66406" lon="6.11223">
        <ele>357</ele>
        <time>2012-03-22T14:35:50Z</time>
      </trkpt>
      <trkpt lat="48.66398" lon="6.11224">
        <ele>358</ele>
        <time>2012-03-22T14:35:52Z</time>
      </trkpt>
      <trkpt lat="48.66388" lon="6.11225">
        <ele>356</ele>
        <time>2012-03-22T14:35:54Z</time>
      </trkpt>
      <trkpt lat="48.66369" lon="6.11229">
        <ele>355</ele>
        <time>2012-03-22T14:35:58Z</time>
      </trkpt>
      <trkpt lat="48.6636" lon="6.11232">
        <ele>357</ele>
        <time>2012-03-22T14:36:00Z</time>
      </trkpt>
      <trkpt lat="48.6634" lon="6.11233">
        <ele>361</ele>
        <time>2012-03-22T14:36:04Z</time>
      </trkpt>
      <trkpt lat="48.66324" lon="6.11234">
        <ele>358</ele>
        <time>2012-03-22T14:36:06Z</time>
      </trkpt>
      <trkpt lat="48.66318" lon="6.11237">
        <ele>357</ele>
        <time>2012-03-22T14:36:07Z</time>
      </trkpt>
      <trkpt lat="48.66313" lon="6.11242">
        <ele>357</ele>
        <time>2012-03-22T14:36:08Z</time>
      </trkpt>
      <trkpt lat="48.66301" lon="6.11246">
        <ele>360</ele>
        <time>2012-03-22T14:36:10Z</time>
      </trkpt>
      <trkpt lat="48.66286" lon="6.11251">
        <ele>360</ele>
        <time>2012-03-22T14:36:12Z</time>
      </trkpt>
      <trkpt lat="48.66273" lon="6.11256">
        <ele>355</ele>
        <time>2012-03-22T14:36:14Z</time>
      </trkpt>
      <trkpt lat="48.66253" lon="6.11255">
        <ele>360</ele>
        <time>2012-03-22T14:36:18Z</time>
      </trkpt>
      <trkpt lat="48.66243" lon="6.1125">
        <ele>359</ele>
        <time>2012-03-22T14:36:20Z</time>
      </trkpt>
      <trkpt lat="48.66233" lon="6.11244">
        <ele>354</ele>
        <time>2012-03-22T14:36:22Z</time>
      </trkpt>
      <trkpt lat="48.66221" lon="6.11235">
        <ele>346</ele>
        <time>2012-03-22T14:36:24Z</time>
      </trkpt>
      <trkpt lat="48.66209" lon="6.11222">
        <ele>343</ele>
        <time>2012-03-22T14:36:26Z</time>
      </trkpt>
      <trkpt lat="48.662" lon="6.1121">
        <ele>340</ele>
        <time>2012-03-22T14:36:28Z</time>
      </trkpt>
      <trkpt lat="48.66192" lon="6.112">
        <ele>343</ele>
        <time>2012-03-22T14:36:30Z</time>
      </trkpt>
      <trkpt lat="48.66185" lon="6.11194">
        <ele>341</ele>
        <time>2012-03-22T14:36:32Z</time>
      </trkpt>
      <trkpt lat="48.6618" lon="6.1119">
        <ele>344</ele>
        <time>2012-03-22T14:36:34Z</time>
      </trkpt>
      <trkpt lat="48.66174" lon="6.11188">
        <ele>345</ele>
        <time>2012-03-22T14:36:36Z</time>
      </trkpt>
      <trkpt lat="48.66169" lon="6.11191">
        <ele>344</ele>
        <time>2012-03-22T14:36:38Z</time>
      </trkpt>
      <trkpt lat="48.66164" lon="6.11202">
        <ele>345</ele>
        <time>2012-03-22T14:36:40Z</time>
      </trkpt>
      <trkpt lat="48.66159" lon="6.11212">
        <ele>347</ele>
        <time>2012-03-22T14:36:42Z</time>
      </trkpt>
      <trkpt lat="48.66156" lon="6.11225">
        <ele>349</ele>
        <time>2012-03-22T14:36:44Z</time>
      </trkpt>
      <trkpt lat="48.6615" lon="6.11234">
        <ele>347</ele>
        <time>2012-03-22T14:36:46Z</time>
      </trkpt>
      <trkpt lat="48.66145" lon="6.1124">
        <ele>353</ele>
        <time>2012-03-22T14:36:48Z</time>
      </trkpt>
      <trkpt lat="48.66143" lon="6.11248">
        <ele>354</ele>
        <time>2012-03-22T14:36:50Z</time>
      </trkpt>
      <trkpt lat="48.66142" lon="6.11257">
        <ele>350</ele>
        <time>2012-03-22T14:36:52Z</time>
      </trkpt>
      <trkpt lat="48.66139" lon="6.11265">
        <ele>353</ele>
        <time>2012-03-22T14:36:54Z</time>
      </trkpt>
      <trkpt lat="48.66136" lon="6.11275">
        <ele>351</ele>
        <time>2012-03-22T14:36:56Z</time>
      </trkpt>
      <trkpt lat="48.6613" lon="6.11285">
        <ele>349</ele>
        <time>2012-03-22T14:36:58Z</time>
      </trkpt>
      <trkpt lat="48.66127" lon="6.11294">
        <ele>349</ele>
        <time>2012-03-22T14:37:00Z</time>
      </trkpt>
      <trkpt lat="48.66117" lon="6.1131">
        <ele>349</ele>
        <time>2012-03-22T14:37:04Z</time>
      </trkpt>
      <trkpt lat="48.66111" lon="6.11318">
        <ele>351</ele>
        <time>2012-03-22T14:37:06Z</time>
      </trkpt>
      <trkpt lat="48.66103" lon="6.11324">
        <ele>351</ele>
        <time>2012-03-22T14:37:08Z</time>
      </trkpt>
      <trkpt lat="48.66095" lon="6.11329">
        <ele>356</ele>
        <time>2012-03-22T14:37:10Z</time>
      </trkpt>
      <trkpt lat="48.66087" lon="6.11335">
        <ele>355</ele>
        <time>2012-03-22T14:37:12Z</time>
      </trkpt>
      <trkpt lat="48.66079" lon="6.11339">
        <ele>354</ele>
        <time>2012-03-22T14:37:14Z</time>
      </trkpt>
      <trkpt lat="48.66073" lon="6.11342">
        <ele>353</ele>
        <time>2012-03-22T14:37:16Z</time>
      </trkpt>
      <trkpt lat="48.66066" lon="6.11345">
        <ele>352</ele>
        <time>2012-03-22T14:37:18Z</time>
      </trkpt>
      <trkpt lat="48.66058" lon="6.11347">
        <ele>353</ele>
        <time>2012-03-22T14:37:20Z</time>
      </trkpt>
      <trkpt lat="48.66049" lon="6.1135">
        <ele>356</ele>
        <time>2012-03-22T14:37:22Z</time>
      </trkpt>
      <trkpt lat="48.66042" lon="6.11356">
        <ele>355</ele>
        <time>2012-03-22T14:37:24Z</time>
      </trkpt>
      <trkpt lat="48.66025" lon="6.11371">
        <ele>351</ele>
        <time>2012-03-22T14:37:28Z</time>
      </trkpt>
      <trkpt lat="48.66007" lon="6.11382">
        <ele>353</ele>
        <time>2012-03-22T14:37:32Z</time>
      </trkpt>
      <trkpt lat="48.65997" lon="6.11387">
        <ele>356</ele>
        <time>2012-03-22T14:37:34Z</time>
      </trkpt>
      <trkpt lat="48.65992" lon="6.1139">
        <ele>356</ele>
        <time>2012-03-22T14:37:35Z</time>
      </trkpt>
      <trkpt lat="48.65988" lon="6.11392">
        <ele>359</ele>
        <time>2012-03-22T14:37:36Z</time>
      </trkpt>
      <trkpt lat="48.65978" lon="6.11399">
        <ele>359</ele>
        <time>2012-03-22T14:37:38Z</time>
      </trkpt>
      <trkpt lat="48.65965" lon="6.1141">
        <ele>353</ele>
        <time>2012-03-22T14:37:40Z</time>
      </trkpt>
      <trkpt lat="48.65953" lon="6.1142">
        <ele>359</ele>
        <time>2012-03-22T14:37:42Z</time>
      </trkpt>
      <trkpt lat="48.65942" lon="6.11432">
        <ele>356</ele>
        <time>2012-03-22T14:37:44Z</time>
      </trkpt>
      <trkpt lat="48.65929" lon="6.11446">
        <ele>352</ele>
        <time>2012-03-22T14:37:46Z</time>
      </trkpt>
      <trkpt lat="48.65917" lon="6.1146">
        <ele>350</ele>
        <time>2012-03-22T14:37:48Z</time>
      </trkpt>
      <trkpt lat="48.65906" lon="6.11474">
        <ele>354</ele>
        <time>2012-03-22T14:37:50Z</time>
      </trkpt>
      <trkpt lat="48.65894" lon="6.11486">
        <ele>355</ele>
        <time>2012-03-22T14:37:52Z</time>
      </trkpt>
      <trkpt lat="48.65884" lon="6.11495">
        <ele>354</ele>
        <time>2012-03-22T14:37:54Z</time>
      </trkpt>
      <trkpt lat="48.65875" lon="6.11502">
        <ele>351</ele>
        <time>2012-03-22T14:37:56Z</time>
      </trkpt>
      <trkpt lat="48.65871" lon="6.11514">
        <ele>350</ele>
        <time>2012-03-22T14:37:58Z</time>
      </trkpt>
      <trkpt lat="48.65868" lon="6.11528">
        <ele>348</ele>
        <time>2012-03-22T14:38:00Z</time>
      </trkpt>
      <trkpt lat="48.65866" lon="6.11544">
        <ele>343</ele>
        <time>2012-03-22T14:38:02Z</time>
      </trkpt>
      <trkpt lat="48.65865" lon="6.11558">
        <ele>342</ele>
        <time>2012-03-22T14:38:04Z</time>
      </trkpt>
      <trkpt lat="48.65867" lon="6.11574">
        <ele>342</ele>
        <time>2012-03-22T14:38:06Z</time>
      </trkpt>
      <trkpt lat="48.6587" lon="6.11591">
        <ele>346</ele>
        <time>2012-03-22T14:38:08Z</time>
      </trkpt>
      <trkpt lat="48.6587" lon="6.116">
        <ele>346</ele>
        <time>2012-03-22T14:38:09Z</time>
      </trkpt>
      <trkpt lat="48.65871" lon="6.11608">
        <ele>347</ele>
        <time>2012-03-22T14:38:10Z</time>
      </trkpt>
      <trkpt lat="48.65874" lon="6.11625">
        <ele>349</ele>
        <time>2012-03-22T14:38:12Z</time>
      </trkpt>
      <trkpt lat="48.65876" lon="6.11644">
        <ele>347</ele>
        <time>2012-03-22T14:38:14Z</time>
      </trkpt>
      <trkpt lat="48.65877" lon="6.11665">
        <ele>346</ele>
        <time>2012-03-22T14:38:16Z</time>
      </trkpt>
      <trkpt lat="48.65879" lon="6.11685">
        <ele>344</ele>
        <time>2012-03-22T14:38:18Z</time>
      </trkpt>
      <trkpt lat="48.65881" lon="6.11704">
        <ele>348</ele>
        <time>2012-03-22T14:38:20Z</time>
      </trkpt>
      <trkpt lat="48.65884" lon="6.11723">
        <ele>346</ele>
        <time>2012-03-22T14:38:22Z</time>
      </trkpt>
      <trkpt lat="48.65885" lon="6.11742">
        <ele>343</ele>
        <time>2012-03-22T14:38:24Z</time>
      </trkpt>
      <trkpt lat="48.65886" lon="6.11759">
        <ele>346</ele>
        <time>2012-03-22T14:38:26Z</time>
      </trkpt>
      <trkpt lat="48.65885" lon="6.11771">
        <ele>338</ele>
        <time>2012-03-22T14:38:28Z</time>
      </trkpt>
      <trkpt lat="48.65884" lon="6.11777">
        <ele>340</ele>
        <time>2012-03-22T14:38:29Z</time>
      </trkpt>
      <trkpt lat="48.65883" lon="6.11782">
        <ele>342</ele>
        <time>2012-03-22T14:38:30Z</time>
      </trkpt>
      <trkpt lat="48.65882" lon="6.11792">
        <ele>340</ele>
        <time>2012-03-22T14:38:32Z</time>
      </trkpt>
      <trkpt lat="48.65879" lon="6.11799">
        <ele>339</ele>
        <time>2012-03-22T14:38:34Z</time>
      </trkpt>
      <trkpt lat="48.65877" lon="6.11804">
        <ele>337</ele>
        <time>2012-03-22T14:38:36Z</time>
      </trkpt>
      <trkpt lat="48.65876" lon="6.11808">
        <ele>336</ele>
        <time>2012-03-22T14:38:38Z</time>
      </trkpt>
      <trkpt lat="48.65876" lon="6.1181">
        <ele>339</ele>
        <time>2012-03-22T14:38:39Z</time>
      </trkpt>
      <trkpt lat="48.65876" lon="6.11811">
        <ele>340</ele>
        <time>2012-03-22T14:38:40Z</time>
      </trkpt>
      <trkpt lat="48.65876" lon="6.11814">
        <ele>344</ele>
        <time>2012-03-22T14:38:42Z</time>
      </trkpt>
      <trkpt lat="48.65876" lon="6.11818">
        <ele>343</ele>
        <time>2012-03-22T14:38:44Z</time>
      </trkpt>
      <trkpt lat="48.65873" lon="6.11824">
        <ele>349</ele>
        <time>2012-03-22T14:38:46Z</time>
      </trkpt>
      <trkpt lat="48.65871" lon="6.11829">
        <ele>348</ele>
        <time>2012-03-22T14:38:48Z</time>
      </trkpt>
      <trkpt lat="48.6587" lon="6.11834">
        <ele>349</ele>
        <time>2012-03-22T14:38:50Z</time>
      </trkpt>
      <trkpt lat="48.65869" lon="6.11836">
        <ele>349</ele>
        <time>2012-03-22T14:38:51Z</time>
      </trkpt>
      <trkpt lat="48.65869" lon="6.11839">
        <ele>346</ele>
        <time>2012-03-22T14:38:52Z</time>
      </trkpt>
      <trkpt lat="48.65868" lon="6.11843">
        <ele>353</ele>
        <time>2012-03-22T14:38:54Z</time>
      </trkpt>
      <trkpt lat="48.65867" lon="6.11847">
        <ele>351</ele>
        <time>2012-03-22T14:38:56Z</time>
      </trkpt>
      <trkpt lat="48.65866" lon="6.11852">
        <ele>349</ele>
        <time>2012-03-22T14:38:58Z</time>
      </trkpt>
      <trkpt lat="48.65864" lon="6.11859">
        <ele>353</ele>
        <time>2012-03-22T14:39:00Z</time>
      </trkpt>
      <trkpt lat="48.65862" lon="6.11864">
        <ele>349</ele>
        <time>2012-03-22T14:39:02Z</time>
      </trkpt>
      <trkpt lat="48.6586" lon="6.1187">
        <ele>352</ele>
        <time>2012-03-22T14:39:04Z</time>
      </trkpt>
      <trkpt lat="48.65859" lon="6.11875">
        <ele>356</ele>
        <time>2012-03-22T14:39:06Z</time>
      </trkpt>
      <trkpt lat="48.65857" lon="6.11879">
        <ele>358</ele>
        <time>2012-03-22T14:39:08Z</time>
      </trkpt>
      <trkpt lat="48.65855" lon="6.11885">
        <ele>364</ele>
        <time>2012-03-22T14:39:10Z</time>
      </trkpt>
      <trkpt lat="48.65854" lon="6.11889">
        <ele>362</ele>
        <time>2012-03-22T14:39:12Z</time>
      </trkpt>
      <trkpt lat="48.65853" lon="6.11895">
        <ele>361</ele>
        <time>2012-03-22T14:39:14Z</time>
      </trkpt>
      <trkpt lat="48.65849" lon="6.11908">
        <ele>363</ele>
        <time>2012-03-22T14:39:18Z</time>
      </trkpt>
      <trkpt lat="48.65847" lon="6.11914">
        <ele>365</ele>
        <time>2012-03-22T14:39:20Z</time>
      </trkpt>
      <trkpt lat="48.65846" lon="6.11921">
        <ele>362</ele>
        <time>2012-03-22T14:39:22Z</time>
      </trkpt>
      <trkpt lat="48.65845" lon="6.11927">
        <ele>361</ele>
        <time>2012-03-22T14:39:24Z</time>
      </trkpt>
      <trkpt lat="48.65844" lon="6.11932">
        <ele>360</ele>
        <time>2012-03-22T14:39:26Z</time>
      </trkpt>
      <trkpt lat="48.65842" lon="6.11938">
        <ele>359</ele>
        <time>2012-03-22T14:39:28Z</time>
      </trkpt>
      <trkpt lat="48.65841" lon="6.11944">
        <ele>361</ele>
        <time>2012-03-22T14:39:30Z</time>
      </trkpt>
      <trkpt lat="48.65839" lon="6.11949">
        <ele>360</ele>
        <time>2012-03-22T14:39:32Z</time>
      </trkpt>
      <trkpt lat="48.65838" lon="6.11954">
        <ele>363</ele>
        <time>2012-03-22T14:39:34Z</time>
      </trkpt>
      <trkpt lat="48.65837" lon="6.11959">
        <ele>370</ele>
        <time>2012-03-22T14:39:36Z</time>
      </trkpt>
      <trkpt lat="48.65836" lon="6.11963">
        <ele>375</ele>
        <time>2012-03-22T14:39:38Z</time>
      </trkpt>
      <trkpt lat="48.65833" lon="6.11976">
        <ele>374</ele>
        <time>2012-03-22T14:39:42Z</time>
      </trkpt>
      <trkpt lat="48.65831" lon="6.11983">
        <ele>376</ele>
        <time>2012-03-22T14:39:44Z</time>
      </trkpt>
      <trkpt lat="48.6583" lon="6.11989">
        <ele>371</ele>
        <time>2012-03-22T14:39:46Z</time>
      </trkpt>
      <trkpt lat="48.65828" lon="6.11995">
        <ele>370</ele>
        <time>2012-03-22T14:39:48Z</time>
      </trkpt>
      <trkpt lat="48.65826" lon="6.12001">
        <ele>364</ele>
        <time>2012-03-22T14:39:50Z</time>
      </trkpt>
      <trkpt lat="48.65825" lon="6.12006">
        <ele>365</ele>
        <time>2012-03-22T14:39:52Z</time>
      </trkpt>
      <trkpt lat="48.65825" lon="6.12014">
        <ele>366</ele>
        <time>2012-03-22T14:39:54Z</time>
      </trkpt>
      <trkpt lat="48.65824" lon="6.12022">
        <ele>368</ele>
        <time>2012-03-22T14:39:56Z</time>
      </trkpt>
      <trkpt lat="48.65824" lon="6.12028">
        <ele>370</ele>
        <time>2012-03-22T14:39:58Z</time>
      </trkpt>
      <trkpt lat="48.65824" lon="6.12034">
        <ele>370</ele>
        <time>2012-03-22T14:40:00Z</time>
      </trkpt>
      <trkpt lat="48.65825" lon="6.12042">
        <ele>364</ele>
        <time>2012-03-22T14:40:02Z</time>
      </trkpt>
      <trkpt lat="48.65825" lon="6.12049">
        <ele>366</ele>
        <time>2012-03-22T14:40:04Z</time>
      </trkpt>
      <trkpt lat="48.65826" lon="6.12056">
        <ele>365</ele>
        <time>2012-03-22T14:40:06Z</time>
      </trkpt>
      <trkpt lat="48.65826" lon="6.12063">
        <ele>363</ele>
        <time>2012-03-22T14:40:08Z</time>
      </trkpt>
      <trkpt lat="48.65826" lon="6.12069">
        <ele>367</ele>
        <time>2012-03-22T14:40:10Z</time>
      </trkpt>
      <trkpt lat="48.65826" lon="6.12076">
        <ele>370</ele>
        <time>2012-03-22T14:40:12Z</time>
      </trkpt>
      <trkpt lat="48.65827" lon="6.12083">
        <ele>372</ele>
        <time>2012-03-22T14:40:14Z</time>
      </trkpt>
      <trkpt lat="48.65828" lon="6.12091">
        <ele>373</ele>
        <time>2012-03-22T14:40:16Z</time>
      </trkpt>
      <trkpt lat="48.65829" lon="6.12099">
        <ele>377</ele>
        <time>2012-03-22T14:40:18Z</time>
      </trkpt>
      <trkpt lat="48.65831" lon="6.12106">
        <ele>371</ele>
        <time>2012-03-22T14:40:20Z</time>
      </trkpt>
      <trkpt lat="48.65831" lon="6.12114">
        <ele>371</ele>
        <time>2012-03-22T14:40:22Z</time>
      </trkpt>
      <trkpt lat="48.65833" lon="6.12121">
        <ele>370</ele>
        <time>2012-03-22T14:40:24Z</time>
      </trkpt>
      <trkpt lat="48.65833" lon="6.12128">
        <ele>370</ele>
        <time>2012-03-22T14:40:26Z</time>
      </trkpt>
      <trkpt lat="48.65834" lon="6.12135">
        <ele>372</ele>
        <time>2012-03-22T14:40:28Z</time>
      </trkpt>
      <trkpt lat="48.65836" lon="6.12142">
        <ele>375</ele>
        <time>2012-03-22T14:40:30Z</time>
      </trkpt>
      <trkpt lat="48.65838" lon="6.12151">
        <ele>374</ele>
        <time>2012-03-22T14:40:32Z</time>
      </trkpt>
      <trkpt lat="48.6584" lon="6.12158">
        <ele>371</ele>
        <time>2012-03-22T14:40:34Z</time>
      </trkpt>
      <trkpt lat="48.65841" lon="6.12166">
        <ele>372</ele>
        <time>2012-03-22T14:40:36Z</time>
      </trkpt>
      <trkpt lat="48.65843" lon="6.12175">
        <ele>371</ele>
        <time>2012-03-22T14:40:38Z</time>
      </trkpt>
      <trkpt lat="48.65845" lon="6.12183">
        <ele>371</ele>
        <time>2012-03-22T14:40:40Z</time>
      </trkpt>
      <trkpt lat="48.65848" lon="6.12192">
        <ele>373</ele>
        <time>2012-03-22T14:40:42Z</time>
      </trkpt>
      <trkpt lat="48.65849" lon="6.12201">
        <ele>375</ele>
        <time>2012-03-22T14:40:44Z</time>
      </trkpt>
      <trkpt lat="48.65852" lon="6.1221">
        <ele>378</ele>
        <time>2012-03-22T14:40:46Z</time>
      </trkpt>
      <trkpt lat="48.65854" lon="6.12218">
        <ele>376</ele>
        <time>2012-03-22T14:40:48Z</time>
      </trkpt>
      <trkpt lat="48.65858" lon="6.12237">
        <ele>376</ele>
        <time>2012-03-22T14:40:52Z</time>
      </trkpt>
      <trkpt lat="48.6586" lon="6.12248">
        <ele>375</ele>
        <time>2012-03-22T14:40:54Z</time>
      </trkpt>
      <trkpt lat="48.65862" lon="6.12258">
        <ele>379</ele>
        <time>2012-03-22T14:40:56Z</time>
      </trkpt>
      <trkpt lat="48.65864" lon="6.12266">
        <ele>375</ele>
        <time>2012-03-22T14:40:58Z</time>
      </trkpt>
      <trkpt lat="48.65867" lon="6.12272">
        <ele>371</ele>
        <time>2012-03-22T14:41:00Z</time>
      </trkpt>
      <trkpt lat="48.6587" lon="6.12279">
        <ele>370</ele>
        <time>2012-03-22T14:41:02Z</time>
      </trkpt>
      <trkpt lat="48.65873" lon="6.12287">
        <ele>372</ele>
        <time>2012-03-22T14:41:04Z</time>
      </trkpt>
      <trkpt lat="48.65876" lon="6.12296">
        <ele>371</ele>
        <time>2012-03-22T14:41:06Z</time>
      </trkpt>
      <trkpt lat="48.6588" lon="6.12304">
        <ele>373</ele>
        <time>2012-03-22T14:41:08Z</time>
      </trkpt>
      <trkpt lat="48.65884" lon="6.12313">
        <ele>372</ele>
        <time>2012-03-22T14:41:10Z</time>
      </trkpt>
      <trkpt lat="48.65888" lon="6.12322">
        <ele>375</ele>
        <time>2012-03-22T14:41:12Z</time>
      </trkpt>
      <trkpt lat="48.6589" lon="6.12331">
        <ele>375</ele>
        <time>2012-03-22T14:41:14Z</time>
      </trkpt>
      <trkpt lat="48.65891" lon="6.12335">
        <ele>375</ele>
        <time>2012-03-22T14:41:15Z</time>
      </trkpt>
      <trkpt lat="48.65892" lon="6.1234">
        <ele>376</ele>
        <time>2012-03-22T14:41:16Z</time>
      </trkpt>
      <trkpt lat="48.65894" lon="6.12349">
        <ele>374</ele>
        <time>2012-03-22T14:41:18Z</time>
      </trkpt>
      <trkpt lat="48.65896" lon="6.12358">
        <ele>371</ele>
        <time>2012-03-22T14:41:20Z</time>
      </trkpt>
      <trkpt lat="48.65898" lon="6.12367">
        <ele>376</ele>
        <time>2012-03-22T14:41:22Z</time>
      </trkpt>
      <trkpt lat="48.65899" lon="6.12374">
        <ele>376</ele>
        <time>2012-03-22T14:41:24Z</time>
      </trkpt>
      <trkpt lat="48.65902" lon="6.12382">
        <ele>376</ele>
        <time>2012-03-22T14:41:26Z</time>
      </trkpt>
      <trkpt lat="48.65902" lon="6.12386">
        <ele>376</ele>
        <time>2012-03-22T14:41:27Z</time>
      </trkpt>
      <trkpt lat="48.65904" lon="6.12391">
        <ele>376</ele>
        <time>2012-03-22T14:41:28Z</time>
      </trkpt>
      <trkpt lat="48.65905" lon="6.12397">
        <ele>376</ele>
        <time>2012-03-22T14:41:29Z</time>
      </trkpt>
      <trkpt lat="48.65905" lon="6.12403">
        <ele>373</ele>
        <time>2012-03-22T14:41:30Z</time>
      </trkpt>
      <trkpt lat="48.65908" lon="6.12412">
        <ele>374</ele>
        <time>2012-03-22T14:41:32Z</time>
      </trkpt>
      <trkpt lat="48.65912" lon="6.12423">
        <ele>373</ele>
        <time>2012-03-22T14:41:34Z</time>
      </trkpt>
      <trkpt lat="48.65918" lon="6.12437">
        <ele>374</ele>
        <time>2012-03-22T14:41:37Z</time>
      </trkpt>
      <trkpt lat="48.6592" lon="6.12442">
        <ele>373</ele>
        <time>2012-03-22T14:41:38Z</time>
      </trkpt>
      <trkpt lat="48.65922" lon="6.12452">
        <ele>375</ele>
        <time>2012-03-22T14:41:40Z</time>
      </trkpt>
      <trkpt lat="48.65925" lon="6.12463">
        <ele>377</ele>
        <time>2012-03-22T14:41:42Z</time>
      </trkpt>
      <trkpt lat="48.65928" lon="6.12473">
        <ele>376</ele>
        <time>2012-03-22T14:41:44Z</time>
      </trkpt>
      <trkpt lat="48.65931" lon="6.12481">
        <ele>375</ele>
        <time>2012-03-22T14:41:46Z</time>
      </trkpt>
      <trkpt lat="48.65934" lon="6.12491">
        <ele>373</ele>
        <time>2012-03-22T14:41:48Z</time>
      </trkpt>
      <trkpt lat="48.65939" lon="6.12502">
        <ele>377</ele>
        <time>2012-03-22T14:41:50Z</time>
      </trkpt>
      <trkpt lat="48.65943" lon="6.12514">
        <ele>375</ele>
        <time>2012-03-22T14:41:52Z</time>
      </trkpt>
      <trkpt lat="48.65948" lon="6.12524">
        <ele>379</ele>
        <time>2012-03-22T14:41:54Z</time>
      </trkpt>
      <trkpt lat="48.65953" lon="6.12534">
        <ele>378</ele>
        <time>2012-03-22T14:41:56Z</time>
      </trkpt>
      <trkpt lat="48.65958" lon="6.12544">
        <ele>378</ele>
        <time>2012-03-22T14:41:58Z</time>
      </trkpt>
      <trkpt lat="48.6596" lon="6.1255">
        <ele>378</ele>
        <time>2012-03-22T14:41:59Z</time>
      </trkpt>
      <trkpt lat="48.65962" lon="6.12554">
        <ele>377</ele>
        <time>2012-03-22T14:42:00Z</time>
      </trkpt>
      <trkpt lat="48.65966" lon="6.12563">
        <ele>376</ele>
        <time>2012-03-22T14:42:02Z</time>
      </trkpt>
      <trkpt lat="48.65971" lon="6.12572">
        <ele>378</ele>
        <time>2012-03-22T14:42:04Z</time>
      </trkpt>
      <trkpt lat="48.65977" lon="6.1258">
        <ele>374</ele>
        <time>2012-03-22T14:42:06Z</time>
      </trkpt>
      <trkpt lat="48.65981" lon="6.12589">
        <ele>381</ele>
        <time>2012-03-22T14:42:08Z</time>
      </trkpt>
      <trkpt lat="48.65986" lon="6.126">
        <ele>383</ele>
        <time>2012-03-22T14:42:10Z</time>
      </trkpt>
      <trkpt lat="48.65992" lon="6.12612">
        <ele>377</ele>
        <time>2012-03-22T14:42:12Z</time>
      </trkpt>
      <trkpt lat="48.65998" lon="6.12624">
        <ele>374</ele>
        <time>2012-03-22T14:42:14Z</time>
      </trkpt>
      <trkpt lat="48.66001" lon="6.12633">
        <ele>380</ele>
        <time>2012-03-22T14:42:16Z</time>
      </trkpt>
      <trkpt lat="48.66005" lon="6.12641">
        <ele>381</ele>
        <time>2012-03-22T14:42:18Z</time>
      </trkpt>
      <trkpt lat="48.66008" lon="6.1265">
        <ele>381</ele>
        <time>2012-03-22T14:42:20Z</time>
      </trkpt>
      <trkpt lat="48.66012" lon="6.1266">
        <ele>381</ele>
        <time>2012-03-22T14:42:22Z</time>
      </trkpt>
      <trkpt lat="48.66014" lon="6.12665">
        <ele>379</ele>
        <time>2012-03-22T14:42:23Z</time>
      </trkpt>
      <trkpt lat="48.66016" lon="6.1267">
        <ele>381</ele>
        <time>2012-03-22T14:42:24Z</time>
      </trkpt>
      <trkpt lat="48.66019" lon="6.1268">
        <ele>381</ele>
        <time>2012-03-22T14:42:26Z</time>
      </trkpt>
      <trkpt lat="48.66019" lon="6.12689">
        <ele>385</ele>
        <time>2012-03-22T14:42:28Z</time>
      </trkpt>
      <trkpt lat="48.66019" lon="6.12698">
        <ele>388</ele>
        <time>2012-03-22T14:42:30Z</time>
      </trkpt>
      <trkpt lat="48.66023" lon="6.12709">
        <ele>384</ele>
        <time>2012-03-22T14:42:32Z</time>
      </trkpt>
      <trkpt lat="48.66026" lon="6.12721">
        <ele>386</ele>
        <time>2012-03-22T14:42:34Z</time>
      </trkpt>
      <trkpt lat="48.66029" lon="6.12733">
        <ele>388</ele>
        <time>2012-03-22T14:42:36Z</time>
      </trkpt>
      <trkpt lat="48.66032" lon="6.12746">
        <ele>392</ele>
        <time>2012-03-22T14:42:38Z</time>
      </trkpt>
      <trkpt lat="48.66035" lon="6.12758">
        <ele>392</ele>
        <time>2012-03-22T14:42:40Z</time>
      </trkpt>
      <trkpt lat="48.66039" lon="6.1277">
        <ele>393</ele>
        <time>2012-03-22T14:42:42Z</time>
      </trkpt>
      <trkpt lat="48.66042" lon="6.1278">
        <ele>386</ele>
        <time>2012-03-22T14:42:44Z</time>
      </trkpt>
      <trkpt lat="48.66047" lon="6.12808">
        <ele>383</ele>
        <time>2012-03-22T14:42:48Z</time>
      </trkpt>
      <trkpt lat="48.6605" lon="6.12819">
        <ele>381</ele>
        <time>2012-03-22T14:42:50Z</time>
      </trkpt>
      <trkpt lat="48.66051" lon="6.12826">
        <ele>380</ele>
        <time>2012-03-22T14:42:51Z</time>
      </trkpt>
      <trkpt lat="48.66053" lon="6.12833">
        <ele>382</ele>
        <time>2012-03-22T14:42:52Z</time>
      </trkpt>
      <trkpt lat="48.66055" lon="6.12846">
        <ele>384</ele>
        <time>2012-03-22T14:42:54Z</time>
      </trkpt>
      <trkpt lat="48.66058" lon="6.12858">
        <ele>385</ele>
        <time>2012-03-22T14:42:56Z</time>
      </trkpt>
      <trkpt lat="48.6606" lon="6.12872">
        <ele>385</ele>
        <time>2012-03-22T14:42:58Z</time>
      </trkpt>
      <trkpt lat="48.66063" lon="6.12884">
        <ele>389</ele>
        <time>2012-03-22T14:43:00Z</time>
      </trkpt>
      <trkpt lat="48.66063" lon="6.12895">
        <ele>391</ele>
        <time>2012-03-22T14:43:02Z</time>
      </trkpt>
      <trkpt lat="48.66065" lon="6.12907">
        <ele>388</ele>
        <time>2012-03-22T14:43:04Z</time>
      </trkpt>
      <trkpt lat="48.66065" lon="6.12914">
        <ele>387</ele>
        <time>2012-03-22T14:43:05Z</time>
      </trkpt>
      <trkpt lat="48.66064" lon="6.1292">
        <ele>388</ele>
        <time>2012-03-22T14:43:06Z</time>
      </trkpt>
      <trkpt lat="48.66068" lon="6.12934">
        <ele>381</ele>
        <time>2012-03-22T14:43:08Z</time>
      </trkpt>
      <trkpt lat="48.66073" lon="6.12947">
        <ele>383</ele>
        <time>2012-03-22T14:43:10Z</time>
      </trkpt>
      <trkpt lat="48.6608" lon="6.12959">
        <ele>384</ele>
        <time>2012-03-22T14:43:12Z</time>
      </trkpt>
      <trkpt lat="48.66085" lon="6.12971">
        <ele>382</ele>
        <time>2012-03-22T14:43:14Z</time>
      </trkpt>
      <trkpt lat="48.6609" lon="6.1298">
        <ele>381</ele>
        <time>2012-03-22T14:43:16Z</time>
      </trkpt>
      <trkpt lat="48.66092" lon="6.12992">
        <ele>381</ele>
        <time>2012-03-22T14:43:18Z</time>
      </trkpt>
      <trkpt lat="48.66096" lon="6.13001">
        <ele>382</ele>
        <time>2012-03-22T14:43:20Z</time>
      </trkpt>
      <trkpt lat="48.66101" lon="6.1301">
        <ele>380</ele>
        <time>2012-03-22T14:43:22Z</time>
      </trkpt>
      <trkpt lat="48.66105" lon="6.13021">
        <ele>384</ele>
        <time>2012-03-22T14:43:24Z</time>
      </trkpt>
      <trkpt lat="48.66107" lon="6.13027">
        <ele>383</ele>
        <time>2012-03-22T14:43:25Z</time>
      </trkpt>
      <trkpt lat="48.66108" lon="6.13033">
        <ele>385</ele>
        <time>2012-03-22T14:43:26Z</time>
      </trkpt>
      <trkpt lat="48.6611" lon="6.13042">
        <ele>382</ele>
        <time>2012-03-22T14:43:28Z</time>
      </trkpt>
      <trkpt lat="48.66114" lon="6.13054">
        <ele>379</ele>
        <time>2012-03-22T14:43:30Z</time>
      </trkpt>
      <trkpt lat="48.66119" lon="6.13065">
        <ele>376</ele>
        <time>2012-03-22T14:43:32Z</time>
      </trkpt>
      <trkpt lat="48.66124" lon="6.13078">
        <ele>380</ele>
        <time>2012-03-22T14:43:34Z</time>
      </trkpt>
      <trkpt lat="48.6613" lon="6.13091">
        <ele>379</ele>
        <time>2012-03-22T14:43:36Z</time>
      </trkpt>
      <trkpt lat="48.66135" lon="6.131">
        <ele>378</ele>
        <time>2012-03-22T14:43:38Z</time>
      </trkpt>
      <trkpt lat="48.66141" lon="6.13111">
        <ele>377</ele>
        <time>2012-03-22T14:43:40Z</time>
      </trkpt>
      <trkpt lat="48.66147" lon="6.13122">
        <ele>378</ele>
        <time>2012-03-22T14:43:42Z</time>
      </trkpt>
      <trkpt lat="48.66153" lon="6.13134">
        <ele>379</ele>
        <time>2012-03-22T14:43:44Z</time>
      </trkpt>
      <trkpt lat="48.6616" lon="6.13146">
        <ele>379</ele>
        <time>2012-03-22T14:43:46Z</time>
      </trkpt>
      <trkpt lat="48.66166" lon="6.13159">
        <ele>376</ele>
        <time>2012-03-22T14:43:48Z</time>
      </trkpt>
      <trkpt lat="48.6617" lon="6.13165">
        <ele>376</ele>
        <time>2012-03-22T14:43:49Z</time>
      </trkpt>
      <trkpt lat="48.66173" lon="6.13171">
        <ele>375</ele>
        <time>2012-03-22T14:43:50Z</time>
      </trkpt>
      <trkpt lat="48.6618" lon="6.1318">
        <ele>374</ele>
        <time>2012-03-22T14:43:52Z</time>
      </trkpt>
      <trkpt lat="48.6619" lon="6.13187">
        <ele>372</ele>
        <time>2012-03-22T14:43:54Z</time>
      </trkpt>
      <trkpt lat="48.66198" lon="6.13196">
        <ele>371</ele>
        <time>2012-03-22T14:43:56Z</time>
      </trkpt>
      <trkpt lat="48.66206" lon="6.13204">
        <ele>370</ele>
        <time>2012-03-22T14:43:58Z</time>
      </trkpt>
      <trkpt lat="48.66213" lon="6.13212">
        <ele>368</ele>
        <time>2012-03-22T14:44:00Z</time>
      </trkpt>
      <trkpt lat="48.6622" lon="6.13222">
        <ele>370</ele>
        <time>2012-03-22T14:44:02Z</time>
      </trkpt>
      <trkpt lat="48.66229" lon="6.13232">
        <ele>371</ele>
        <time>2012-03-22T14:44:04Z</time>
      </trkpt>
      <trkpt lat="48.66237" lon="6.13242">
        <ele>372</ele>
        <time>2012-03-22T14:44:06Z</time>
      </trkpt>
      <trkpt lat="48.66245" lon="6.13252">
        <ele>367</ele>
        <time>2012-03-22T14:44:08Z</time>
      </trkpt>
      <trkpt lat="48.66254" lon="6.13263">
        <ele>362</ele>
        <time>2012-03-22T14:44:10Z</time>
      </trkpt>
      <trkpt lat="48.66263" lon="6.13274">
        <ele>362</ele>
        <time>2012-03-22T14:44:12Z</time>
      </trkpt>
      <trkpt lat="48.66283" lon="6.13294">
        <ele>363</ele>
        <time>2012-03-22T14:44:16Z</time>
      </trkpt>
      <trkpt lat="48.66295" lon="6.13302">
        <ele>360</ele>
        <time>2012-03-22T14:44:18Z</time>
      </trkpt>
      <trkpt lat="48.66307" lon="6.13315">
        <ele>362</ele>
        <time>2012-03-22T14:44:20Z</time>
      </trkpt>
      <trkpt lat="48.6632" lon="6.13327">
        <ele>362</ele>
        <time>2012-03-22T14:44:22Z</time>
      </trkpt>
      <trkpt lat="48.66333" lon="6.13341">
        <ele>360</ele>
        <time>2012-03-22T14:44:24Z</time>
      </trkpt>
      <trkpt lat="48.66347" lon="6.13354">
        <ele>358</ele>
        <time>2012-03-22T14:44:26Z</time>
      </trkpt>
      <trkpt lat="48.66361" lon="6.13364">
        <ele>359</ele>
        <time>2012-03-22T14:44:28Z</time>
      </trkpt>
      <trkpt lat="48.66382" lon="6.13368">
        <ele>360</ele>
        <time>2012-03-22T14:44:30Z</time>
      </trkpt>
      <trkpt lat="48.66408" lon="6.13372">
        <ele>356</ele>
        <time>2012-03-22T14:44:32Z</time>
      </trkpt>
      <trkpt lat="48.66431" lon="6.13379">
        <ele>356</ele>
        <time>2012-03-22T14:44:34Z</time>
      </trkpt>
      <trkpt lat="48.66454" lon="6.13383">
        <ele>361</ele>
        <time>2012-03-22T14:44:36Z</time>
      </trkpt>
      <trkpt lat="48.66475" lon="6.13392">
        <ele>357</ele>
        <time>2012-03-22T14:44:38Z</time>
      </trkpt>
      <trkpt lat="48.665" lon="6.1341">
        <ele>356</ele>
        <time>2012-03-22T14:44:40Z</time>
      </trkpt>
      <trkpt lat="48.66523" lon="6.13429">
        <ele>355</ele>
        <time>2012-03-22T14:44:42Z</time>
      </trkpt>
      <trkpt lat="48.66546" lon="6.13447">
        <ele>350</ele>
        <time>2012-03-22T14:44:44Z</time>
      </trkpt>
      <trkpt lat="48.66562" lon="6.13461">
        <ele>352</ele>
        <time>2012-03-22T14:44:46Z</time>
      </trkpt>
      <trkpt lat="48.66573" lon="6.1347">
        <ele>352</ele>
        <time>2012-03-22T14:44:48Z</time>
      </trkpt>
      <trkpt lat="48.66581" lon="6.13477">
        <ele>344</ele>
        <time>2012-03-22T14:44:50Z</time>
      </trkpt>
      <trkpt lat="48.66589" lon="6.13478">
        <ele>345</ele>
        <time>2012-03-22T14:44:52Z</time>
      </trkpt>
      <trkpt lat="48.66594" lon="6.13476">
        <ele>338</ele>
        <time>2012-03-22T14:44:55Z</time>
      </trkpt>
      <trkpt lat="48.666" lon="6.13463">
        <ele>349</ele>
        <time>2012-03-22T14:45:04Z</time>
      </trkpt>
      <trkpt lat="48.66617" lon="6.13442">
        <ele>344</ele>
        <time>2012-03-22T14:45:20Z</time>
      </trkpt>
      <trkpt lat="48.66627" lon="6.13437">
        <ele>346</ele>
        <time>2012-03-22T14:45:26Z</time>
      </trkpt>
      <trkpt lat="48.6663" lon="6.13436">
        <ele>347</ele>
        <time>2012-03-22T14:45:28Z</time>
      </trkpt>
      <trkpt lat="48.66634" lon="6.13432">
        <ele>349</ele>
        <time>2012-03-22T14:45:30Z</time>
      </trkpt>
      <trkpt lat="48.66642" lon="6.13424">
        <ele>351</ele>
        <time>2012-03-22T14:45:36Z</time>
      </trkpt>
      <trkpt lat="48.66661" lon="6.13391">
        <ele>353</ele>
        <time>2012-03-22T14:45:50Z</time>
      </trkpt>
      <trkpt lat="48.66671" lon="6.13357">
        <ele>356</ele>
        <time>2012-03-22T14:46:03Z</time>
      </trkpt>
      <trkpt lat="48.66674" lon="6.13345">
        <ele>355</ele>
        <time>2012-03-22T14:46:06Z</time>
      </trkpt>
      <trkpt lat="48.66681" lon="6.13328">
        <ele>356</ele>
        <time>2012-03-22T14:46:12Z</time>
      </trkpt>
      <trkpt lat="48.66702" lon="6.13286">
        <ele>360</ele>
        <time>2012-03-22T14:46:34Z</time>
      </trkpt>
      <trkpt lat="48.66704" lon="6.13281">
        <ele>357</ele>
        <time>2012-03-22T14:46:36Z</time>
      </trkpt>
      <trkpt lat="48.66714" lon="6.13257">
        <ele>368</ele>
        <time>2012-03-22T14:46:48Z</time>
      </trkpt>
      <trkpt lat="48.6672" lon="6.13245">
        <ele>365</ele>
        <time>2012-03-22T14:46:54Z</time>
      </trkpt>
      <trkpt lat="48.66732" lon="6.13204">
        <ele>377</ele>
        <time>2012-03-22T14:47:10Z</time>
      </trkpt>
      <trkpt lat="48.66738" lon="6.13159">
        <ele>387</ele>
        <time>2012-03-22T14:47:28Z</time>
      </trkpt>
      <trkpt lat="48.66739" lon="6.13145">
        <ele>378</ele>
        <time>2012-03-22T14:47:32Z</time>
      </trkpt>
      <trkpt lat="48.6674" lon="6.13131">
        <ele>380</ele>
        <time>2012-03-22T14:47:36Z</time>
      </trkpt>
      <trkpt lat="48.66742" lon="6.13115">
        <ele>373</ele>
        <time>2012-03-22T14:47:40Z</time>
      </trkpt>
      <trkpt lat="48.66744" lon="6.13108">
        <ele>372</ele>
        <time>2012-03-22T14:47:42Z</time>
      </trkpt>
      <trkpt lat="48.66744" lon="6.13101">
        <ele>370</ele>
        <time>2012-03-22T14:47:44Z</time>
      </trkpt>
      <trkpt lat="48.66744" lon="6.13086">
        <ele>366</ele>
        <time>2012-03-22T14:47:50Z</time>
      </trkpt>
      <trkpt lat="48.66746" lon="6.13066">
        <ele>371</ele>
        <time>2012-03-22T14:47:56Z</time>
      </trkpt>
      <trkpt lat="48.66744" lon="6.13052">
        <ele>372</ele>
        <time>2012-03-22T14:48:00Z</time>
      </trkpt>
      <trkpt lat="48.66748" lon="6.13012">
        <ele>376</ele>
        <time>2012-03-22T14:48:14Z</time>
      </trkpt>
      <trkpt lat="48.66747" lon="6.13007">
        <ele>375</ele>
        <time>2012-03-22T14:48:16Z</time>
      </trkpt>
      <trkpt lat="48.66745" lon="6.12997">
        <ele>372</ele>
        <time>2012-03-22T14:48:20Z</time>
      </trkpt>
      <trkpt lat="48.66744" lon="6.12986">
        <ele>380</ele>
        <time>2012-03-22T14:48:24Z</time>
      </trkpt>
      <trkpt lat="48.66748" lon="6.12966">
        <ele>370</ele>
        <time>2012-03-22T14:48:30Z</time>
      </trkpt>
      <trkpt lat="48.66748" lon="6.12951">
        <ele>377</ele>
        <time>2012-03-22T14:48:34Z</time>
      </trkpt>
      <trkpt lat="48.66747" lon="6.12942">
        <ele>377</ele>
        <time>2012-03-22T14:48:36Z</time>
      </trkpt>
      <trkpt lat="48.66747" lon="6.12928">
        <ele>370</ele>
        <time>2012-03-22T14:48:40Z</time>
      </trkpt>
      <trkpt lat="48.66747" lon="6.12922">
        <ele>371</ele>
        <time>2012-03-22T14:48:42Z</time>
      </trkpt>
      <trkpt lat="48.66747" lon="6.12904">
        <ele>373</ele>
        <time>2012-03-22T14:48:46Z</time>
      </trkpt>
      <trkpt lat="48.66749" lon="6.12897">
        <ele>374</ele>
        <time>2012-03-22T14:48:48Z</time>
      </trkpt>
      <trkpt lat="48.6675" lon="6.12893">
        <ele>374</ele>
        <time>2012-03-22T14:48:49Z</time>
      </trkpt>
      <trkpt lat="48.6675" lon="6.12889">
        <ele>375</ele>
        <time>2012-03-22T14:48:50Z</time>
      </trkpt>
      <trkpt lat="48.66751" lon="6.12868">
        <ele>370</ele>
        <time>2012-03-22T14:48:56Z</time>
      </trkpt>
      <trkpt lat="48.66751" lon="6.1286">
        <ele>371</ele>
        <time>2012-03-22T14:48:58Z</time>
      </trkpt>
      <trkpt lat="48.6675" lon="6.12853">
        <ele>368</ele>
        <time>2012-03-22T14:49:00Z</time>
      </trkpt>
      <trkpt lat="48.66748" lon="6.12841">
        <ele>372</ele>
        <time>2012-03-22T14:49:04Z</time>
      </trkpt>
      <trkpt lat="48.66747" lon="6.12837">
        <ele>376</ele>
        <time>2012-03-22T14:49:06Z</time>
      </trkpt>
      <trkpt lat="48.66753" lon="6.12829">
        <ele>379</ele>
        <time>2012-03-22T14:49:12Z</time>
      </trkpt>
      <trkpt lat="48.66772" lon="6.12824">
        <ele>375</ele>
        <time>2012-03-22T14:49:20Z</time>
      </trkpt>
      <trkpt lat="48.66778" lon="6.12822">
        <ele>375</ele>
        <time>2012-03-22T14:49:22Z</time>
      </trkpt>
      <trkpt lat="48.66793" lon="6.12815">
        <ele>377</ele>
        <time>2012-03-22T14:49:26Z</time>
      </trkpt>
      <trkpt lat="48.668" lon="6.12812">
        <ele>379</ele>
        <time>2012-03-22T14:49:28Z</time>
      </trkpt>
      <trkpt lat="48.66806" lon="6.12811">
        <ele>374</ele>
        <time>2012-03-22T14:49:30Z</time>
      </trkpt>
      <trkpt lat="48.66813" lon="6.12809">
        <ele>379</ele>
        <time>2012-03-22T14:49:32Z</time>
      </trkpt>
      <trkpt lat="48.66843" lon="6.12805">
        <ele>383</ele>
        <time>2012-03-22T14:49:42Z</time>
      </trkpt>
      <trkpt lat="48.66868" lon="6.12807">
        <ele>379</ele>
        <time>2012-03-22T14:49:48Z</time>
      </trkpt>
      <trkpt lat="48.66886" lon="6.12812">
        <ele>379</ele>
        <time>2012-03-22T14:49:52Z</time>
      </trkpt>
      <trkpt lat="48.66893" lon="6.12814">
        <ele>376</ele>
        <time>2012-03-22T14:49:54Z</time>
      </trkpt>
      <trkpt lat="48.66902" lon="6.12818">
        <ele>377</ele>
        <time>2012-03-22T14:49:56Z</time>
      </trkpt>
      <trkpt lat="48.66909" lon="6.12817">
        <ele>375</ele>
        <time>2012-03-22T14:49:58Z</time>
      </trkpt>
      <trkpt lat="48.66916" lon="6.12813">
        <ele>377</ele>
        <time>2012-03-22T14:50:00Z</time>
      </trkpt>
      <trkpt lat="48.66923" lon="6.12809">
        <ele>374</ele>
        <time>2012-03-22T14:50:02Z</time>
      </trkpt>
      <trkpt lat="48.66928" lon="6.12804">
        <ele>376</ele>
        <time>2012-03-22T14:50:04Z</time>
      </trkpt>
      <trkpt lat="48.66935" lon="6.128">
        <ele>375</ele>
        <time>2012-03-22T14:50:06Z</time>
      </trkpt>
      <trkpt lat="48.66942" lon="6.12795">
        <ele>375</ele>
        <time>2012-03-22T14:50:08Z</time>
      </trkpt>
      <trkpt lat="48.66947" lon="6.12792">
        <ele>376</ele>
        <time>2012-03-22T14:50:09Z</time>
      </trkpt>
      <trkpt lat="48.66951" lon="6.1279">
        <ele>377</ele>
        <time>2012-03-22T14:50:10Z</time>
      </trkpt>
      <trkpt lat="48.66958" lon="6.12785">
        <ele>377</ele>
        <time>2012-03-22T14:50:12Z</time>
      </trkpt>
      <trkpt lat="48.66968" lon="6.1278">
        <ele>376</ele>
        <time>2012-03-22T14:50:14Z</time>
      </trkpt>
      <trkpt lat="48.6698" lon="6.1277">
        <ele>380</ele>
        <time>2012-03-22T14:50:17Z</time>
      </trkpt>
      <trkpt lat="48.66983" lon="6.12768">
        <ele>377</ele>
        <time>2012-03-22T14:50:18Z</time>
      </trkpt>
      <trkpt lat="48.66991" lon="6.1276">
        <ele>381</ele>
        <time>2012-03-22T14:50:20Z</time>
      </trkpt>
      <trkpt lat="48.67" lon="6.12753">
        <ele>380</ele>
        <time>2012-03-22T14:50:22Z</time>
      </trkpt>
      <trkpt lat="48.67006" lon="6.12743">
        <ele>381</ele>
        <time>2012-03-22T14:50:24Z</time>
      </trkpt>
      <trkpt lat="48.67014" lon="6.12736">
        <ele>378</ele>
        <time>2012-03-22T14:50:26Z</time>
      </trkpt>
      <trkpt lat="48.67023" lon="6.12729">
        <ele>377</ele>
        <time>2012-03-22T14:50:28Z</time>
      </trkpt>
      <trkpt lat="48.67032" lon="6.12721">
        <ele>374</ele>
        <time>2012-03-22T14:50:30Z</time>
      </trkpt>
      <trkpt lat="48.6704" lon="6.12715">
        <ele>374</ele>
        <time>2012-03-22T14:50:32Z</time>
      </trkpt>
      <trkpt lat="48.67049" lon="6.12711">
        <ele>373</ele>
        <time>2012-03-22T14:50:34Z</time>
      </trkpt>
      <trkpt lat="48.67058" lon="6.12708">
        <ele>375</ele>
        <time>2012-03-22T14:50:36Z</time>
      </trkpt>
      <trkpt lat="48.67067" lon="6.12703">
        <ele>374</ele>
        <time>2012-03-22T14:50:38Z</time>
      </trkpt>
      <trkpt lat="48.67075" lon="6.12697">
        <ele>372</ele>
        <time>2012-03-22T14:50:40Z</time>
      </trkpt>
      <trkpt lat="48.67079" lon="6.12695">
        <ele>375</ele>
        <time>2012-03-22T14:50:41Z</time>
      </trkpt>
      <trkpt lat="48.67083" lon="6.12691">
        <ele>374</ele>
        <time>2012-03-22T14:50:42Z</time>
      </trkpt>
      <trkpt lat="48.67092" lon="6.12685">
        <ele>375</ele>
        <time>2012-03-22T14:50:44Z</time>
      </trkpt>
      <trkpt lat="48.6711" lon="6.12668">
        <ele>380</ele>
        <time>2012-03-22T14:50:48Z</time>
      </trkpt>
      <trkpt lat="48.67117" lon="6.12661">
        <ele>374</ele>
        <time>2012-03-22T14:50:50Z</time>
      </trkpt>
      <trkpt lat="48.67126" lon="6.1265">
        <ele>376</ele>
        <time>2012-03-22T14:50:52Z</time>
      </trkpt>
      <trkpt lat="48.67136" lon="6.12637">
        <ele>376</ele>
        <time>2012-03-22T14:50:54Z</time>
      </trkpt>
      <trkpt lat="48.67146" lon="6.1263">
        <ele>380</ele>
        <time>2012-03-22T14:50:56Z</time>
      </trkpt>
      <trkpt lat="48.67151" lon="6.12626">
        <ele>378</ele>
        <time>2012-03-22T14:50:58Z</time>
      </trkpt>
      <trkpt lat="48.67155" lon="6.12624">
        <ele>374</ele>
        <time>2012-03-22T14:51:00Z</time>
      </trkpt>
      <trkpt lat="48.6716" lon="6.12623">
        <ele>372</ele>
        <time>2012-03-22T14:51:02Z</time>
      </trkpt>
      <trkpt lat="48.67165" lon="6.12621">
        <ele>371</ele>
        <time>2012-03-22T14:51:04Z</time>
      </trkpt>
      <trkpt lat="48.67172" lon="6.12615">
        <ele>370</ele>
        <time>2012-03-22T14:51:06Z</time>
      </trkpt>
      <trkpt lat="48.67178" lon="6.12612">
        <ele>368</ele>
        <time>2012-03-22T14:51:08Z</time>
      </trkpt>
      <trkpt lat="48.67184" lon="6.12607">
        <ele>370</ele>
        <time>2012-03-22T14:51:10Z</time>
      </trkpt>
      <trkpt lat="48.6719" lon="6.12605">
        <ele>373</ele>
        <time>2012-03-22T14:51:12Z</time>
      </trkpt>
      <trkpt lat="48.67196" lon="6.12604">
        <ele>372</ele>
        <time>2012-03-22T14:51:14Z</time>
      </trkpt>
      <trkpt lat="48.67202" lon="6.12604">
        <ele>375</ele>
        <time>2012-03-22T14:51:16Z</time>
      </trkpt>
      <trkpt lat="48.67211" lon="6.12609">
        <ele>372</ele>
        <time>2012-03-22T14:51:18Z</time>
      </trkpt>
      <trkpt lat="48.67217" lon="6.12609">
        <ele>374</ele>
        <time>2012-03-22T14:51:20Z</time>
      </trkpt>
      <trkpt lat="48.67224" lon="6.12611">
        <ele>374</ele>
        <time>2012-03-22T14:51:22Z</time>
      </trkpt>
      <trkpt lat="48.67233" lon="6.12614">
        <ele>370</ele>
        <time>2012-03-22T14:51:25Z</time>
      </trkpt>
      <trkpt lat="48.67236" lon="6.12614">
        <ele>373</ele>
        <time>2012-03-22T14:51:26Z</time>
      </trkpt>
      <trkpt lat="48.67242" lon="6.12614">
        <ele>371</ele>
        <time>2012-03-22T14:51:28Z</time>
      </trkpt>
      <trkpt lat="48.6725" lon="6.12613">
        <ele>371</ele>
        <time>2012-03-22T14:51:30Z</time>
      </trkpt>
      <trkpt lat="48.67262" lon="6.12618">
        <ele>367</ele>
        <time>2012-03-22T14:51:34Z</time>
      </trkpt>
      <trkpt lat="48.67271" lon="6.12622">
        <ele>366</ele>
        <time>2012-03-22T14:51:36Z</time>
      </trkpt>
      <trkpt lat="48.67279" lon="6.12626">
        <ele>369</ele>
        <time>2012-03-22T14:51:38Z</time>
      </trkpt>
      <trkpt lat="48.67287" lon="6.12629">
        <ele>370</ele>
        <time>2012-03-22T14:51:40Z</time>
      </trkpt>
      <trkpt lat="48.67295" lon="6.12632">
        <ele>371</ele>
        <time>2012-03-22T14:51:42Z</time>
      </trkpt>
      <trkpt lat="48.67304" lon="6.12634">
        <ele>369</ele>
        <time>2012-03-22T14:51:44Z</time>
      </trkpt>
      <trkpt lat="48.67313" lon="6.12635">
        <ele>372</ele>
        <time>2012-03-22T14:51:46Z</time>
      </trkpt>
      <trkpt lat="48.67324" lon="6.12638">
        <ele>368</ele>
        <time>2012-03-22T14:51:48Z</time>
      </trkpt>
      <trkpt lat="48.67333" lon="6.12632">
        <ele>365</ele>
        <time>2012-03-22T14:51:50Z</time>
      </trkpt>
      <trkpt lat="48.67344" lon="6.12627">
        <ele>365</ele>
        <time>2012-03-22T14:51:52Z</time>
      </trkpt>
      <trkpt lat="48.67352" lon="6.12627">
        <ele>367</ele>
        <time>2012-03-22T14:51:54Z</time>
      </trkpt>
      <trkpt lat="48.67357" lon="6.12628">
        <ele>366</ele>
        <time>2012-03-22T14:51:55Z</time>
      </trkpt>
      <trkpt lat="48.67362" lon="6.12627">
        <ele>365</ele>
        <time>2012-03-22T14:51:56Z</time>
      </trkpt>
      <trkpt lat="48.6737" lon="6.12626">
        <ele>368</ele>
        <time>2012-03-22T14:51:58Z</time>
      </trkpt>
      <trkpt lat="48.67379" lon="6.12628">
        <ele>368</ele>
        <time>2012-03-22T14:52:00Z</time>
      </trkpt>
      <trkpt lat="48.67386" lon="6.12627">
        <ele>364</ele>
        <time>2012-03-22T14:52:02Z</time>
      </trkpt>
      <trkpt lat="48.67395" lon="6.12629">
        <ele>365</ele>
        <time>2012-03-22T14:52:04Z</time>
      </trkpt>
      <trkpt lat="48.67404" lon="6.1263">
        <ele>367</ele>
        <time>2012-03-22T14:52:06Z</time>
      </trkpt>
      <trkpt lat="48.67413" lon="6.1263">
        <ele>368</ele>
        <time>2012-03-22T14:52:08Z</time>
      </trkpt>
      <trkpt lat="48.67424" lon="6.12629">
        <ele>368</ele>
        <time>2012-03-22T14:52:11Z</time>
      </trkpt>
      <trkpt lat="48.67427" lon="6.12629">
        <ele>369</ele>
        <time>2012-03-22T14:52:12Z</time>
      </trkpt>
      <trkpt lat="48.67434" lon="6.1263">
        <ele>368</ele>
        <time>2012-03-22T14:52:14Z</time>
      </trkpt>
      <trkpt lat="48.67441" lon="6.12633">
        <ele>363</ele>
        <time>2012-03-22T14:52:16Z</time>
      </trkpt>
      <trkpt lat="48.6745" lon="6.12634">
        <ele>363</ele>
        <time>2012-03-22T14:52:18Z</time>
      </trkpt>
      <trkpt lat="48.67459" lon="6.12636">
        <ele>364</ele>
        <time>2012-03-22T14:52:20Z</time>
      </trkpt>
      <trkpt lat="48.67468" lon="6.12638">
        <ele>361</ele>
        <time>2012-03-22T14:52:22Z</time>
      </trkpt>
      <trkpt lat="48.67478" lon="6.1264">
        <ele>363</ele>
        <time>2012-03-22T14:52:24Z</time>
      </trkpt>
      <trkpt lat="48.67487" lon="6.12639">
        <ele>366</ele>
        <time>2012-03-22T14:52:26Z</time>
      </trkpt>
      <trkpt lat="48.67495" lon="6.12635">
        <ele>371</ele>
        <time>2012-03-22T14:52:28Z</time>
      </trkpt>
      <trkpt lat="48.67503" lon="6.12629">
        <ele>369</ele>
        <time>2012-03-22T14:52:30Z</time>
      </trkpt>
      <trkpt lat="48.6751" lon="6.12626">
        <ele>367</ele>
        <time>2012-03-22T14:52:32Z</time>
      </trkpt>
      <trkpt lat="48.67514" lon="6.12622">
        <ele>366</ele>
        <time>2012-03-22T14:52:34Z</time>
      </trkpt>
      <trkpt lat="48.67519" lon="6.12619">
        <ele>366</ele>
        <time>2012-03-22T14:52:36Z</time>
      </trkpt>
      <trkpt lat="48.67524" lon="6.12616">
        <ele>363</ele>
        <time>2012-03-22T14:52:38Z</time>
      </trkpt>
      <trkpt lat="48.67528" lon="6.12613">
        <ele>360</ele>
        <time>2012-03-22T14:52:40Z</time>
      </trkpt>
      <trkpt lat="48.67534" lon="6.12611">
        <ele>365</ele>
        <time>2012-03-22T14:52:42Z</time>
      </trkpt>
      <trkpt lat="48.67539" lon="6.1261">
        <ele>365</ele>
        <time>2012-03-22T14:52:44Z</time>
      </trkpt>
      <trkpt lat="48.67544" lon="6.1261">
        <ele>363</ele>
        <time>2012-03-22T14:52:46Z</time>
      </trkpt>
      <trkpt lat="48.67549" lon="6.12611">
        <ele>361</ele>
        <time>2012-03-22T14:52:48Z</time>
      </trkpt>
      <trkpt lat="48.67553" lon="6.12612">
        <ele>361</ele>
        <time>2012-03-22T14:52:50Z</time>
      </trkpt>
      <trkpt lat="48.67558" lon="6.12611">
        <ele>359</ele>
        <time>2012-03-22T14:52:52Z</time>
      </trkpt>
      <trkpt lat="48.67563" lon="6.12612">
        <ele>357</ele>
        <time>2012-03-22T14:52:54Z</time>
      </trkpt>
      <trkpt lat="48.67569" lon="6.12612">
        <ele>358</ele>
        <time>2012-03-22T14:52:56Z</time>
      </trkpt>
      <trkpt lat="48.67578" lon="6.12611">
        <ele>359</ele>
        <time>2012-03-22T14:52:59Z</time>
      </trkpt>
      <trkpt lat="48.67581" lon="6.12611">
        <ele>354</ele>
        <time>2012-03-22T14:53:00Z</time>
      </trkpt>
      <trkpt lat="48.6759" lon="6.12609">
        <ele>361</ele>
        <time>2012-03-22T14:53:02Z</time>
      </trkpt>
      <trkpt lat="48.67598" lon="6.12604">
        <ele>362</ele>
        <time>2012-03-22T14:53:04Z</time>
      </trkpt>
      <trkpt lat="48.67606" lon="6.12598">
        <ele>364</ele>
        <time>2012-03-22T14:53:06Z</time>
      </trkpt>
      <trkpt lat="48.67615" lon="6.12596">
        <ele>365</ele>
        <time>2012-03-22T14:53:08Z</time>
      </trkpt>
      <trkpt lat="48.67624" lon="6.12594">
        <ele>369</ele>
        <time>2012-03-22T14:53:10Z</time>
      </trkpt>
      <trkpt lat="48.67633" lon="6.12595">
        <ele>368</ele>
        <time>2012-03-22T14:53:12Z</time>
      </trkpt>
      <trkpt lat="48.67643" lon="6.12598">
        <ele>367</ele>
        <time>2012-03-22T14:53:14Z</time>
      </trkpt>
      <trkpt lat="48.67652" lon="6.12601">
        <ele>366</ele>
        <time>2012-03-22T14:53:16Z</time>
      </trkpt>
      <trkpt lat="48.67662" lon="6.12604">
        <ele>364</ele>
        <time>2012-03-22T14:53:18Z</time>
      </trkpt>
      <trkpt lat="48.67677" lon="6.12608">
        <ele>365</ele>
        <time>2012-03-22T14:53:21Z</time>
      </trkpt>
      <trkpt lat="48.67681" lon="6.12608">
        <ele>366</ele>
        <time>2012-03-22T14:53:22Z</time>
      </trkpt>
      <trkpt lat="48.67688" lon="6.12608">
        <ele>365</ele>
        <time>2012-03-22T14:53:24Z</time>
      </trkpt>
      <trkpt lat="48.67695" lon="6.12611">
        <ele>359</ele>
        <time>2012-03-22T14:53:26Z</time>
      </trkpt>
      <trkpt lat="48.67703" lon="6.12615">
        <ele>362</ele>
        <time>2012-03-22T14:53:28Z</time>
      </trkpt>
      <trkpt lat="48.67711" lon="6.12617">
        <ele>362</ele>
        <time>2012-03-22T14:53:30Z</time>
      </trkpt>
      <trkpt lat="48.6772" lon="6.1262">
        <ele>361</ele>
        <time>2012-03-22T14:53:32Z</time>
      </trkpt>
      <trkpt lat="48.67727" lon="6.12624">
        <ele>361</ele>
        <time>2012-03-22T14:53:34Z</time>
      </trkpt>
      <trkpt lat="48.67736" lon="6.12627">
        <ele>359</ele>
        <time>2012-03-22T14:53:36Z</time>
      </trkpt>
      <trkpt lat="48.67743" lon="6.12629">
        <ele>361</ele>
        <time>2012-03-22T14:53:38Z</time>
      </trkpt>
      <trkpt lat="48.67751" lon="6.12631">
        <ele>358</ele>
        <time>2012-03-22T14:53:40Z</time>
      </trkpt>
      <trkpt lat="48.6776" lon="6.12631">
        <ele>359</ele>
        <time>2012-03-22T14:53:42Z</time>
      </trkpt>
      <trkpt lat="48.6777" lon="6.1263">
        <ele>362</ele>
        <time>2012-03-22T14:53:44Z</time>
      </trkpt>
      <trkpt lat="48.67783" lon="6.1263">
        <ele>361</ele>
        <time>2012-03-22T14:53:46Z</time>
      </trkpt>
      <trkpt lat="48.67791" lon="6.12632">
        <ele>357</ele>
        <time>2012-03-22T14:53:48Z</time>
      </trkpt>
      <trkpt lat="48.67799" lon="6.12633">
        <ele>360</ele>
        <time>2012-03-22T14:53:50Z</time>
      </trkpt>
      <trkpt lat="48.67805" lon="6.12633">
        <ele>364</ele>
        <time>2012-03-22T14:53:52Z</time>
      </trkpt>
      <trkpt lat="48.67813" lon="6.12634">
        <ele>364</ele>
        <time>2012-03-22T14:53:54Z</time>
      </trkpt>
      <trkpt lat="48.67819" lon="6.12637">
        <ele>364</ele>
        <time>2012-03-22T14:53:56Z</time>
      </trkpt>
      <trkpt lat="48.67823" lon="6.12638">
        <ele>365</ele>
        <time>2012-03-22T14:53:58Z</time>
      </trkpt>
      <trkpt lat="48.67831" lon="6.12634">
        <ele>366</ele>
        <time>2012-03-22T14:54:00Z</time>
      </trkpt>
      <trkpt lat="48.67838" lon="6.12634">
        <ele>365</ele>
        <time>2012-03-22T14:54:02Z</time>
      </trkpt>
      <trkpt lat="48.67844" lon="6.12635">
        <ele>365</ele>
        <time>2012-03-22T14:54:06Z</time>
      </trkpt>
      <trkpt lat="48.6785" lon="6.12635">
        <ele>369</ele>
        <time>2012-03-22T14:54:08Z</time>
      </trkpt>
      <trkpt lat="48.67856" lon="6.12635">
        <ele>369</ele>
        <time>2012-03-22T14:54:10Z</time>
      </trkpt>
      <trkpt lat="48.67863" lon="6.12634">
        <ele>365</ele>
        <time>2012-03-22T14:54:12Z</time>
      </trkpt>
      <trkpt lat="48.6787" lon="6.12636">
        <ele>362</ele>
        <time>2012-03-22T14:54:14Z</time>
      </trkpt>
      <trkpt lat="48.6788" lon="6.1264">
        <ele>365</ele>
        <time>2012-03-22T14:54:16Z</time>
      </trkpt>
      <trkpt lat="48.67888" lon="6.1264">
        <ele>364</ele>
        <time>2012-03-22T14:54:18Z</time>
      </trkpt>
      <trkpt lat="48.67895" lon="6.12639">
        <ele>366</ele>
        <time>2012-03-22T14:54:20Z</time>
      </trkpt>
      <trkpt lat="48.67903" lon="6.12642">
        <ele>362</ele>
        <time>2012-03-22T14:54:22Z</time>
      </trkpt>
      <trkpt lat="48.6791" lon="6.12645">
        <ele>364</ele>
        <time>2012-03-22T14:54:24Z</time>
      </trkpt>
      <trkpt lat="48.67919" lon="6.12643">
        <ele>367</ele>
        <time>2012-03-22T14:54:26Z</time>
      </trkpt>
      <trkpt lat="48.67928" lon="6.12643">
        <ele>366</ele>
        <time>2012-03-22T14:54:28Z</time>
      </trkpt>
      <trkpt lat="48.67937" lon="6.12641">
        <ele>365</ele>
        <time>2012-03-22T14:54:30Z</time>
      </trkpt>
      <trkpt lat="48.67942" lon="6.12638">
        <ele>370</ele>
        <time>2012-03-22T14:54:31Z</time>
      </trkpt>
      <trkpt lat="48.67947" lon="6.12635">
        <ele>372</ele>
        <time>2012-03-22T14:54:32Z</time>
      </trkpt>
      <trkpt lat="48.67954" lon="6.1263">
        <ele>373</ele>
        <time>2012-03-22T14:54:34Z</time>
      </trkpt>
      <trkpt lat="48.6796" lon="6.12625">
        <ele>370</ele>
        <time>2012-03-22T14:54:36Z</time>
      </trkpt>
      <trkpt lat="48.67968" lon="6.12619">
        <ele>370</ele>
        <time>2012-03-22T14:54:38Z</time>
      </trkpt>
      <trkpt lat="48.67975" lon="6.12613">
        <ele>371</ele>
        <time>2012-03-22T14:54:40Z</time>
      </trkpt>
      <trkpt lat="48.67982" lon="6.12605">
        <ele>376</ele>
        <time>2012-03-22T14:54:42Z</time>
      </trkpt>
      <trkpt lat="48.67989" lon="6.12598">
        <ele>378</ele>
        <time>2012-03-22T14:54:44Z</time>
      </trkpt>
      <trkpt lat="48.67994" lon="6.12594">
        <ele>376</ele>
        <time>2012-03-22T14:54:46Z</time>
      </trkpt>
      <trkpt lat="48.68" lon="6.1259">
        <ele>371</ele>
        <time>2012-03-22T14:54:48Z</time>
      </trkpt>
      <trkpt lat="48.68008" lon="6.12587">
        <ele>370</ele>
        <time>2012-03-22T14:54:50Z</time>
      </trkpt>
      <trkpt lat="48.68017" lon="6.12587">
        <ele>375</ele>
        <time>2012-03-22T14:54:52Z</time>
      </trkpt>
      <trkpt lat="48.68036" lon="6.12587">
        <ele>377</ele>
        <time>2012-03-22T14:54:56Z</time>
      </trkpt>
      <trkpt lat="48.68044" lon="6.12585">
        <ele>375</ele>
        <time>2012-03-22T14:54:58Z</time>
      </trkpt>
      <trkpt lat="48.68053" lon="6.12584">
        <ele>374</ele>
        <time>2012-03-22T14:55:00Z</time>
      </trkpt>
      <trkpt lat="48.68061" lon="6.12583">
        <ele>374</ele>
        <time>2012-03-22T14:55:02Z</time>
      </trkpt>
      <trkpt lat="48.68072" lon="6.12583">
        <ele>371</ele>
        <time>2012-03-22T14:55:04Z</time>
      </trkpt>
      <trkpt lat="48.68081" lon="6.12583">
        <ele>373</ele>
        <time>2012-03-22T14:55:06Z</time>
      </trkpt>
      <trkpt lat="48.68087" lon="6.12581">
        <ele>374</ele>
        <time>2012-03-22T14:55:08Z</time>
      </trkpt>
      <trkpt lat="48.68094" lon="6.12578">
        <ele>372</ele>
        <time>2012-03-22T14:55:10Z</time>
      </trkpt>
      <trkpt lat="48.68104" lon="6.1258">
        <ele>367</ele>
        <time>2012-03-22T14:55:12Z</time>
      </trkpt>
      <trkpt lat="48.68113" lon="6.12581">
        <ele>372</ele>
        <time>2012-03-22T14:55:14Z</time>
      </trkpt>
      <trkpt lat="48.6812" lon="6.1258">
        <ele>379</ele>
        <time>2012-03-22T14:55:16Z</time>
      </trkpt>
      <trkpt lat="48.68128" lon="6.1258">
        <ele>386</ele>
        <time>2012-03-22T14:55:18Z</time>
      </trkpt>
      <trkpt lat="48.68132" lon="6.12581">
        <ele>382</ele>
        <time>2012-03-22T14:55:19Z</time>
      </trkpt>
      <trkpt lat="48.68135" lon="6.12583">
        <ele>383</ele>
        <time>2012-03-22T14:55:20Z</time>
      </trkpt>
      <trkpt lat="48.68143" lon="6.1259">
        <ele>379</ele>
        <time>2012-03-22T14:55:22Z</time>
      </trkpt>
      <trkpt lat="48.6815" lon="6.12597">
        <ele>378</ele>
        <time>2012-03-22T14:55:24Z</time>
      </trkpt>
      <trkpt lat="48.68158" lon="6.12605">
        <ele>380</ele>
        <time>2012-03-22T14:55:26Z</time>
      </trkpt>
      <trkpt lat="48.68167" lon="6.12613">
        <ele>380</ele>
        <time>2012-03-22T14:55:28Z</time>
      </trkpt>
      <trkpt lat="48.68177" lon="6.12621">
        <ele>376</ele>
        <time>2012-03-22T14:55:30Z</time>
      </trkpt>
      <trkpt lat="48.68188" lon="6.12628">
        <ele>371</ele>
        <time>2012-03-22T14:55:32Z</time>
      </trkpt>
      <trkpt lat="48.68198" lon="6.12638">
        <ele>369</ele>
        <time>2012-03-22T14:55:34Z</time>
      </trkpt>
      <trkpt lat="48.68209" lon="6.12649">
        <ele>370</ele>
        <time>2012-03-22T14:55:36Z</time>
      </trkpt>
      <trkpt lat="48.68219" lon="6.12659">
        <ele>370</ele>
        <time>2012-03-22T14:55:38Z</time>
      </trkpt>
      <trkpt lat="48.68227" lon="6.12666">
        <ele>375</ele>
        <time>2012-03-22T14:55:40Z</time>
      </trkpt>
      <trkpt lat="48.68236" lon="6.12675">
        <ele>377</ele>
        <time>2012-03-22T14:55:42Z</time>
      </trkpt>
      <trkpt lat="48.68241" lon="6.1268">
        <ele>375</ele>
        <time>2012-03-22T14:55:43Z</time>
      </trkpt>
      <trkpt lat="48.68246" lon="6.12685">
        <ele>375</ele>
        <time>2012-03-22T14:55:44Z</time>
      </trkpt>
      <trkpt lat="48.68256" lon="6.12697">
        <ele>375</ele>
        <time>2012-03-22T14:55:46Z</time>
      </trkpt>
      <trkpt lat="48.68268" lon="6.12708">
        <ele>373</ele>
        <time>2012-03-22T14:55:48Z</time>
      </trkpt>
      <trkpt lat="48.68277" lon="6.12718">
        <ele>374</ele>
        <time>2012-03-22T14:55:50Z</time>
      </trkpt>
      <trkpt lat="48.68287" lon="6.12729">
        <ele>370</ele>
        <time>2012-03-22T14:55:52Z</time>
      </trkpt>
      <trkpt lat="48.68297" lon="6.12741">
        <ele>364</ele>
        <time>2012-03-22T14:55:54Z</time>
      </trkpt>
      <trkpt lat="48.68308" lon="6.12755">
        <ele>362</ele>
        <time>2012-03-22T14:55:56Z</time>
      </trkpt>
      <trkpt lat="48.68316" lon="6.12768">
        <ele>359</ele>
        <time>2012-03-22T14:55:58Z</time>
      </trkpt>
      <trkpt lat="48.68323" lon="6.12774">
        <ele>359</ele>
        <time>2012-03-22T14:55:59Z</time>
      </trkpt>
      <trkpt lat="48.6833" lon="6.1278">
        <ele>360</ele>
        <time>2012-03-22T14:56:00Z</time>
      </trkpt>
      <trkpt lat="48.68343" lon="6.12793">
        <ele>364</ele>
        <time>2012-03-22T14:56:02Z</time>
      </trkpt>
      <trkpt lat="48.68356" lon="6.12807">
        <ele>360</ele>
        <time>2012-03-22T14:56:04Z</time>
      </trkpt>
      <trkpt lat="48.6837" lon="6.12819">
        <ele>359</ele>
        <time>2012-03-22T14:56:06Z</time>
      </trkpt>
      <trkpt lat="48.68382" lon="6.12831">
        <ele>360</ele>
        <time>2012-03-22T14:56:08Z</time>
      </trkpt>
      <trkpt lat="48.68395" lon="6.12843">
        <ele>359</ele>
        <time>2012-03-22T14:56:10Z</time>
      </trkpt>
      <trkpt lat="48.68407" lon="6.12856">
        <ele>356</ele>
        <time>2012-03-22T14:56:12Z</time>
      </trkpt>
      <trkpt lat="48.68418" lon="6.12866">
        <ele>355</ele>
        <time>2012-03-22T14:56:14Z</time>
      </trkpt>
      <trkpt lat="48.68428" lon="6.12876">
        <ele>358</ele>
        <time>2012-03-22T14:56:16Z</time>
      </trkpt>
      <trkpt lat="48.68438" lon="6.12884">
        <ele>351</ele>
        <time>2012-03-22T14:56:18Z</time>
      </trkpt>
      <trkpt lat="48.68456" lon="6.12889">
        <ele>349</ele>
        <time>2012-03-22T14:56:22Z</time>
      </trkpt>
      <trkpt lat="48.68464" lon="6.1289">
        <ele>352</ele>
        <time>2012-03-22T14:56:24Z</time>
      </trkpt>
      <trkpt lat="48.68469" lon="6.12888">
        <ele>350</ele>
        <time>2012-03-22T14:56:26Z</time>
      </trkpt>
      <trkpt lat="48.68475" lon="6.12886">
        <ele>352</ele>
        <time>2012-03-22T14:56:28Z</time>
      </trkpt>
      <trkpt lat="48.68481" lon="6.12884">
        <ele>357</ele>
        <time>2012-03-22T14:56:30Z</time>
      </trkpt>
      <trkpt lat="48.68486" lon="6.12882">
        <ele>355</ele>
        <time>2012-03-22T14:56:32Z</time>
      </trkpt>
      <trkpt lat="48.68492" lon="6.12879">
        <ele>357</ele>
        <time>2012-03-22T14:56:34Z</time>
      </trkpt>
      <trkpt lat="48.685" lon="6.12871">
        <ele>360</ele>
        <time>2012-03-22T14:56:36Z</time>
      </trkpt>
      <trkpt lat="48.68508" lon="6.12862">
        <ele>352</ele>
        <time>2012-03-22T14:56:38Z</time>
      </trkpt>
      <trkpt lat="48.68515" lon="6.12853">
        <ele>350</ele>
        <time>2012-03-22T14:56:40Z</time>
      </trkpt>
      <trkpt lat="48.68523" lon="6.12845">
        <ele>348</ele>
        <time>2012-03-22T14:56:42Z</time>
      </trkpt>
      <trkpt lat="48.68531" lon="6.12839">
        <ele>351</ele>
        <time>2012-03-22T14:56:44Z</time>
      </trkpt>
      <trkpt lat="48.68538" lon="6.12833">
        <ele>349</ele>
        <time>2012-03-22T14:56:46Z</time>
      </trkpt>
      <trkpt lat="48.68549" lon="6.12826">
        <ele>345</ele>
        <time>2012-03-22T14:56:49Z</time>
      </trkpt>
      <trkpt lat="48.68556" lon="6.12822">
        <ele>344</ele>
        <time>2012-03-22T14:56:52Z</time>
      </trkpt>
      <trkpt lat="48.68567" lon="6.12816">
        <ele>345</ele>
        <time>2012-03-22T14:56:55Z</time>
      </trkpt>
      <trkpt lat="48.68577" lon="6.12811">
        <ele>347</ele>
        <time>2012-03-22T14:56:58Z</time>
      </trkpt>
      <trkpt lat="48.68589" lon="6.12806">
        <ele>346</ele>
        <time>2012-03-22T14:57:01Z</time>
      </trkpt>
      <trkpt lat="48.68602" lon="6.12802">
        <ele>344</ele>
        <time>2012-03-22T14:57:04Z</time>
      </trkpt>
      <trkpt lat="48.6861" lon="6.128">
        <ele>347</ele>
        <time>2012-03-22T14:57:06Z</time>
      </trkpt>
      <trkpt lat="48.68621" lon="6.12797">
        <ele>346</ele>
        <time>2012-03-22T14:57:09Z</time>
      </trkpt>
      <trkpt lat="48.68633" lon="6.12795">
        <ele>344</ele>
        <time>2012-03-22T14:57:12Z</time>
      </trkpt>
      <trkpt lat="48.68643" lon="6.12793">
        <ele>345</ele>
        <time>2012-03-22T14:57:14Z</time>
      </trkpt>
      <trkpt lat="48.68653" lon="6.12791">
        <ele>347</ele>
        <time>2012-03-22T14:57:16Z</time>
      </trkpt>
      <trkpt lat="48.68662" lon="6.12788">
        <ele>347</ele>
        <time>2012-03-22T14:57:18Z</time>
      </trkpt>
      <trkpt lat="48.68671" lon="6.12785">
        <ele>346</ele>
        <time>2012-03-22T14:57:20Z</time>
      </trkpt>
      <trkpt lat="48.68683" lon="6.12782">
        <ele>345</ele>
        <time>2012-03-22T14:57:23Z</time>
      </trkpt>
      <trkpt lat="48.687" lon="6.12775">
        <ele>344</ele>
        <time>2012-03-22T14:57:28Z</time>
      </trkpt>
      <trkpt lat="48.68715" lon="6.12766">
        <ele>347</ele>
        <time>2012-03-22T14:57:32Z</time>
      </trkpt>
      <trkpt lat="48.68722" lon="6.1276">
        <ele>347</ele>
        <time>2012-03-22T14:57:34Z</time>
      </trkpt>
      <trkpt lat="48.68726" lon="6.12757">
        <ele>347</ele>
        <time>2012-03-22T14:57:35Z</time>
      </trkpt>
      <trkpt lat="48.6873" lon="6.12755">
        <ele>349</ele>
        <time>2012-03-22T14:57:36Z</time>
      </trkpt>
      <trkpt lat="48.6875" lon="6.12746">
        <ele>348</ele>
        <time>2012-03-22T14:57:41Z</time>
      </trkpt>
      <trkpt lat="48.68754" lon="6.12744">
        <ele>347</ele>
        <time>2012-03-22T14:57:42Z</time>
      </trkpt>
      <trkpt lat="48.68768" lon="6.12738">
        <ele>347</ele>
        <time>2012-03-22T14:57:46Z</time>
      </trkpt>
      <trkpt lat="48.68772" lon="6.12738">
        <ele>346</ele>
        <time>2012-03-22T14:57:47Z</time>
      </trkpt>
      <trkpt lat="48.68776" lon="6.12737">
        <ele>347</ele>
        <time>2012-03-22T14:57:48Z</time>
      </trkpt>
      <trkpt lat="48.68784" lon="6.12746">
        <ele>348</ele>
        <time>2012-03-22T14:57:52Z</time>
      </trkpt>
      <trkpt lat="48.68789" lon="6.1276">
        <ele>352</ele>
        <time>2012-03-22T14:57:55Z</time>
      </trkpt>
      <trkpt lat="48.68789" lon="6.12776">
        <ele>351</ele>
        <time>2012-03-22T14:57:58Z</time>
      </trkpt>
      <trkpt lat="48.68789" lon="6.12792">
        <ele>353</ele>
        <time>2012-03-22T14:58:01Z</time>
      </trkpt>
      <trkpt lat="48.68789" lon="6.12803">
        <ele>356</ele>
        <time>2012-03-22T14:58:03Z</time>
      </trkpt>
      <trkpt lat="48.68789" lon="6.12811">
        <ele>355</ele>
        <time>2012-03-22T14:58:04Z</time>
      </trkpt>
      <trkpt lat="48.68791" lon="6.12827">
        <ele>354</ele>
        <time>2012-03-22T14:58:06Z</time>
      </trkpt>
      <trkpt lat="48.68792" lon="6.12836">
        <ele>353</ele>
        <time>2012-03-22T14:58:07Z</time>
      </trkpt>
      <trkpt lat="48.68793" lon="6.12846">
        <ele>353</ele>
        <time>2012-03-22T14:58:08Z</time>
      </trkpt>
      <trkpt lat="48.68797" lon="6.12874">
        <ele>351</ele>
        <time>2012-03-22T14:58:11Z</time>
      </trkpt>
      <trkpt lat="48.68799" lon="6.12893">
        <ele>351</ele>
        <time>2012-03-22T14:58:13Z</time>
      </trkpt>
      <trkpt lat="48.68802" lon="6.12922">
        <ele>348</ele>
        <time>2012-03-22T14:58:16Z</time>
      </trkpt>
      <trkpt lat="48.68803" lon="6.1295">
        <ele>348</ele>
        <time>2012-03-22T14:58:19Z</time>
      </trkpt>
      <trkpt lat="48.68806" lon="6.12978">
        <ele>347</ele>
        <time>2012-03-22T14:58:22Z</time>
      </trkpt>
      <trkpt lat="48.68808" lon="6.13007">
        <ele>346</ele>
        <time>2012-03-22T14:58:25Z</time>
      </trkpt>
      <trkpt lat="48.68808" lon="6.13017">
        <ele>345</ele>
        <time>2012-03-22T14:58:26Z</time>
      </trkpt>
      <trkpt lat="48.6881" lon="6.13052">
        <ele>344</ele>
        <time>2012-03-22T14:58:29Z</time>
      </trkpt>
      <trkpt lat="48.68811" lon="6.13063">
        <ele>344</ele>
        <time>2012-03-22T14:58:30Z</time>
      </trkpt>
      <trkpt lat="48.68812" lon="6.13074">
        <ele>344</ele>
        <time>2012-03-22T14:58:31Z</time>
      </trkpt>
      <trkpt lat="48.68814" lon="6.13099">
        <ele>342</ele>
        <time>2012-03-22T14:58:33Z</time>
      </trkpt>
      <trkpt lat="48.68815" lon="6.13111">
        <ele>341</ele>
        <time>2012-03-22T14:58:34Z</time>
      </trkpt>
      <trkpt lat="48.68817" lon="6.13137">
        <ele>342</ele>
        <time>2012-03-22T14:58:36Z</time>
      </trkpt>
      <trkpt lat="48.6882" lon="6.13168">
        <ele>341</ele>
        <time>2012-03-22T14:58:39Z</time>
      </trkpt>
      <trkpt lat="48.68818" lon="6.1318">
        <ele>342</ele>
        <time>2012-03-22T14:58:41Z</time>
      </trkpt>
      <trkpt lat="48.68816" lon="6.13183">
        <ele>342</ele>
        <time>2012-03-22T14:58:42Z</time>
      </trkpt>
      <trkpt lat="48.68789" lon="6.13162">
        <ele>330</ele>
        <time>2012-03-22T14:58:48Z</time>
      </trkpt>
      <trkpt lat="48.68781" lon="6.13156">
        <ele>329</ele>
        <time>2012-03-22T14:58:49Z</time>
      </trkpt>
      <trkpt lat="48.68757" lon="6.13144">
        <ele>327</ele>
        <time>2012-03-22T14:58:52Z</time>
      </trkpt>
      <trkpt lat="48.68706" lon="6.13138">
        <ele>326</ele>
        <time>2012-03-22T14:58:57Z</time>
      </trkpt>
      <trkpt lat="48.68672" lon="6.13139">
        <ele>325</ele>
        <time>2012-03-22T14:59:00Z</time>
      </trkpt>
      <trkpt lat="48.6866" lon="6.1314">
        <ele>323</ele>
        <time>2012-03-22T14:59:01Z</time>
      </trkpt>
      <trkpt lat="48.68649" lon="6.13143">
        <ele>318</ele>
        <time>2012-03-22T14:59:02Z</time>
      </trkpt>
      <trkpt lat="48.68612" lon="6.13158">
        <ele>322</ele>
        <time>2012-03-22T14:59:05Z</time>
      </trkpt>
      <trkpt lat="48.6858" lon="6.13187">
        <ele>321</ele>
        <time>2012-03-22T14:59:08Z</time>
      </trkpt>
      <trkpt lat="48.68546" lon="6.13222">
        <ele>321</ele>
        <time>2012-03-22T14:59:11Z</time>
      </trkpt>
      <trkpt lat="48.68513" lon="6.13261">
        <ele>320</ele>
        <time>2012-03-22T14:59:14Z</time>
      </trkpt>
      <trkpt lat="48.68491" lon="6.13312">
        <ele>319</ele>
        <time>2012-03-22T14:59:17Z</time>
      </trkpt>
      <trkpt lat="48.68478" lon="6.13367">
        <ele>318</ele>
        <time>2012-03-22T14:59:20Z</time>
      </trkpt>
      <trkpt lat="48.68473" lon="6.13423">
        <ele>315</ele>
        <time>2012-03-22T14:59:23Z</time>
      </trkpt>
      <trkpt lat="48.68472" lon="6.1346">
        <ele>315</ele>
        <time>2012-03-22T14:59:25Z</time>
      </trkpt>
      <trkpt lat="48.68473" lon="6.13516">
        <ele>311</ele>
        <time>2012-03-22T14:59:28Z</time>
      </trkpt>
      <trkpt lat="48.68474" lon="6.13535">
        <ele>311</ele>
        <time>2012-03-22T14:59:29Z</time>
      </trkpt>
      <trkpt lat="48.68477" lon="6.13572">
        <ele>308</ele>
        <time>2012-03-22T14:59:31Z</time>
      </trkpt>
      <trkpt lat="48.68478" lon="6.13591">
        <ele>306</ele>
        <time>2012-03-22T14:59:32Z</time>
      </trkpt>
      <trkpt lat="48.68481" lon="6.13629">
        <ele>305</ele>
        <time>2012-03-22T14:59:34Z</time>
      </trkpt>
      <trkpt lat="48.68481" lon="6.1365">
        <ele>304</ele>
        <time>2012-03-22T14:59:35Z</time>
      </trkpt>
      <trkpt lat="48.6848" lon="6.1371">
        <ele>301</ele>
        <time>2012-03-22T14:59:38Z</time>
      </trkpt>
      <trkpt lat="48.6847" lon="6.13763">
        <ele>297</ele>
        <time>2012-03-22T14:59:41Z</time>
      </trkpt>
      <trkpt lat="48.68464" lon="6.1378">
        <ele>297</ele>
        <time>2012-03-22T14:59:42Z</time>
      </trkpt>
      <trkpt lat="48.68451" lon="6.13811">
        <ele>295</ele>
        <time>2012-03-22T14:59:44Z</time>
      </trkpt>
      <trkpt lat="48.68433" lon="6.13842">
        <ele>294</ele>
        <time>2012-03-22T14:59:46Z</time>
      </trkpt>
      <trkpt lat="48.68403" lon="6.13878">
        <ele>288</ele>
        <time>2012-03-22T14:59:49Z</time>
      </trkpt>
      <trkpt lat="48.68383" lon="6.139">
        <ele>287</ele>
        <time>2012-03-22T14:59:51Z</time>
      </trkpt>
      <trkpt lat="48.68361" lon="6.13922">
        <ele>286</ele>
        <time>2012-03-22T14:59:54Z</time>
      </trkpt>
      <trkpt lat="48.68345" lon="6.1392">
        <ele>277</ele>
        <time>2012-03-22T14:59:57Z</time>
      </trkpt>
      <trkpt lat="48.68339" lon="6.13919">
        <ele>277</ele>
        <time>2012-03-22T14:59:58Z</time>
      </trkpt>
      <trkpt lat="48.68327" lon="6.13919">
        <ele>280</ele>
        <time>2012-03-22T15:00:01Z</time>
      </trkpt>
      <trkpt lat="48.68324" lon="6.13921">
        <ele>280</ele>
        <time>2012-03-22T15:00:02Z</time>
      </trkpt>
      <trkpt lat="48.68316" lon="6.13927">
        <ele>281</ele>
        <time>2012-03-22T15:00:04Z</time>
      </trkpt>
      <trkpt lat="48.68312" lon="6.13931">
        <ele>282</ele>
        <time>2012-03-22T15:00:05Z</time>
      </trkpt>
      <trkpt lat="48.68304" lon="6.13941">
        <ele>282</ele>
        <time>2012-03-22T15:00:07Z</time>
      </trkpt>
      <trkpt lat="48.68298" lon="6.13947">
        <ele>280</ele>
        <time>2012-03-22T15:00:08Z</time>
      </trkpt>
      <trkpt lat="48.68279" lon="6.13963">
        <ele>276</ele>
        <time>2012-03-22T15:00:11Z</time>
      </trkpt>
      <trkpt lat="48.68271" lon="6.1397">
        <ele>275</ele>
        <time>2012-03-22T15:00:12Z</time>
      </trkpt>
      <trkpt lat="48.68251" lon="6.13986">
        <ele>270</ele>
        <time>2012-03-22T15:00:14Z</time>
      </trkpt>
      <trkpt lat="48.68208" lon="6.14022">
        <ele>262</ele>
        <time>2012-03-22T15:00:18Z</time>
      </trkpt>
      <trkpt lat="48.68173" lon="6.14049">
        <ele>258</ele>
        <time>2012-03-22T15:00:21Z</time>
      </trkpt>
      <trkpt lat="48.68139" lon="6.14076">
        <ele>257</ele>
        <time>2012-03-22T15:00:24Z</time>
      </trkpt>
      <trkpt lat="48.68103" lon="6.14102">
        <ele>257</ele>
        <time>2012-03-22T15:00:27Z</time>
      </trkpt>
      <trkpt lat="48.68067" lon="6.14123">
        <ele>252</ele>
        <time>2012-03-22T15:00:30Z</time>
      </trkpt>
      <trkpt lat="48.6802" lon="6.14143">
        <ele>249</ele>
        <time>2012-03-22T15:00:34Z</time>
      </trkpt>
      <trkpt lat="48.67984" lon="6.14157">
        <ele>248</ele>
        <time>2012-03-22T15:00:37Z</time>
      </trkpt>
      <trkpt lat="48.67952" lon="6.14154">
        <ele>253</ele>
        <time>2012-03-22T15:00:40Z</time>
      </trkpt>
      <trkpt lat="48.6793" lon="6.14139">
        <ele>249</ele>
        <time>2012-03-22T15:00:43Z</time>
      </trkpt>
      <trkpt lat="48.67918" lon="6.14136">
        <ele>249</ele>
        <time>2012-03-22T15:00:46Z</time>
      </trkpt>
      <trkpt lat="48.67905" lon="6.14147">
        <ele>252</ele>
        <time>2012-03-22T15:00:49Z</time>
      </trkpt>
      <trkpt lat="48.67893" lon="6.14152">
        <ele>247</ele>
        <time>2012-03-22T15:00:52Z</time>
      </trkpt>
      <trkpt lat="48.67872" lon="6.14172">
        <ele>247</ele>
        <time>2012-03-22T15:00:57Z</time>
      </trkpt>
      <trkpt lat="48.67877" lon="6.14188">
        <ele>248</ele>
        <time>2012-03-22T15:01:00Z</time>
      </trkpt>
      <trkpt lat="48.67888" lon="6.142">
        <ele>247</ele>
        <time>2012-03-22T15:01:03Z</time>
      </trkpt>
      <trkpt lat="48.67901" lon="6.14218">
        <ele>245</ele>
        <time>2012-03-22T15:01:06Z</time>
      </trkpt>
      <trkpt lat="48.67905" lon="6.14224">
        <ele>247</ele>
        <time>2012-03-22T15:01:07Z</time>
      </trkpt>
      <trkpt lat="48.67925" lon="6.14254">
        <ele>246</ele>
        <time>2012-03-22T15:01:11Z</time>
      </trkpt>
      <trkpt lat="48.67939" lon="6.14282">
        <ele>246</ele>
        <time>2012-03-22T15:01:14Z</time>
      </trkpt>
      <trkpt lat="48.67948" lon="6.14301">
        <ele>243</ele>
        <time>2012-03-22T15:01:16Z</time>
      </trkpt>
      <trkpt lat="48.67965" lon="6.14332">
        <ele>242</ele>
        <time>2012-03-22T15:01:19Z</time>
      </trkpt>
      <trkpt lat="48.67982" lon="6.14364">
        <ele>240</ele>
        <time>2012-03-22T15:01:22Z</time>
      </trkpt>
      <trkpt lat="48.67999" lon="6.14395">
        <ele>241</ele>
        <time>2012-03-22T15:01:25Z</time>
      </trkpt>
      <trkpt lat="48.68003" lon="6.14402">
        <ele>241</ele>
        <time>2012-03-22T15:01:26Z</time>
      </trkpt>
      <trkpt lat="48.68013" lon="6.14422">
        <ele>242</ele>
        <time>2012-03-22T15:01:29Z</time>
      </trkpt>
      <trkpt lat="48.68022" lon="6.14437">
        <ele>241</ele>
        <time>2012-03-22T15:01:32Z</time>
      </trkpt>
      <trkpt lat="48.68031" lon="6.14456">
        <ele>242</ele>
        <time>2012-03-22T15:01:35Z</time>
      </trkpt>
      <trkpt lat="48.68034" lon="6.14462">
        <ele>242</ele>
        <time>2012-03-22T15:01:36Z</time>
      </trkpt>
      <trkpt lat="48.68043" lon="6.14479">
        <ele>240</ele>
        <time>2012-03-22T15:01:39Z</time>
      </trkpt>
      <trkpt lat="48.68053" lon="6.14501">
        <ele>240</ele>
        <time>2012-03-22T15:01:42Z</time>
      </trkpt>
      <trkpt lat="48.68069" lon="6.14531">
        <ele>242</ele>
        <time>2012-03-22T15:01:46Z</time>
      </trkpt>
      <trkpt lat="48.68081" lon="6.14554">
        <ele>242</ele>
        <time>2012-03-22T15:01:49Z</time>
      </trkpt>
      <trkpt lat="48.68102" lon="6.14594">
        <ele>240</ele>
        <time>2012-03-22T15:01:54Z</time>
      </trkpt>
      <trkpt lat="48.68116" lon="6.14618">
        <ele>240</ele>
        <time>2012-03-22T15:01:57Z</time>
      </trkpt>
      <trkpt lat="48.68126" lon="6.14638">
        <ele>239</ele>
        <time>2012-03-22T15:02:00Z</time>
      </trkpt>
      <trkpt lat="48.68136" lon="6.14658">
        <ele>243</ele>
        <time>2012-03-22T15:02:03Z</time>
      </trkpt>
      <trkpt lat="48.68139" lon="6.14665">
        <ele>244</ele>
        <time>2012-03-22T15:02:04Z</time>
      </trkpt>
      <trkpt lat="48.68146" lon="6.14679">
        <ele>245</ele>
        <time>2012-03-22T15:02:06Z</time>
      </trkpt>
      <trkpt lat="48.6815" lon="6.14686">
        <ele>244</ele>
        <time>2012-03-22T15:02:07Z</time>
      </trkpt>
      <trkpt lat="48.68165" lon="6.14717">
        <ele>239</ele>
        <time>2012-03-22T15:02:12Z</time>
      </trkpt>
      <trkpt lat="48.68177" lon="6.14738">
        <ele>238</ele>
        <time>2012-03-22T15:02:15Z</time>
      </trkpt>
      <trkpt lat="48.68188" lon="6.1476">
        <ele>237</ele>
        <time>2012-03-22T15:02:18Z</time>
      </trkpt>
      <trkpt lat="48.68195" lon="6.14775">
        <ele>239</ele>
        <time>2012-03-22T15:02:20Z</time>
      </trkpt>
      <trkpt lat="48.68209" lon="6.14798">
        <ele>235</ele>
        <time>2012-03-22T15:02:23Z</time>
      </trkpt>
      <trkpt lat="48.68213" lon="6.14806">
        <ele>236</ele>
        <time>2012-03-22T15:02:24Z</time>
      </trkpt>
      <trkpt lat="48.68226" lon="6.14829">
        <ele>234</ele>
        <time>2012-03-22T15:02:27Z</time>
      </trkpt>
      <trkpt lat="48.68245" lon="6.14854">
        <ele>234</ele>
        <time>2012-03-22T15:02:30Z</time>
      </trkpt>
      <trkpt lat="48.68266" lon="6.14891">
        <ele>235</ele>
        <time>2012-03-22T15:02:34Z</time>
      </trkpt>
      <trkpt lat="48.6829" lon="6.14929">
        <ele>235</ele>
        <time>2012-03-22T15:02:38Z</time>
      </trkpt>
      <trkpt lat="48.68309" lon="6.14955">
        <ele>231</ele>
        <time>2012-03-22T15:02:41Z</time>
      </trkpt>
      <trkpt lat="48.68328" lon="6.14983">
        <ele>234</ele>
        <time>2012-03-22T15:02:44Z</time>
      </trkpt>
      <trkpt lat="48.68345" lon="6.15006">
        <ele>232</ele>
        <time>2012-03-22T15:02:47Z</time>
      </trkpt>
      <trkpt lat="48.68354" lon="6.15024">
        <ele>233</ele>
        <time>2012-03-22T15:02:50Z</time>
      </trkpt>
      <trkpt lat="48.68368" lon="6.15054">
        <ele>227</ele>
        <time>2012-03-22T15:02:55Z</time>
      </trkpt>
      <trkpt lat="48.68375" lon="6.15069">
        <ele>230</ele>
        <time>2012-03-22T15:02:58Z</time>
      </trkpt>
      <trkpt lat="48.68377" lon="6.15073">
        <ele>231</ele>
        <time>2012-03-22T15:02:59Z</time>
      </trkpt>
      <trkpt lat="48.68377" lon="6.15083">
        <ele>228</ele>
        <time>2012-03-22T15:03:02Z</time>
      </trkpt>
      <trkpt lat="48.68386" lon="6.15094">
        <ele>227</ele>
        <time>2012-03-22T15:03:05Z</time>
      </trkpt>
      <trkpt lat="48.68389" lon="6.15099">
        <ele>226</ele>
        <time>2012-03-22T15:03:06Z</time>
      </trkpt>
      <trkpt lat="48.68398" lon="6.1512">
        <ele>228</ele>
        <time>2012-03-22T15:03:09Z</time>
      </trkpt>
      <trkpt lat="48.68404" lon="6.15143">
        <ele>227</ele>
        <time>2012-03-22T15:03:12Z</time>
      </trkpt>
      <trkpt lat="48.68408" lon="6.1516">
        <ele>228</ele>
        <time>2012-03-22T15:03:14Z</time>
      </trkpt>
      <trkpt lat="48.68416" lon="6.15192">
        <ele>230</ele>
        <time>2012-03-22T15:03:18Z</time>
      </trkpt>
      <trkpt lat="48.68421" lon="6.15208">
        <ele>227</ele>
        <time>2012-03-22T15:03:20Z</time>
      </trkpt>
      <trkpt lat="48.68425" lon="6.15224">
        <ele>228</ele>
        <time>2012-03-22T15:03:22Z</time>
      </trkpt>
      <trkpt lat="48.6843" lon="6.1524">
        <ele>228</ele>
        <time>2012-03-22T15:03:24Z</time>
      </trkpt>
      <trkpt lat="48.68432" lon="6.15249">
        <ele>225</ele>
        <time>2012-03-22T15:03:25Z</time>
      </trkpt>
      <trkpt lat="48.68434" lon="6.15258">
        <ele>226</ele>
        <time>2012-03-22T15:03:26Z</time>
      </trkpt>
      <trkpt lat="48.68445" lon="6.153">
        <ele>223</ele>
        <time>2012-03-22T15:03:31Z</time>
      </trkpt>
      <trkpt lat="48.68451" lon="6.15326">
        <ele>223</ele>
        <time>2012-03-22T15:03:34Z</time>
      </trkpt>
      <trkpt lat="48.68453" lon="6.15344">
        <ele>225</ele>
        <time>2012-03-22T15:03:36Z</time>
      </trkpt>
      <trkpt lat="48.68456" lon="6.15369">
        <ele>227</ele>
        <time>2012-03-22T15:03:39Z</time>
      </trkpt>
      <trkpt lat="48.6846" lon="6.15411">
        <ele>230</ele>
        <time>2012-03-22T15:03:44Z</time>
      </trkpt>
      <trkpt lat="48.68461" lon="6.1543">
        <ele>227</ele>
        <time>2012-03-22T15:03:46Z</time>
      </trkpt>
      <trkpt lat="48.68462" lon="6.15437">
        <ele>227</ele>
        <time>2012-03-22T15:03:47Z</time>
      </trkpt>
      <trkpt lat="48.68464" lon="6.15475">
        <ele>230</ele>
        <time>2012-03-22T15:03:52Z</time>
      </trkpt>
      <trkpt lat="48.68465" lon="6.15501">
        <ele>227</ele>
        <time>2012-03-22T15:03:55Z</time>
      </trkpt>
      <trkpt lat="48.68468" lon="6.15526">
        <ele>227</ele>
        <time>2012-03-22T15:03:58Z</time>
      </trkpt>
      <trkpt lat="48.68472" lon="6.15555">
        <ele>228</ele>
        <time>2012-03-22T15:04:01Z</time>
      </trkpt>
      <trkpt lat="48.68475" lon="6.15573">
        <ele>230</ele>
        <time>2012-03-22T15:04:03Z</time>
      </trkpt>
      <trkpt lat="48.68474" lon="6.15589">
        <ele>232</ele>
        <time>2012-03-22T15:04:05Z</time>
      </trkpt>
      <trkpt lat="48.6847" lon="6.15604">
        <ele>232</ele>
        <time>2012-03-22T15:04:07Z</time>
      </trkpt>
      <trkpt lat="48.68466" lon="6.15621">
        <ele>231</ele>
        <time>2012-03-22T15:04:09Z</time>
      </trkpt>
      <trkpt lat="48.68464" lon="6.1565">
        <ele>227</ele>
        <time>2012-03-22T15:04:12Z</time>
      </trkpt>
      <trkpt lat="48.68462" lon="6.15678">
        <ele>226</ele>
        <time>2012-03-22T15:04:15Z</time>
      </trkpt>
      <trkpt lat="48.68456" lon="6.15705">
        <ele>228</ele>
        <time>2012-03-22T15:04:18Z</time>
      </trkpt>
      <trkpt lat="48.68451" lon="6.15733">
        <ele>231</ele>
        <time>2012-03-22T15:04:21Z</time>
      </trkpt>
      <trkpt lat="48.68448" lon="6.15743">
        <ele>231</ele>
        <time>2012-03-22T15:04:22Z</time>
      </trkpt>
      <trkpt lat="48.6844" lon="6.15776">
        <ele>225</ele>
        <time>2012-03-22T15:04:25Z</time>
      </trkpt>
      <trkpt lat="48.68439" lon="6.15786">
        <ele>226</ele>
        <time>2012-03-22T15:04:26Z</time>
      </trkpt>
      <trkpt lat="48.68446" lon="6.15815">
        <ele>222</ele>
        <time>2012-03-22T15:04:29Z</time>
      </trkpt>
      <trkpt lat="48.68454" lon="6.15842">
        <ele>225</ele>
        <time>2012-03-22T15:04:32Z</time>
      </trkpt>
      <trkpt lat="48.68462" lon="6.15866">
        <ele>225</ele>
        <time>2012-03-22T15:04:35Z</time>
      </trkpt>
      <trkpt lat="48.68475" lon="6.15879">
        <ele>224</ele>
        <time>2012-03-22T15:04:38Z</time>
      </trkpt>
      <trkpt lat="48.68477" lon="6.15884">
        <ele>225</ele>
        <time>2012-03-22T15:04:39Z</time>
      </trkpt>
      <trkpt lat="48.68486" lon="6.15905">
        <ele>220</ele>
        <time>2012-03-22T15:04:45Z</time>
      </trkpt>
      <trkpt lat="48.68496" lon="6.15926">
        <ele>228</ele>
        <time>2012-03-22T15:04:52Z</time>
      </trkpt>
      <trkpt lat="48.68497" lon="6.1593">
        <ele>229</ele>
        <time>2012-03-22T15:04:54Z</time>
      </trkpt>
      <trkpt lat="48.68501" lon="6.15944">
        <ele>228</ele>
        <time>2012-03-22T15:04:59Z</time>
      </trkpt>
      <trkpt lat="48.68504" lon="6.15952">
        <ele>228</ele>
        <time>2012-03-22T15:05:02Z</time>
      </trkpt>
      <trkpt lat="48.6851" lon="6.15972">
        <ele>230</ele>
        <time>2012-03-22T15:05:09Z</time>
      </trkpt>
      <trkpt lat="48.6852" lon="6.15979">
        <ele>225</ele>
        <time>2012-03-22T15:05:16Z</time>
      </trkpt>
      <trkpt lat="48.68523" lon="6.15978">
        <ele>225</ele>
        <time>2012-03-22T15:05:17Z</time>
      </trkpt>
      <trkpt lat="48.68531" lon="6.15972">
        <ele>218</ele>
        <time>2012-03-22T15:05:21Z</time>
      </trkpt>
      <trkpt lat="48.68552" lon="6.15958">
        <ele>227</ele>
        <time>2012-03-22T15:05:47Z</time>
      </trkpt>
      <trkpt lat="48.68552" lon="6.15958">
        <ele>227</ele>
        <time>2012-03-22T15:05:59Z</time>
      </trkpt>
      <trkpt lat="48.68553" lon="6.15956">
        <ele>227</ele>
        <time>2012-03-22T15:06:06Z</time>
      </trkpt>
      <trkpt lat="48.6854" lon="6.15957">
        <ele>225</ele>
        <time>2012-03-22T15:06:14Z</time>
      </trkpt>
    </trkseg>
  </trk>
</gpx>